GEFSGL_500_meanwind_000.txt.gz
Wind_Speed
79 80 80 77 75 73 70 66 63 61 62 61 63 64 65 63 56 51 51 51 50 47 47 47 46 45 43 40 38 33 30 30 29 27 26 27 26 26 25 24 24 24 24
78 76 72 68 63 61 61 61 61 60 59 59 58 55 50 45 41 38 38 37 35 35 34 33 30 29 29 25 24 25 26 25 24 25 27 23 21 22 24 22 21 19 16
73 70 63 57 56 54 53 53 53 52 49 46 42 38 35 32 30 29 28 27 28 28 28 26 25 25 24 24 21 20 21 23 24 23 23 22 23 22 22 22 18 18 18
67 57 50 48 46 42 41 41 41 38 34 31 30 28 28 27 26 25 25 25 24 26 27 27 27 25 22 18 18 20 22 20 14 16 21 21 21 21 23 23 20 20 22
51 46 43 40 37 36 36 33 30 28 27 26 25 25 26 26 26 26 25 27 26 25 22 18 16 15 14 12 14 15 15 14 12 12 15 17 19 20 19 19 18 21 22
45 43 38 36 32 30 26 23 22 23 23 22 23 24 26 25 24 23 22 22 20 18 14 12 10 11 10 11 10 11 9 9 9 8 11 14 14 17 17 17 20 20 22
40 33 27 22 20 18 17 20 22 24 23 21 20 21 21 22 19 18 16 13 12 11 11 11 10 10 10 12 12 6 6 11 13 14 13 14 12 16 16 15 15 20 23
20 11 8 11 12 14 19 22 22 19 17 16 17 18 19 19 20 19 17 14 13 12 12 11 11 9 8 10 5 5 6 7 11 15 15 13 12 13 16 16 16 18 19
9 9 9 10 13 17 17 18 18 16 17 18 19 19 19 20 21 20 17 16 14 14 12 11 10 7 5 6 3 5 7 5 7 14 17 14 15 16 17 19 18 22 21
15 13 13 15 16 15 17 18 17 17 19 21 21 21 21 20 19 18 17 15 15 16 13 12 11 10 6 5 3 2 7 6 7 8 16 19 17 17 23 24 21 22 21
17 18 18 17 15 18 20 21 21 21 22 23 24 24 25 24 22 20 18 16 15 15 15 13 8 6 7 8 8 2 2 5 5 6 10 14 18 22 24 22 19 17 18
19 19 18 20 21 23 25 26 25 25 25 25 26 26 25 25 24 23 20 18 15 13 12 12 9 3 5 7 6 7 6 3 5 9 13 15 18 19 18 17 16 16 17
21 20 21 23 25 27 28 28 29 30 31 32 31 30 28 26 24 22 21 19 17 13 11 9 7 5 2 5 8 9 13 10 9 13 14 14 17 17 18 17 16 15 13
21 23 25 27 29 29 30 31 32 32 32 32 31 29 27 24 22 21 19 18 17 16 13 10 7 5 3 3 8 13 14 10 12 16 19 20 17 16 16 15 13 12 12
24 26 27 29 30 32 33 32 31 31 31 31 28 26 24 23 22 20 17 15 13 14 14 12 11 8 5 4 5 7 9 8 9 13 22 24 21 20 19 16 14 15 16
24 26 28 30 30 32 33 34 34 34 34 31 27 24 21 21 21 20 16 14 12 11 11 12 11 12 10 8 8 8 8 8 7 10 16 21 22 22 21 18 17 19 20
25 27 29 32 34 36 38 39 36 34 34 31 25 21 19 21 22 20 18 15 12 9 7 8 11 13 15 13 11 10 9 9 10 11 14 17 21 21 20 19 19 20 20
26 30 34 36 38 40 44 45 39 33 31 30 25 22 23 25 25 23 20 15 11 7 5 3 5 12 16 16 15 14 13 12 12 13 15 18 21 22 22 21 20 20 22
26 31 34 38 41 43 46 48 45 37 30 28 26 26 27 28 27 26 23 14 7 3 3 5 3 6 15 18 18 18 17 16 15 15 17 18 19 20 20 19 19 20 23
26 31 34 38 41 44 47 49 48 42 34 31 30 31 32 31 30 30 29 21 11 5 3 4 6 1 11 19 21 22 22 21 20 19 19 19 18 18 19 20 20 21 23
28 32 35 39 42 44 46 48 48 44 37 33 33 35 35 34 33 32 30 24 19 15 11 9 8 5 4 14 21 24 24 24 24 23 22 22 21 19 19 20 21 23 25
28 31 35 38 41 43 46 48 49 48 42 36 34 37 37 34 32 30 29 25 17 12 11 10 9 8 4 7 15 22 25 26 26 26 26 25 23 22 20 20 21 23 26
27 30 34 36 39 42 45 48 50 50 48 42 37 38 39 36 31 28 28 27 24 17 11 9 6 4 5 7 9 15 22 25 26 26 26 25 25 24 23 22 22 25 27
28 31 33 35 37 39 42 46 48 50 50 47 42 40 42 40 34 29 28 26 24 22 19 15 11 8 8 10 10 12 17 21 24 25 25 25 25 25 25 24 24 25 28
29 32 35 36 38 39 41 43 46 48 50 50 47 43 43 43 38 33 31 29 25 21 20 20 18 15 13 13 14 14 17 20 23 23 22 22 22 23 23 23 23 24 27
29 32 35 37 39 41 42 43 44 46 48 49 49 48 45 44 42 37 34 33 30 24 20 19 18 17 16 16 16 17 17 18 20 21 20 19 19 20 21 21 22 24 28

GEFSGL_500_meanwind_006.txt.gz
Wind_Speed
70 74 78 81 83 84 84 81 75 66 58 51 50 50 49 47 45 42 40 39 37 36 34 32 30 29 28 27 28 28 27 27 25 22 22 24 26 26 24 23 22 21 21
77 80 83 83 83 79 73 64 54 46 44 44 44 42 40 38 37 36 35 35 35 33 32 30 28 27 26 27 27 27 26 24 22 18 17 18 20 21 21 20 21 20 19
80 81 80 76 69 60 51 43 39 38 37 37 35 34 35 35 33 33 32 32 32 31 29 27 26 25 24 24 22 21 21 21 19 16 14 16 17 19 19 19 19 18 18
75 70 63 54 45 39 34 32 31 30 29 30 31 32 31 29 27 27 27 26 25 23 21 20 20 20 20 19 18 18 18 18 16 17 16 16 18 20 20 18 17 17 16
55 46 39 32 28 26 24 23 23 24 26 27 26 25 24 23 23 23 23 21 19 17 16 15 15 16 16 15 15 16 15 15 14 16 17 17 19 22 21 19 18 17 15
33 28 23 20 19 18 18 19 21 23 24 23 23 23 24 24 23 22 22 20 18 15 14 13 13 12 12 12 12 12 10 11 10 10 11 12 16 20 22 20 18 17 15
23 21 19 17 17 18 20 22 24 25 26 26 26 27 27 26 25 23 22 20 18 16 14 13 11 9 9 10 9 7 6 8 9 8 8 10 14 17 18 17 16 16 15
19 20 20 20 21 23 24 26 27 28 29 29 29 29 29 28 26 24 23 20 17 15 14 13 10 8 7 5 4 4 4 7 10 11 11 12 13 14 15 16 17 16 14
19 21 23 24 25 26 27 28 29 30 30 30 29 29 29 28 26 25 23 20 17 15 13 12 9 8 6 3 2 4 3 4 11 15 14 13 12 14 15 17 18 17 14
19 22 25 26 28 29 31 32 32 32 32 31 30 28 27 25 24 23 22 20 17 14 11 11 9 7 7 6 3 2 2 4 11 17 17 15 15 15 16 18 19 18 17
20 23 26 28 30 33 35 36 36 34 33 32 31 28 25 23 21 20 19 18 16 13 10 8 7 6 7 7 5 1 3 7 12 17 19 17 16 16 16 18 19 20 20
21 24 27 30 33 36 38 38 36 32 30 29 28 26 23 20 18 16 15 15 14 13 11 9 6 5 6 6 5 5 7 10 13 17 19 18 17 15 15 17 20 21 19
23 27 30 34 37 39 40 38 34 29 28 27 26 23 21 20 20 18 15 11 11 11 11 11 9 6 6 6 7 10 12 14 14 15 17 17 16 15 15 18 20 21 19
24 28 32 36 38 40 40 38 33 28 27 26 26 24 23 22 22 21 18 13 9 9 10 13 13 9 8 9 12 14 16 16 16 16 17 17 17 17 19 20 20 20 18
25 29 33 36 39 41 41 39 33 28 27 28 27 25 24 22 20 18 16 13 9 7 8 12 15 14 12 13 15 18 18 16 15 16 17 17 18 21 21 21 20 19 17
25 29 33 36 40 41 42 39 34 29 29 30 28 26 25 25 24 21 15 10 8 6 7 11 15 17 15 15 18 21 19 15 15 16 17 18 19 21 21 20 18 17 16
25 29 33 36 38 39 40 39 36 32 30 32 31 28 26 25 25 24 19 7 3 3 5 8 13 18 18 17 17 19 18 15 15 18 20 20 21 22 21 19 17 15 16
25 29 33 35 36 37 38 38 37 34 33 34 34 30 26 24 24 22 18 9 2 3 3 5 10 17 20 19 18 17 16 15 15 17 22 23 24 24 22 19 16 15 18
26 29 32 34 36 37 38 38 37 36 34 34 33 29 26 25 23 20 17 11 6 5 4 2 6 15 20 21 20 18 17 16 15 17 20 23 25 24 22 19 18 19 22
27 30 32 35 37 38 38 39 39 38 36 34 32 29 26 25 23 19 14 10 7 6 5 3 3 12 19 22 22 21 19 18 18 18 20 22 23 23 22 21 21 22 24
28 32 35 37 38 38 38 39 39 39 38 36 34 31 28 26 24 20 15 10 7 6 5 5 4 7 17 22 23 23 22 21 20 21 21 21 22 23 23 23 24 24 25
30 34 37 38 39 38 39 39 40 40 40 38 36 33 29 26 24 21 18 15 10 6 4 5 5 6 12 20 23 24 23 22 22 21 22 23 24 24 24 24 25 25 25
31 34 37 39 40 39 39 39 40 40 40 39 37 35 30 27 24 21 19 18 16 11 8 7 6 6 9 16 21 23 23 23 22 22 22 23 24 24 23 24 26 26 25
30 33 36 39 40 39 39 39 39 40 41 40 39 37 33 30 26 23 21 19 18 15 12 10 9 8 9 13 17 21 21 22 22 22 21 21 22 23 23 24 25 26 27
29 32 35 38 39 39 39 39 39 40 41 41 40 38 35 33 31 28 25 22 20 18 15 13 11 10 11 13 15 17 18 19 19 20 20 20 21 22 23 24 24 25 26
29 32 35 36 37 38 39 39 39 39 40 41 41 39 37 35 34 33 30 27 23 21 19 18 16 15 14 14 16 17 16 16 16 17 18 19 20 21 23 23 24 24 25

GEFSGL_500_meanwind_012.txt.gz
Wind_Speed
53 56 60 63 62 57 54 50 46 42 39 37 36 35 34 33 33 33 34 35 34 34 34 34 34 34 33 32 30 29 28 29 26 23 25 25 26 25 23 21 20 21 22
55 59 61 58 51 47 44 42 40 38 37 36 36 35 34 34 34 34 33 32 30 30 30 31 31 30 28 26 25 24 24 24 23 20 21 22 22 20 18 15 13 14 16
58 59 56 47 41 41 40 39 39 39 38 38 38 37 36 35 35 34 32 31 30 30 30 29 29 27 25 23 21 21 21 22 21 20 19 19 18 15 13 10 9 11 12
57 54 44 37 37 38 37 38 39 40 41 41 41 41 39 38 37 36 35 34 33 32 30 29 27 26 23 21 20 20 20 20 21 19 17 17 16 14 12 10 8 8 9
52 42 35 33 34 35 36 38 40 41 43 43 43 43 42 40 39 37 37 36 35 33 31 29 27 25 22 21 20 19 19 19 19 17 15 15 15 14 12 10 8 7 7
40 32 30 31 32 33 36 38 40 43 44 44 44 43 42 40 39 38 36 35 34 32 31 29 27 24 21 19 18 17 17 16 15 13 12 13 13 14 13 10 8 7 6
30 27 27 28 30 32 35 38 41 43 44 43 42 40 38 37 36 35 33 31 30 30 29 27 25 23 19 17 16 15 14 14 12 9 8 8 9 12 12 10 9 7 5
23 23 25 27 30 33 37 40 42 43 43 42 39 36 34 33 32 31 31 29 28 27 27 25 23 21 18 15 13 12 12 11 8 5 4 5 6 10 11 11 9 6 4
20 22 24 27 31 35 39 42 43 42 41 39 36 35 34 32 30 29 28 26 25 25 25 23 21 19 16 13 11 10 10 8 6 4 4 6 9 10 12 12 9 7 5
19 22 25 29 33 38 41 43 43 41 40 38 36 35 34 32 30 28 26 24 24 23 22 21 18 15 13 11 9 8 7 5 5 7 7 8 10 10 12 12 11 9 6
19 23 27 32 36 40 43 44 42 40 38 36 35 35 34 33 31 29 26 23 22 21 20 18 16 12 10 8 7 5 4 4 7 10 10 9 9 9 10 12 12 9 7
21 25 30 35 39 43 43 42 40 38 37 36 35 35 34 33 31 29 26 23 20 18 16 15 13 10 8 7 6 5 4 7 10 12 12 10 10 10 11 12 11 9 8
24 28 33 38 41 43 42 40 40 39 39 37 36 35 33 31 29 28 25 23 19 14 12 11 9 8 7 8 8 8 9 11 13 14 13 12 12 12 13 13 12 11 10
26 31 35 39 42 42 40 39 39 40 40 38 37 34 32 29 26 25 24 23 16 10 8 7 5 8 9 11 12 12 13 14 15 15 14 13 13 15 16 15 13 13 15
28 33 37 40 40 41 41 39 39 39 39 38 35 33 29 26 24 22 21 18 12 5 4 3 5 9 12 15 15 15 15 17 17 17 16 14 14 16 18 17 15 16 18
30 34 37 39 39 40 40 40 39 39 38 37 34 31 28 26 24 21 17 14 8 2 0 2 6 10 13 17 18 17 17 17 18 18 16 15 15 17 17 17 17 18 20
31 35 37 38 38 39 39 40 40 39 38 36 33 30 27 25 23 19 14 10 6 3 3 3 6 10 13 17 19 18 17 17 18 18 18 18 18 18 19 18 17 18 19
33 36 37 38 38 38 38 40 40 40 38 35 32 29 26 24 21 16 11 8 6 5 4 4 7 10 12 16 19 20 19 17 18 18 19 19 20 20 19 18 17 16 17
34 36 37 37 38 38 38 39 39 38 36 34 30 27 24 22 20 16 10 7 7 7 6 5 8 10 11 13 17 20 20 19 18 18 19 19 20 20 19 17 16 14 14
34 35 36 36 37 37 37 38 38 37 35 32 29 26 24 22 20 17 11 7 7 7 7 6 8 11 11 12 15 17 18 18 18 18 19 20 20 20 18 16 14 13 13
33 34 35 35 35 35 36 37 38 36 34 32 30 28 26 23 21 17 12 8 7 8 9 8 8 11 12 12 13 14 15 16 17 18 19 20 20 19 17 15 13 12 13
32 32 33 33 33 34 35 37 38 37 34 33 32 31 29 26 23 20 16 11 7 7 9 9 8 10 12 12 12 12 13 14 15 17 19 20 21 20 18 16 13 13 14
30 31 32 32 32 33 34 35 37 37 36 34 33 32 30 27 25 22 19 16 11 8 8 9 8 9 11 11 11 12 12 13 14 15 17 19 21 21 19 17 16 16 17
30 31 31 31 31 32 33 34 35 36 37 35 33 32 30 28 25 23 21 18 15 12 10 8 9 9 11 12 11 11 11 12 14 15 16 18 19 20 20 19 19 19 19
29 30 31 31 31 31 32 33 34 35 35 35 35 33 31 29 26 23 21 20 18 16 14 11 10 11 12 13 12 11 11 11 13 15 16 17 17 18 20 21 21 20 20
29 30 31 31 31 31 32 33 33 33 34 34 34 34 33 30 27 24 21 19 18 18 17 16 14 13 13 14 14 12 11 11 11 14 16 17 17 17 18 19 20 20 20

GEFSGL_500_meanwind_018.txt.gz
Wind_Speed
58 60 62 63 63 62 60 59 55 48 42 39 39 41 43 46 49 51 52 53 53 53 52 49 46 44 41 39 37 36 34 32 27 22 24 26 27 27 27 27 26 25 25
61 63 64 63 62 61 59 53 46 41 38 38 40 43 46 49 52 53 53 53 53 52 49 47 44 42 40 38 35 33 32 30 26 21 22 23 24 25 24 23 23 22 21
62 64 63 62 60 57 52 45 39 38 38 40 43 46 49 52 53 54 53 52 50 48 45 43 41 40 38 36 33 31 30 28 25 21 20 22 22 22 21 21 20 18 18
63 62 61 58 56 51 44 39 38 38 40 43 46 50 52 54 54 53 51 49 47 45 42 40 38 36 34 32 31 29 27 25 23 20 19 20 20 20 19 18 17 16 15
60 59 57 54 51 44 39 38 38 40 43 46 50 52 53 53 52 51 48 46 45 42 40 39 36 33 31 29 27 25 24 22 20 18 17 17 17 17 16 15 14 13 13
57 55 53 49 44 39 38 39 41 44 47 50 52 53 53 52 51 49 46 44 42 39 37 36 33 30 27 24 22 20 19 17 16 15 14 14 13 13 13 13 12 11 10
52 51 48 42 38 38 39 41 44 47 50 52 53 52 52 51 49 46 44 42 40 37 35 33 29 26 23 20 18 16 15 13 12 12 11 11 10 9 10 10 9 7 6
49 46 41 37 37 38 41 44 47 50 52 52 52 52 51 50 47 44 42 41 37 34 32 29 25 22 20 16 14 12 11 9 8 8 7 6 6 6 8 9 7 4 3
44 39 35 35 37 40 43 46 49 51 51 51 51 51 49 47 44 42 39 36 33 30 28 25 22 18 15 12 11 10 9 7 6 5 4 3 3 5 8 8 6 2 1
36 33 34 36 39 42 45 47 48 49 50 50 50 48 46 43 41 38 34 30 28 26 24 22 18 13 10 9 9 9 9 7 7 6 6 5 6 8 9 8 6 5 4
31 32 34 37 40 43 45 46 47 48 48 48 47 45 43 41 37 33 29 26 24 22 21 18 13 7 6 9 10 10 10 9 9 9 9 10 10 10 10 9 8 7 6
30 32 35 38 41 42 43 44 46 46 46 45 44 42 40 37 34 30 26 23 21 18 16 12 6 3 7 11 12 12 12 12 13 12 12 12 12 11 11 10 9 9 10
30 33 36 38 40 41 42 44 44 44 44 42 40 38 35 33 30 27 24 20 17 14 10 6 1 5 10 13 14 14 15 15 15 14 12 12 12 12 12 11 11 12 14
31 34 36 37 38 40 41 41 41 41 40 38 35 33 31 29 27 25 20 16 13 9 5 1 4 8 13 15 17 17 18 18 16 14 13 12 12 12 12 12 13 15 18
32 35 36 37 38 39 39 39 39 38 37 34 31 30 28 26 24 20 15 12 9 5 4 5 8 11 15 18 19 19 19 19 17 16 15 14 13 13 14 15 17 20 23
32 34 35 36 37 37 36 36 37 37 34 32 30 29 28 25 21 16 12 10 8 6 6 8 11 13 17 20 21 21 20 19 18 16 15 15 14 14 15 17 20 24 27
32 34 35 36 35 35 35 35 36 36 33 31 29 28 26 22 17 13 10 10 9 7 9 11 13 16 19 21 22 22 21 20 18 17 16 15 15 15 17 20 24 27 29
32 33 34 34 33 33 34 34 35 35 33 31 29 27 25 20 15 11 9 10 9 8 10 12 14 17 19 21 22 22 21 20 18 16 15 16 16 17 19 22 25 28 28
31 32 33 32 32 32 33 33 34 34 33 31 28 26 23 19 14 10 9 10 10 9 11 13 15 17 18 20 20 21 20 19 17 16 15 16 16 17 19 23 26 27 27
31 31 31 31 31 31 31 32 32 32 32 30 27 25 23 19 14 11 10 11 10 9 12 14 15 17 18 18 19 19 19 19 18 17 16 16 16 18 19 22 24 25 24
30 30 30 30 30 30 30 31 31 31 30 30 28 26 24 20 15 11 10 12 12 10 12 14 15 16 16 17 18 18 18 18 18 18 17 17 17 18 19 20 21 21 20
29 29 30 30 30 30 30 30 29 29 29 29 28 26 24 21 18 12 9 10 12 11 11 13 15 15 16 16 16 17 17 18 18 18 18 17 17 17 17 18 18 18 17
29 30 31 31 31 30 29 29 28 27 28 28 27 25 23 21 19 15 11 9 10 11 10 12 14 14 15 15 15 15 16 17 17 18 18 18 17 16 15 15 15 15 15
30 31 33 33 32 31 29 27 26 26 26 27 27 25 22 20 19 17 14 11 10 10 10 11 13 14 14 15 15 14 14 15 16 17 18 18 16 15 14 13 13 13 13
32 34 35 35 33 31 29 27 26 25 25 26 27 27 24 20 18 17 16 15 13 11 10 11 12 14 14 14 14 14 14 14 15 16 17 17 16 15 14 13 12 12 13
35 37 37 36 33 31 28 26 25 24 23 24 26 27 26 23 19 17 16 15 15 13 12 11 12 14 14 14 14 14 14 14 14 15 15 16 16 16 15 14 13 13 13

GEFSGL_500_meanwind_024.txt.gz
Wind_Speed
52 50 49 50 52 56 59 59 58 56 55 54 51 48 45 44 45 47 49 52 55 58 60 61 62 61 60 58 57 54 52 51 46 40 37 36 37 37 34 30 27 27 27
51 49 48 50 53 56 56 55 54 53 53 50 47 45 44 45 48 50 53 56 59 61 62 62 61 59 57 55 52 49 47 45 42 36 32 32 33 33 29 26 25 24 25
50 48 51 52 53 53 52 52 52 51 50 47 45 45 46 49 51 54 56 59 61 62 62 61 58 56 52 49 46 43 41 39 37 31 27 28 28 28 25 23 23 23 23
49 51 52 51 49 49 50 50 50 48 46 45 46 47 49 52 54 56 58 60 60 60 59 57 53 50 46 43 40 38 36 34 31 27 23 23 23 22 21 20 20 21 21
51 50 49 48 48 48 49 49 47 45 45 46 48 50 53 54 56 58 58 58 58 55 53 50 47 44 40 36 34 33 31 29 25 22 20 18 18 18 17 17 17 18 19
49 48 47 47 48 48 48 46 45 45 46 48 50 53 54 56 57 57 57 55 53 49 46 44 41 37 34 31 29 28 25 22 19 18 15 14 13 13 14 14 15 15 15
47 46 46 47 47 47 45 44 44 46 48 50 52 53 54 55 55 53 51 49 46 43 41 38 35 32 28 26 24 22 19 16 14 12 11 11 10 11 11 11 11 11 12
45 45 46 46 45 44 43 44 46 48 50 51 52 53 53 52 50 47 45 43 41 39 37 33 30 27 24 22 20 17 14 10 8 8 8 7 8 8 8 8 8 8 8
44 45 45 44 43 42 43 46 48 50 50 50 51 51 49 47 45 42 40 39 38 36 33 29 25 22 20 18 15 11 7 5 6 6 6 6 6 6 6 6 6 5 4
43 42 42 41 41 43 45 47 48 48 48 48 48 47 45 42 40 38 38 37 35 33 29 25 21 18 15 12 8 6 5 6 7 7 7 7 7 7 7 6 5 3 1
39 39 38 39 42 44 46 46 46 46 46 46 46 45 42 38 37 36 36 34 31 28 24 20 16 12 8 4 4 6 8 9 10 10 10 9 10 9 8 7 5 5 6
35 36 38 41 43 44 44 44 43 43 43 43 42 41 38 36 35 34 32 29 25 22 18 14 10 5 1 4 8 11 12 12 12 11 10 10 10 9 9 8 8 9 10
33 35 39 41 42 42 41 41 40 40 40 40 39 38 35 33 32 29 26 23 20 17 13 8 5 3 6 10 13 14 15 14 13 11 11 10 9 9 9 10 11 13 14
33 36 39 39 40 39 38 38 37 37 37 36 36 34 31 29 27 24 20 19 17 14 10 7 6 10 13 15 16 16 16 15 13 11 10 10 10 10 11 12 14 16 17
34 36 37 38 37 37 36 35 34 34 33 33 31 29 27 25 22 18 17 16 14 11 9 8 10 13 15 17 17 16 15 13 11 10 10 10 10 11 12 14 17 19 20
33 35 35 36 35 35 34 33 32 31 31 29 28 26 24 21 17 15 16 15 13 11 10 10 13 16 17 18 17 16 14 13 12 11 10 10 11 12 14 17 20 22 23
32 34 34 34 34 33 32 31 30 29 28 27 26 24 21 18 15 14 15 14 13 11 11 12 14 17 19 18 17 15 14 12 11 11 11 11 13 14 17 21 23 24 25
32 33 34 34 33 31 30 28 26 25 25 25 24 21 18 15 13 13 14 13 12 11 11 13 16 18 18 18 16 15 13 12 11 12 12 13 15 18 21 23 24 24 24
32 33 33 32 31 29 26 24 23 23 23 23 22 20 16 13 12 13 13 11 11 11 12 14 16 18 18 17 16 14 12 12 12 12 12 14 17 20 23 24 24 24 24
32 33 32 31 29 26 24 22 21 21 22 21 19 18 15 12 11 11 12 11 10 11 12 14 15 16 17 16 15 13 12 12 12 12 14 16 19 21 23 24 24 24 23
32 32 31 29 26 24 21 20 20 20 21 20 18 16 14 11 9 10 11 10 9 10 12 14 14 15 15 14 13 12 12 12 12 13 15 17 19 22 23 23 23 22 21
32 32 30 28 25 22 20 19 20 21 21 20 18 16 15 12 10 9 10 10 9 10 12 13 14 14 13 13 12 11 11 12 12 13 15 17 19 21 22 22 21 20 19
33 32 30 28 25 22 21 20 21 22 22 21 19 17 15 13 11 10 10 11 10 10 12 13 13 13 13 12 11 11 11 11 12 13 15 17 18 19 19 19 18 17 15
34 33 31 28 26 23 22 22 22 23 23 22 20 18 16 14 12 11 11 11 12 11 11 12 13 12 12 12 11 11 12 12 13 14 15 16 17 17 17 16 15 14 13
35 34 32 30 27 25 23 23 24 24 25 24 22 20 18 16 14 13 12 12 12 13 12 13 13 13 12 12 11 12 12 13 13 14 15 15 15 15 15 14 14 13 12
37 35 33 31 29 27 25 25 25 25 25 25 24 22 20 18 16 15 14 14 13 13 13 13 13 13 12 12 11 12 12 13 14 14 14 14 14 14 13 13 13 12 11

GEFSGL_500_meanwind_030.txt.gz
Wind_Speed
41 43 45 46 49 50 51 52 51 51 52 52 52 53 54 55 56 56 56 56 56 56 57 58 58 60 61 62 62 63 63 63 62 58 56 54 52 51 51 50 48 47 45
43 45 47 49 51 53 52 51 51 52 52 52 53 53 54 54 54 54 54 55 56 57 58 59 60 61 61 60 59 58 56 55 53 50 48 46 44 44 43 42 41 40 39
46 48 51 52 53 52 52 52 52 52 51 52 52 53 53 53 53 53 54 56 57 58 59 60 59 58 57 55 52 50 48 47 45 42 40 39 38 37 37 36 35 34 32
50 51 52 53 52 52 53 52 52 51 51 51 52 51 51 52 52 54 56 57 58 58 58 57 56 53 50 47 44 43 41 40 38 36 34 32 31 31 31 29 28 27 25
51 52 53 53 53 53 53 51 50 50 50 50 50 50 50 52 53 55 56 57 57 56 54 52 50 47 44 42 40 38 37 34 31 29 26 25 25 24 23 21 21 20 19
50 50 52 55 55 53 50 47 47 48 48 48 48 49 51 53 54 55 55 55 54 53 50 46 44 42 40 39 37 34 31 28 26 23 21 19 19 17 16 15 14 14 14
49 52 55 56 53 48 46 46 46 46 46 47 48 50 52 53 53 53 53 51 50 47 44 42 40 39 37 34 31 27 24 21 18 15 14 14 11 10 9 9 8 9 11
51 54 55 52 47 44 43 44 44 44 46 47 49 50 51 51 51 50 48 47 45 42 40 38 35 33 30 27 22 19 16 13 10 9 8 7 6 5 4 4 6 7 9
54 54 49 44 41 41 41 42 43 45 47 48 49 49 48 48 47 45 43 41 39 38 36 33 30 26 23 18 14 11 9 6 4 4 3 2 1 1 1 2 3 5 6
49 44 41 39 39 39 40 42 44 46 47 47 47 46 45 43 41 39 37 36 34 33 31 28 23 18 14 10 7 4 2 1 1 1 2 3 3 3 3 2 2 3 4
39 37 37 37 38 39 41 43 45 46 46 45 44 43 40 38 35 33 32 31 29 26 24 19 14 9 5 3 2 3 4 5 5 5 6 6 5 4 4 2 1 0 2
34 34 35 36 38 40 42 43 44 44 43 42 40 37 34 32 30 29 28 26 23 20 16 12 7 4 4 6 7 7 7 7 7 8 8 7 6 5 5 3 3 3 3
31 33 35 37 40 41 42 43 43 42 39 37 34 32 30 28 26 25 24 22 19 15 10 7 5 7 9 9 9 10 10 9 9 9 8 7 7 7 6 6 7 7 8
30 33 36 38 40 41 42 42 40 37 34 30 28 27 25 24 22 20 19 19 16 10 7 6 8 11 12 12 12 11 10 9 9 9 8 8 8 9 9 9 10 11 12
32 35 37 39 41 41 40 38 35 30 26 24 23 22 21 19 17 16 15 13 10 6 6 8 10 12 12 12 12 11 10 9 9 9 9 10 10 11 11 13 14 15 15
33 35 38 39 40 38 36 32 27 23 21 19 19 19 17 15 13 13 11 8 6 6 8 10 12 13 13 12 12 11 11 10 10 10 11 11 12 13 14 15 17 17 18
34 36 37 37 36 33 29 25 21 18 17 17 16 15 13 11 11 10 8 7 7 8 10 12 13 13 12 12 12 11 10 10 11 11 12 13 14 16 17 17 18 19 19
34 34 34 32 29 26 22 19 17 16 15 14 14 12 10 9 9 8 8 8 8 9 12 13 13 13 13 12 11 11 11 11 11 13 14 15 17 18 18 19 19 20 20
31 31 29 26 23 20 18 16 15 14 13 13 11 10 8 7 7 7 8 9 9 11 13 13 13 13 13 12 12 12 12 12 13 14 16 18 19 19 19 19 19 20 20
28 27 24 21 19 17 16 16 15 14 12 12 10 9 7 6 7 7 9 10 11 12 13 13 13 13 12 12 12 12 13 13 15 17 18 19 19 19 19 19 19 18 18
25 23 20 18 17 17 17 16 15 13 12 11 9 7 6 6 8 9 11 12 13 13 13 13 13 12 12 12 12 12 13 15 17 18 19 20 20 20 19 19 18 18 18
24 21 19 17 16 17 17 16 15 13 12 10 8 7 8 9 10 11 13 14 14 14 13 13 12 11 11 11 12 13 14 16 18 19 19 20 20 20 19 18 17 17 17
24 21 19 17 17 17 17 17 15 14 12 11 9 9 10 11 12 13 14 15 15 14 14 13 12 11 11 11 12 14 15 17 18 19 20 20 20 19 18 17 16 16 15
25 23 21 19 18 17 17 17 16 14 13 12 11 11 12 13 14 15 15 16 16 15 14 13 13 12 12 12 13 14 16 17 19 19 20 20 19 17 16 15 15 14 14
27 25 23 21 19 18 18 18 17 15 14 14 13 13 14 15 16 17 17 17 16 15 14 14 13 13 13 13 13 14 16 17 18 18 19 18 17 16 15 14 13 13 12
30 28 26 24 22 21 20 20 19 17 17 16 16 16 16 17 18 18 18 18 17 16 15 14 14 13 13 14 14 15 16 16 16 16 17 16 15 14 13 12 12 11 11

GEFSGL_500_meanwind_036.txt.gz
Wind_Speed
42 43 45 46 46 47 48 49 51 53 55 56 58 60 61 61 63 64 64 63 62 62 63 64 65 66 67 67 68 68 68 68 67 62 60 58 56 54 52 51 51 50 50
42 44 46 47 48 49 51 53 55 56 57 58 59 60 61 62 64 64 63 61 61 61 63 64 65 66 67 67 67 66 65 63 61 56 53 51 48 46 45 44 43 43 43
45 47 49 50 51 53 54 56 57 58 59 60 61 61 62 64 64 60 58 58 59 61 63 64 65 66 66 65 64 61 59 56 53 50 45 43 41 40 39 38 38 37 37
49 50 52 52 54 55 57 58 60 61 62 63 63 63 63 61 57 56 56 57 59 61 63 64 64 64 63 61 57 54 51 48 45 42 38 37 36 35 34 33 31 30 29
52 53 53 54 55 56 57 59 61 63 65 64 62 60 57 55 54 55 56 58 59 60 61 61 61 59 56 52 48 45 43 40 37 34 32 30 29 28 27 26 24 23 24
53 53 53 54 55 57 59 60 62 64 63 60 57 54 53 53 54 55 56 57 58 58 58 56 53 50 47 44 42 39 36 33 29 27 25 23 21 21 20 19 17 17 17
51 52 52 53 55 57 58 61 62 62 60 57 53 52 52 52 54 55 55 55 55 54 52 48 44 42 39 37 35 31 28 25 22 19 17 16 15 15 14 13 13 12 12
50 51 51 53 55 56 58 60 59 58 54 51 50 50 51 52 52 53 52 51 49 46 43 39 37 35 33 30 27 23 19 16 15 13 12 11 11 10 10 9 8 7 6
48 49 51 53 54 55 57 56 54 52 50 48 48 49 50 50 50 49 47 43 40 37 36 34 31 28 25 22 18 14 12 10 9 8 8 8 8 8 7 7 7 7 7
47 48 50 53 54 54 53 50 47 46 46 46 47 48 48 47 45 42 39 35 33 31 30 28 25 21 18 14 11 9 7 7 6 6 6 7 7 7 7 7 7 8 8
46 48 49 49 49 47 45 44 45 45 46 46 46 46 44 40 37 33 30 28 26 24 23 21 18 14 11 9 7 7 7 7 7 7 7 7 7 8 8 8 9 9 8
43 43 43 42 42 41 41 42 44 45 45 43 41 38 35 31 28 26 25 23 20 18 16 13 11 8 7 6 7 7 7 7 8 8 9 8 8 9 9 9 9 9 8
37 36 36 37 38 40 41 42 42 41 39 36 32 29 26 23 22 22 21 18 16 12 9 8 6 5 6 7 7 8 8 8 8 9 9 9 9 10 10 10 9 10 9
32 34 35 36 37 38 39 38 36 34 30 27 24 21 20 18 18 18 18 15 11 8 5 4 4 5 7 8 8 8 8 8 9 10 10 10 10 11 11 11 11 11 11
32 34 35 36 36 35 34 32 29 26 23 20 18 17 16 16 16 15 14 11 8 5 3 4 5 6 8 8 9 8 8 9 9 10 11 12 12 13 12 13 13 13 14
32 33 34 34 32 30 27 24 22 19 17 16 16 15 14 14 13 12 9 7 4 3 4 6 7 8 8 9 9 9 9 9 10 11 12 14 14 14 14 14 15 15 15
31 32 31 30 27 24 21 19 17 16 15 15 14 13 13 12 11 9 7 5 3 4 6 7 8 9 9 9 9 9 9 10 11 12 13 14 15 16 16 16 17 17 17
30 29 27 25 22 19 18 17 16 15 13 12 12 12 11 10 8 7 5 3 5 7 8 9 9 9 9 9 9 9 9 10 11 12 13 15 16 17 18 18 18 19 19
28 26 23 20 18 17 17 16 15 13 12 11 11 10 9 7 6 5 4 6 8 9 10 9 9 9 9 9 9 9 10 11 12 13 13 15 16 17 18 18 19 20 21
25 23 20 18 17 16 16 15 13 12 11 9 9 8 7 6 6 6 7 9 10 10 10 10 9 9 9 9 9 10 11 11 12 13 14 15 15 16 17 18 19 20 21
24 21 18 17 16 16 15 13 12 10 9 7 7 6 6 7 7 8 10 11 11 11 10 10 9 9 9 9 9 10 11 12 13 13 14 15 15 15 16 17 18 19 21
22 19 18 16 16 15 13 11 10 8 7 6 6 7 8 9 10 11 12 12 11 11 10 10 9 9 10 10 11 12 12 12 13 13 14 14 15 15 16 17 17 18 19
21 19 18 16 15 13 11 10 9 7 6 7 8 9 10 11 13 13 13 12 11 10 10 9 9 10 10 11 11 12 12 13 13 13 14 14 14 15 15 16 17 17 17
22 21 19 17 15 13 11 10 9 8 8 9 10 11 12 14 15 15 14 13 12 11 10 10 10 11 12 12 12 13 13 13 14 13 13 14 14 15 15 16 16 16 16
24 23 21 18 16 14 12 11 11 11 11 12 13 13 15 15 16 16 15 14 13 13 12 12 12 12 12 12 13 13 13 13 14 14 13 13 14 14 14 15 15 16 16
26 25 23 21 18 16 15 14 14 14 14 15 15 16 16 16 17 16 16 15 14 14 14 13 13 13 12 13 13 13 13 13 13 13 12 12 13 14 14 14 14 15 15

GEFSGL_500_meanwind_042.txt.gz
Wind_Speed
40 41 43 45 48 50 53 54 55 56 57 58 59 60 60 61 61 62 63 63 64 63 62 61 61 61 61 62 63 65 66 68 68 67 69 69 67 65 62 59 57 54 51
42 44 47 49 52 54 56 57 59 60 61 61 62 62 62 62 62 62 63 63 63 62 61 60 60 59 60 61 63 64 66 67 67 65 61 59 57 54 51 48 46 44 42
49 51 52 54 55 57 58 59 60 61 62 62 62 62 61 62 62 63 63 62 61 60 58 58 58 58 59 60 61 63 63 63 61 57 51 48 46 43 40 38 36 35 35
55 55 56 57 57 57 58 59 60 60 60 60 60 60 60 60 60 60 60 59 58 57 57 57 57 57 58 59 60 59 58 54 50 46 42 39 36 35 33 30 29 29 29
57 57 56 55 55 55 56 56 57 57 57 57 58 58 58 58 58 58 58 57 56 55 55 55 56 57 57 57 55 51 47 43 40 36 33 30 28 27 25 24 23 23 23
57 56 55 54 53 53 53 53 54 54 55 55 56 56 56 56 56 56 55 54 53 53 53 54 55 54 53 50 46 41 38 34 31 27 25 23 21 20 19 19 18 18 18
56 54 53 52 51 50 50 51 52 52 53 54 54 54 54 54 53 52 51 51 51 52 52 52 51 48 44 39 35 32 29 26 23 21 19 17 17 17 17 17 17 16 16
51 50 49 47 47 48 48 48 49 49 50 50 51 50 50 49 49 48 49 50 50 50 49 47 43 38 33 29 26 23 21 20 18 17 16 16 16 16 16 16 16 15 15
47 45 44 44 44 44 45 46 47 47 48 48 49 48 46 46 46 46 46 46 45 44 41 37 32 28 23 20 18 16 16 15 15 15 15 16 16 16 16 15 15 15 14
42 41 41 41 42 43 44 45 46 46 46 45 44 44 44 44 43 42 41 39 37 35 32 29 24 20 16 14 12 12 12 12 13 14 15 15 16 16 15 15 14 14 13
38 38 39 40 41 42 42 43 43 42 42 42 42 42 41 39 38 36 34 31 29 27 25 22 18 14 11 10 9 9 10 11 13 14 15 15 15 15 15 14 13 13 12
36 36 38 38 39 39 39 40 40 40 40 39 38 37 35 33 31 29 27 24 22 20 18 15 11 9 7 7 7 8 9 11 12 13 14 15 15 15 14 14 14 13 12
34 35 36 37 38 38 38 38 38 37 35 34 32 31 28 26 25 23 21 18 16 14 11 8 6 4 5 6 7 8 10 11 13 14 14 14 14 14 14 14 15 15 13
33 34 35 36 36 37 36 35 34 32 30 28 25 24 22 21 20 18 16 14 11 8 5 3 3 3 5 6 7 8 10 12 13 14 14 15 15 15 15 16 16 17 16
32 34 34 35 34 34 32 30 27 25 23 21 20 19 18 17 16 15 13 10 7 3 1 3 3 4 5 6 7 9 10 12 14 15 16 16 16 16 16 16 17 17 17
33 33 33 32 30 28 25 23 21 20 18 17 16 15 15 14 13 11 8 5 2 2 4 5 5 6 7 7 8 9 11 12 14 15 17 17 18 17 17 17 17 17 17
32 31 29 27 24 22 20 18 17 16 15 15 14 13 13 12 9 6 3 1 3 5 6 6 7 8 8 8 9 10 11 12 14 15 17 18 18 18 18 18 18 18 18
29 27 25 22 19 18 16 15 14 13 13 12 11 11 10 8 5 2 3 5 7 8 7 7 8 8 9 9 10 11 12 13 14 15 17 18 18 19 19 19 18 19 19
25 23 20 18 16 15 14 12 11 10 10 9 8 7 6 5 4 5 7 8 9 8 8 8 8 9 9 10 11 12 13 13 14 15 17 17 18 19 19 19 19 20 19
21 19 17 15 13 12 11 9 8 7 7 6 6 6 5 6 7 9 10 10 9 9 9 9 9 10 10 11 12 13 13 14 15 16 17 18 18 19 19 20 21 21 21
19 17 15 13 11 9 8 7 6 6 6 6 7 8 9 10 11 11 11 10 10 9 9 10 10 10 11 12 13 13 14 15 16 17 17 18 18 19 20 20 20 21 22
19 17 14 11 9 8 7 7 7 7 8 9 10 11 11 12 12 12 11 10 10 10 10 11 11 12 12 13 13 14 14 15 16 17 17 18 18 19 20 21 21 21 22
18 16 14 12 11 9 9 9 10 10 11 12 12 13 13 13 13 12 11 11 10 10 11 11 12 12 13 13 13 14 15 15 16 17 17 18 19 19 20 21 21 22 22
19 17 16 14 13 13 12 13 13 14 14 14 15 15 15 14 13 12 12 11 11 11 12 12 12 13 13 13 14 14 15 15 15 16 17 18 19 20 21 21 21 21 22
21 20 19 17 17 16 16 16 16 16 16 16 16 16 15 15 14 13 13 12 12 12 12 12 13 13 13 14 14 14 14 14 15 16 17 18 19 20 20 21 21 21 22
24 23 22 21 20 19 18 18 18 17 17 17 17 16 16 15 15 14 14 14 14 13 13 13 13 13 13 14 13 13 13 13 14 15 16 17 18 18 19 19 20 20 21

GEFSGL_500_meanwind_048.txt.gz
Wind_Speed
44 45 47 47 48 49 50 52 54 56 58 59 59 60 61 61 62 63 64 64 64 65 65 65 64 64 65 65 64 64 64 64 63 62 63 64 65 65 64 61 58 56 53
47 49 51 52 53 54 55 56 58 59 60 60 60 60 61 61 62 63 63 63 63 64 64 63 64 63 63 63 62 62 63 63 62 61 60 60 60 59 56 52 49 46 44
50 52 54 55 57 58 59 59 60 60 60 60 60 60 60 61 61 62 62 62 62 62 62 61 61 60 60 60 60 60 60 60 60 59 56 54 51 48 45 42 40 38 36
54 55 57 58 59 60 60 60 60 60 59 59 59 59 59 59 59 59 59 60 59 59 58 58 58 58 58 58 58 58 58 57 56 53 48 43 40 38 36 34 32 32 32
57 58 59 60 60 60 59 59 59 58 58 58 57 57 57 57 57 57 57 56 56 56 56 56 56 56 56 56 56 55 54 50 46 41 36 32 31 30 30 29 28 28 29
58 58 58 58 58 58 58 58 57 57 56 55 54 54 54 54 54 54 54 53 53 53 53 54 54 54 54 53 51 49 45 40 34 30 27 26 26 26 26 27 27 26 27
57 57 56 56 56 56 56 55 54 53 52 52 51 51 51 50 51 51 51 51 51 51 51 50 50 50 47 44 42 38 34 30 25 23 22 23 23 25 25 26 26 27 26
55 55 54 54 53 53 51 50 49 49 48 48 48 48 49 49 49 49 49 49 49 48 47 46 44 41 39 35 31 28 26 23 21 21 22 23 24 25 24 24 24 23 24
53 52 51 50 49 48 47 46 46 45 45 45 46 46 46 46 46 46 46 46 45 44 42 39 35 32 29 25 22 20 19 19 20 21 22 23 23 22 21 21 21 20 20
48 47 46 45 45 44 44 43 43 43 43 44 44 44 44 44 44 43 42 40 39 37 34 30 27 23 20 17 16 15 15 17 19 20 21 21 21 19 19 19 19 19 19
44 43 42 41 41 41 41 42 42 42 43 43 43 42 41 40 39 37 35 32 30 28 25 22 20 16 14 12 12 13 14 15 17 18 19 18 18 18 18 18 18 17 17
39 38 38 39 39 40 40 40 41 41 41 40 39 37 35 34 31 29 26 24 22 20 18 16 13 11 9 10 10 11 13 14 16 16 17 17 17 17 17 17 17 17 16
35 36 36 37 38 38 39 39 39 38 37 35 33 30 28 26 23 21 19 18 16 15 12 10 8 7 8 9 10 11 13 14 15 16 17 17 17 17 18 18 18 18 18
33 35 36 37 38 38 37 36 35 32 30 28 26 24 22 20 18 17 15 13 11 8 6 5 5 6 7 8 9 11 13 14 15 17 18 18 18 18 19 19 19 19 20
34 35 36 36 35 34 32 30 28 26 23 22 20 19 18 16 15 13 11 8 5 3 4 5 6 6 7 9 10 12 13 15 16 17 19 19 19 20 21 21 21 21 21
34 34 34 32 30 28 26 24 21 20 18 17 16 15 14 12 10 8 5 3 4 5 6 7 7 7 8 9 11 12 14 15 17 18 20 20 21 21 22 22 22 22 22
32 31 29 27 24 21 20 18 17 16 15 14 13 11 9 8 6 4 4 6 7 8 8 8 8 9 9 10 11 13 14 15 16 18 20 21 21 22 23 24 24 24 24
28 26 23 21 18 16 15 14 13 12 11 10 9 8 7 6 6 7 8 9 9 9 9 9 9 10 11 11 12 14 15 16 17 18 20 21 22 23 23 24 25 26 26
24 21 19 16 14 13 12 11 10 9 9 8 7 7 7 8 9 10 10 10 10 10 9 10 11 11 12 12 13 14 15 17 18 19 20 21 22 23 23 24 26 27 27
20 18 16 13 11 10 9 9 8 8 7 8 8 9 10 11 11 11 11 10 10 10 10 11 12 12 13 13 14 15 16 17 18 19 20 21 22 23 24 24 26 27 27
18 16 13 11 9 9 8 8 8 9 9 10 11 12 12 12 12 11 11 11 11 11 11 12 13 13 13 14 14 15 16 17 18 19 21 22 23 24 24 24 25 26 26
16 15 13 11 10 10 10 10 11 11 12 13 13 13 13 12 12 11 11 11 12 12 12 13 13 13 14 14 15 16 17 18 19 19 21 22 23 24 25 25 25 25 25
16 16 15 14 13 13 13 13 14 14 14 14 14 14 13 12 12 12 12 12 12 13 13 13 13 14 14 15 16 16 17 18 19 20 21 22 23 24 24 25 25 25 25
17 17 17 17 16 16 16 16 16 16 16 15 15 14 13 13 12 12 13 13 13 13 13 13 14 14 15 15 16 17 17 18 19 19 20 21 22 23 23 24 24 24 24
19 18 18 18 17 17 17 16 16 16 16 16 15 15 14 14 13 13 13 13 13 13 13 13 14 14 14 15 15 16 17 17 18 19 19 20 21 21 21 22 22 22 22
22 21 19 18 18 17 16 16 16 16 15 15 15 15 15 15 14 14 14 14 13 13 13 14 14 14 14 14 15 15 15 16 16 17 17 18 19 19 19 20 20 20 20

GEFSGL_500_meanwind_054.txt.gz
Wind_Speed
39 40 41 42 42 44 45 47 48 50 51 52 52 53 54 54 55 55 55 56 56 57 58 58 59 59 60 60 60 60 60 60 59 59 60 60 60 61 61 60 59 58 56
39 40 42 43 45 46 48 50 51 53 55 55 56 56 56 56 56 57 57 57 57 57 56 56 57 57 57 57 58 58 58 58 58 58 58 58 58 59 58 56 53 51 48
41 43 44 46 47 49 51 53 55 56 56 57 57 57 57 57 57 57 57 57 56 55 54 54 54 54 54 55 55 56 56 57 57 56 55 55 54 53 50 48 44 41 39
44 45 47 49 51 53 54 55 56 57 57 57 58 58 58 58 57 56 56 55 54 53 52 52 52 52 53 53 54 54 54 54 53 53 51 49 47 44 41 38 35 35 34
47 48 49 51 52 54 55 56 57 57 58 57 57 57 57 56 55 54 53 52 51 51 51 51 51 52 52 52 52 51 50 50 48 46 43 40 38 35 34 33 33 32 32
47 49 50 52 53 55 56 56 56 57 56 56 56 55 54 53 52 51 50 50 49 50 50 50 50 50 50 49 48 47 45 44 41 37 34 32 30 30 30 30 30 30 30
48 49 51 53 54 55 55 55 55 55 54 53 52 52 51 50 49 49 48 48 49 49 49 49 49 48 46 45 43 42 40 37 33 29 27 26 26 27 27 27 28 28 28
49 50 52 53 53 53 53 53 52 51 50 50 49 49 48 47 48 48 48 48 48 48 47 46 45 43 41 39 37 35 31 29 26 24 23 23 24 24 25 25 25 25 26
49 50 50 50 51 51 50 49 49 48 48 47 47 47 47 47 47 47 47 47 46 45 43 41 38 35 33 30 28 26 24 22 21 20 21 21 22 22 22 22 22 22 22
47 48 48 48 48 47 47 46 46 46 46 45 45 45 46 46 45 45 44 43 41 39 36 33 29 26 24 23 21 19 18 18 18 19 20 20 20 20 20 20 20 20 19
44 45 44 44 44 44 44 44 44 44 44 44 44 44 44 43 42 40 37 35 32 30 27 24 21 19 17 15 13 13 14 15 16 16 17 17 18 18 19 18 18 18 18
41 41 41 41 42 42 42 42 43 43 43 42 41 40 38 36 33 31 28 26 24 22 19 17 15 13 11 10 10 11 12 13 14 14 15 16 18 17 17 17 17 18 18
38 39 39 40 41 41 42 41 41 40 38 36 34 32 30 28 25 23 21 19 17 15 13 11 9 7 7 7 8 10 12 12 13 14 15 16 17 17 17 17 17 17 17
36 37 39 40 40 40 39 37 35 33 31 29 26 25 23 21 20 18 16 13 11 9 8 6 4 4 6 7 8 10 11 12 13 14 15 16 17 17 17 17 17 17 16
36 37 38 37 36 34 32 29 27 25 23 21 20 18 17 16 14 12 9 7 5 4 2 2 3 5 6 7 9 10 11 12 14 15 17 17 17 18 18 18 17 17 17
34 33 33 31 29 26 24 21 19 18 16 15 14 13 12 10 8 5 3 1 1 2 3 4 5 6 7 8 10 11 12 13 15 16 17 17 18 19 19 19 19 19 19
29 28 26 24 22 19 17 15 13 12 11 10 9 8 6 4 2 1 3 4 4 5 6 6 7 8 9 10 11 12 13 14 16 17 17 18 19 20 20 21 21 20 20
23 22 19 16 14 12 11 10 9 8 7 6 5 4 3 3 4 5 6 7 7 7 8 8 9 10 10 11 13 14 15 16 17 17 18 19 20 20 21 22 22 22 22
18 16 13 12 11 9 8 7 7 7 6 5 5 5 6 7 8 8 9 9 9 9 10 10 11 11 12 13 14 15 17 17 18 19 19 20 20 21 21 22 23 23 23
15 13 11 10 9 8 8 8 7 7 7 7 8 8 9 10 10 11 11 10 10 11 11 12 12 13 13 14 16 17 18 19 19 20 21 21 22 22 22 22 22 23 23
13 12 11 10 10 9 9 9 9 9 9 10 10 11 11 11 12 12 12 12 12 12 12 13 13 14 15 16 17 18 19 19 20 21 22 22 23 23 23 23 22 22 22
12 12 11 11 11 11 11 11 11 11 11 11 11 11 11 12 12 12 12 12 12 12 12 13 14 15 16 16 17 18 18 19 20 21 22 23 23 24 24 24 23 22 22
12 12 12 12 12 11 12 12 12 12 12 12 11 12 12 12 12 12 12 13 13 13 13 14 14 15 16 16 17 18 19 19 20 20 21 21 22 23 23 23 23 22 22
13 12 12 12 11 11 12 12 12 12 12 12 12 12 12 12 12 12 12 12 12 13 13 14 14 14 15 16 16 17 17 18 19 19 20 20 20 21 21 22 22 22 22
14 13 12 11 11 11 11 11 12 12 12 12 12 12 12 12 12 12 12 12 12 13 13 13 13 14 14 14 15 15 16 16 17 17 18 18 19 19 20 20 20 20 20
17 15 13 12 11 11 11 11 12 12 12 12 12 12 12 12 12 12 12 12 12 12 12 12 12 12 12 13 13 13 14 15 15 16 16 17 17 18 18 18 18 19 19

GEFSGL_500_meanwind_060.txt.gz
Wind_Speed
38 40 41 43 44 45 46 47 49 50 50 51 52 52 52 53 54 54 55 56 56 57 58 58 59 59 59 60 61 61 61 61 60 59 61 62 62 62 62 61 61 61 60
39 40 42 44 45 47 49 50 51 52 53 53 54 54 55 56 57 57 58 58 59 59 59 59 58 58 58 58 58 58 58 58 57 57 57 58 58 58 58 57 56 55 53
41 42 44 46 48 49 51 52 53 54 55 55 56 57 57 58 59 59 59 59 59 59 58 57 57 57 56 56 56 56 55 55 56 55 55 55 54 54 53 51 49 47 46
43 44 46 48 49 51 53 54 55 55 56 56 57 58 58 59 59 59 59 59 58 57 56 56 55 55 54 54 54 54 54 54 53 53 52 50 49 47 46 44 41 40 39
46 47 49 50 52 53 54 55 54 54 55 57 57 58 59 59 59 59 58 57 56 55 54 53 53 52 52 52 52 52 52 51 50 49 46 44 42 40 38 37 36 35 34
49 50 51 51 52 53 52 52 53 54 56 57 57 58 58 58 58 56 55 54 53 52 52 51 51 51 51 50 50 49 48 46 44 42 39 37 35 34 33 33 32 31 30
46 46 47 48 49 50 52 53 54 55 56 56 56 56 55 54 54 53 52 51 51 50 50 49 49 49 48 47 45 43 41 39 37 34 31 29 28 28 28 28 28 28 29
43 44 46 48 49 50 51 52 52 53 53 53 53 53 52 51 51 50 49 49 48 48 48 47 46 44 43 40 37 35 33 31 29 26 25 25 25 25 26 26 26 26 26
43 44 45 46 47 49 49 50 51 51 51 51 51 50 49 49 48 48 47 46 46 45 44 41 38 37 34 31 29 27 26 25 24 22 22 22 22 23 24 24 25 25 24
41 42 44 45 46 47 48 48 49 50 50 50 49 49 48 46 45 44 43 42 40 38 36 33 30 28 25 23 22 21 20 19 19 20 20 20 21 22 23 23 23 23 22
41 42 43 44 45 45 46 47 48 48 47 47 46 44 43 41 39 38 36 34 33 30 27 24 21 19 18 17 17 16 15 16 17 17 18 19 20 21 22 22 22 22 21
39 40 41 42 43 43 44 44 44 43 42 41 39 37 36 33 31 30 29 27 24 21 18 16 14 13 13 13 12 13 13 14 15 16 17 18 19 20 21 21 21 21 20
37 38 39 39 40 40 40 40 39 37 35 33 31 29 28 26 24 23 21 18 15 13 11 9 9 9 9 10 10 11 12 13 14 15 17 18 19 19 20 20 20 20 19
35 35 36 36 37 37 36 34 32 30 28 26 24 22 21 19 18 15 12 10 8 7 6 6 6 7 8 9 9 10 11 13 14 15 17 17 18 19 20 20 20 19 19
33 33 33 32 32 31 29 28 25 23 22 20 18 16 15 13 10 8 5 4 4 3 4 5 6 7 8 9 10 11 12 13 14 15 16 17 18 19 19 19 20 20 19
29 29 29 28 27 25 23 21 20 19 17 15 14 12 10 8 6 4 4 4 4 5 6 7 7 8 9 10 11 12 13 14 15 15 16 17 18 19 19 19 19 20 20
25 25 24 23 22 20 18 17 16 15 14 13 12 10 8 6 6 6 6 7 7 7 8 8 9 9 10 11 12 13 14 15 16 16 16 17 18 18 19 19 19 19 20
21 21 20 19 19 17 16 15 14 13 12 11 10 9 8 8 8 8 9 9 9 9 9 10 10 11 11 12 13 14 15 15 16 16 17 17 17 18 18 19 19 19 20
18 18 18 17 16 15 14 14 13 12 11 11 10 9 9 10 10 10 10 11 11 10 11 11 12 12 12 13 14 15 15 16 16 17 18 18 18 18 18 18 19 19 19
16 16 15 15 14 13 13 13 13 12 12 11 11 11 11 11 11 11 12 12 12 12 12 12 12 12 13 13 14 15 15 16 16 17 18 18 18 18 18 18 19 19 19
14 13 13 13 13 12 12 12 12 12 11 11 11 11 11 12 12 13 13 13 13 13 13 13 13 13 13 13 14 14 15 16 16 17 18 18 18 18 18 18 18 18 19
13 12 11 11 12 12 12 12 11 11 11 11 11 12 12 12 13 13 13 13 13 13 13 13 12 12 13 13 13 14 14 15 16 17 17 18 18 18 18 18 18 18 18
11 11 10 10 10 11 11 11 11 11 11 11 11 12 12 12 13 13 13 12 12 12 12 12 12 12 12 12 13 13 14 15 16 17 17 17 18 18 18 18 18 18 18
11 10 9 9 9 9 10 10 10 10 10 10 11 11 11 11 12 12 12 11 11 11 11 11 11 11 11 12 13 13 14 15 16 17 17 17 17 18 18 18 18 18 17
12 11 10 9 8 8 9 9 9 10 10 10 10 10 10 10 11 11 11 10 10 10 10 10 10 11 11 12 13 14 14 15 16 17 17 17 17 18 19 19 19 19 18
13 12 11 10 9 8 8 8 9 9 9 9 9 9 10 10 10 10 10 10 9 9 9 10 10 11 12 13 14 15 16 17 17 18 18 18 18 19 19 19 19 19 20

GEFSGL_500_meanwind_066.txt.gz
Wind_Speed
42 42 41 40 41 41 42 42 43 44 45 46 48 50 51 52 53 54 55 57 57 58 59 59 60 60 60 61 63 63 64 64 64 64 65 65 65 65 65 65 64 64 64
41 41 41 41 42 43 44 45 45 46 48 50 51 52 54 56 57 58 59 60 60 60 60 60 61 61 62 62 62 63 63 63 62 61 61 62 62 62 61 61 61 61 60
40 41 42 43 44 45 46 47 48 50 52 54 55 57 59 60 60 61 61 60 60 60 60 61 61 62 62 62 61 61 61 61 60 59 59 59 58 58 57 56 55 53 52
42 43 43 45 46 48 49 51 53 55 57 58 59 60 61 61 61 61 61 60 61 61 61 61 61 60 60 59 59 58 58 59 58 57 56 54 53 52 50 48 46 45 43
43 44 46 47 49 50 51 53 55 56 57 58 58 58 59 59 60 60 60 61 61 61 60 59 58 57 57 56 56 56 56 56 54 51 49 47 46 45 44 42 40 37 37
42 44 46 47 49 50 50 51 51 52 53 55 55 56 57 58 59 59 59 59 59 58 57 55 54 54 54 54 55 54 52 49 46 44 42 41 40 39 37 35 33 32 32
41 42 43 44 45 46 47 48 49 50 52 54 55 55 56 56 57 57 57 56 55 55 54 52 52 51 51 50 49 46 44 41 39 37 35 34 32 30 28 27 28 28 29
39 40 41 42 43 44 45 47 48 49 50 52 53 54 55 55 54 54 54 53 52 51 50 48 47 46 45 43 40 37 35 34 32 30 29 27 24 23 23 23 24 24 25
37 38 39 40 41 42 43 45 46 47 48 49 50 50 51 50 50 50 49 48 47 45 43 42 40 39 36 33 30 29 28 27 25 23 21 20 19 20 20 21 21 21 22
34 35 36 38 39 40 41 42 43 45 46 46 46 46 45 45 43 42 41 40 38 37 35 33 31 29 26 24 23 22 21 20 19 17 17 17 18 18 18 19 19 19 19
32 33 34 35 36 37 38 39 41 41 41 41 41 40 39 38 36 34 32 30 29 27 25 23 21 19 17 17 16 16 15 14 14 14 15 15 16 16 17 17 18 18 18
28 29 31 32 33 34 35 36 36 36 36 35 34 33 31 30 28 26 23 21 19 17 15 14 12 11 11 10 10 10 10 11 11 12 13 14 15 15 16 16 17 18 19
25 26 28 29 30 31 32 32 32 32 31 30 28 26 24 22 20 17 15 13 12 10 8 7 6 6 6 7 7 8 9 10 11 11 12 14 15 15 15 16 17 18 19
23 24 25 26 27 27 27 27 27 27 25 24 22 20 18 16 13 11 10 8 7 5 4 3 4 4 5 6 7 8 9 10 11 11 12 14 15 16 16 17 18 19 19
22 23 23 23 24 24 25 24 23 22 21 20 18 16 14 12 10 8 6 5 4 4 5 5 6 6 7 8 8 9 11 11 12 12 13 15 16 17 17 18 18 19 19
20 20 20 21 21 22 22 21 20 19 18 16 14 12 10 8 7 6 6 6 6 7 7 8 8 8 9 9 10 11 12 13 13 14 15 15 16 17 18 18 18 19 19
18 18 18 18 18 18 18 18 17 16 15 13 11 10 8 8 7 7 7 8 8 8 9 9 9 10 11 11 11 12 13 14 15 16 16 17 17 17 18 19 19 19 19
16 15 15 15 16 16 15 15 15 14 13 12 10 9 9 8 8 8 9 9 9 9 10 10 11 11 12 12 13 14 15 16 17 17 18 18 18 19 19 19 19 19 18
14 13 13 13 13 14 14 13 13 12 11 11 10 9 9 9 9 9 10 10 10 10 10 11 11 12 12 13 14 14 15 16 17 18 19 19 19 19 19 19 19 19 18
12 11 11 11 11 12 12 11 11 10 10 10 10 10 10 10 10 11 11 11 11 11 11 11 11 11 12 13 14 15 16 17 18 18 19 19 20 20 19 19 20 19 18
10 10 9 9 10 10 10 10 9 9 9 9 10 10 10 11 11 12 12 12 11 11 11 11 11 11 12 13 14 15 16 17 18 19 19 19 19 20 20 19 19 19 19
10 9 8 8 8 8 9 9 8 8 8 9 9 10 11 11 12 12 12 11 11 11 11 11 11 11 12 13 14 15 16 18 18 19 18 19 19 20 20 20 19 19 19
10 9 8 7 7 7 7 7 7 7 8 8 9 9 10 11 11 11 11 10 10 10 10 11 11 12 12 13 14 16 17 17 18 18 18 19 19 19 19 20 19 19 19
10 9 8 6 6 6 6 6 6 7 7 8 8 9 9 9 9 9 9 9 9 10 10 10 11 12 13 14 15 16 17 17 17 18 18 18 19 19 19 19 19 19 19
9 9 8 7 6 5 5 6 6 6 7 7 7 8 8 8 8 9 9 9 9 10 10 11 12 13 14 15 16 17 17 18 18 18 19 19 19 19 19 20 20 20 20
11 10 9 8 7 7 6 6 6 6 7 7 7 7 8 8 8 9 9 9 10 10 11 11 12 13 13 14 15 16 17 18 18 19 19 19 20 20 20 20 20 20 20

GEFSGL_500_meanwind_072.txt.gz
Wind_Speed
42 41 42 42 40 41 40 40 40 40 41 42 42 44 46 48 49 51 52 54 55 56 58 60 61 62 63 64 65 65 65 65 65 64 65 65 65 65 64 64 63 62 62
41 41 41 40 40 41 41 41 41 42 43 43 46 48 49 51 52 54 55 57 59 60 62 63 63 64 64 64 65 64 64 63 63 62 62 62 62 62 61 60 59 58 57
40 40 40 40 41 42 42 41 42 43 45 47 49 51 52 54 55 56 58 59 61 62 63 63 63 64 64 64 64 63 62 62 61 60 59 59 58 58 55 53 53 52 51
39 39 38 39 41 41 42 42 43 45 47 49 51 53 53 55 56 58 58 59 60 61 62 62 61 61 61 61 60 59 58 58 56 55 54 53 52 50 48 46 45 45 45
37 37 38 39 40 41 42 43 45 46 49 51 52 53 53 54 56 57 59 59 60 60 60 60 60 60 59 58 56 55 54 52 51 49 48 47 45 43 42 40 39 38 38
33 35 36 38 39 40 42 44 45 47 49 50 51 52 52 54 55 56 57 58 58 58 58 57 56 55 54 52 50 48 47 45 43 42 40 38 37 36 35 34 33 31 30
32 34 35 37 39 41 42 43 44 45 47 48 49 51 52 53 54 54 55 55 54 53 52 50 49 47 45 43 42 40 38 37 35 32 31 31 30 30 28 28 27 27 26
32 33 35 36 37 38 39 41 42 44 45 46 48 49 50 51 51 52 51 50 49 47 45 43 41 39 36 34 32 31 29 27 25 24 24 24 23 22 22 22 22 23 24
30 32 33 34 35 36 37 38 39 41 42 44 45 46 47 47 48 47 46 44 42 40 37 34 31 29 26 24 23 21 20 19 18 18 18 17 17 17 18 19 20 20 21
29 30 31 32 33 33 35 36 37 39 40 41 42 43 43 42 41 40 38 36 33 30 27 24 22 20 18 17 16 15 15 15 15 15 14 14 15 16 17 18 19 20 20
27 27 28 29 30 30 32 33 34 35 36 37 38 37 37 36 34 32 29 27 24 21 19 17 15 14 13 12 12 11 12 13 13 13 14 15 16 17 18 19 19 20 20
24 25 26 27 27 28 29 31 32 32 33 33 33 33 32 30 28 25 23 20 18 16 14 13 11 11 10 10 10 10 11 12 12 13 14 16 17 17 18 18 19 20 20
23 23 24 25 26 26 28 29 29 29 30 30 29 28 26 25 23 21 18 16 14 13 11 10 9 9 10 10 10 11 11 12 13 14 15 16 16 17 18 18 19 19 20
22 22 23 23 23 25 26 26 26 26 26 25 24 22 21 20 18 16 14 12 11 10 10 10 10 11 11 11 12 12 12 13 14 15 16 16 16 17 18 18 18 19 19
21 21 21 21 22 23 23 22 22 22 22 21 19 18 17 15 14 12 11 11 10 10 11 11 12 12 12 13 13 13 13 14 15 16 16 16 17 17 18 18 17 18 18
19 19 20 20 20 20 20 19 19 19 18 18 17 16 14 12 11 10 10 10 10 11 11 12 12 13 13 13 14 14 15 15 16 16 17 18 18 18 18 17 17 17 18
18 18 18 17 17 17 17 17 17 16 15 15 14 13 12 11 10 10 10 10 10 11 11 12 12 13 14 14 14 15 16 17 17 18 18 19 18 18 18 18 18 17 18
16 16 15 15 15 14 14 14 14 14 13 12 11 11 10 10 9 10 10 10 11 11 12 12 13 13 14 14 15 15 16 18 18 19 19 19 18 18 17 18 18 17 18
14 14 13 13 13 12 12 12 12 11 10 10 9 9 9 9 10 10 10 10 11 12 12 13 13 14 15 15 16 16 17 18 19 19 19 19 18 18 17 17 17 18 18
12 11 11 11 11 10 9 9 9 9 8 8 8 8 8 9 9 10 10 11 11 12 12 13 14 14 15 16 17 17 18 18 18 19 19 19 18 18 17 17 17 17 18
11 10 10 10 9 8 7 7 7 7 7 7 7 8 8 9 9 10 10 11 12 12 13 13 14 15 16 17 18 18 18 18 18 19 19 19 19 18 17 17 17 17 18
10 10 9 8 7 6 5 5 6 6 6 6 6 7 8 9 9 10 10 11 12 12 13 14 15 15 16 17 18 18 19 19 19 19 19 19 19 18 18 18 18 18 18
9 9 8 7 6 5 4 4 5 5 5 5 6 7 7 8 9 10 10 11 12 12 13 14 15 16 16 17 17 18 19 19 19 19 19 19 18 18 18 18 18 18 18
8 8 7 6 5 5 4 4 4 5 5 6 6 7 7 8 9 9 10 11 12 12 13 14 15 15 16 17 17 18 19 19 19 19 19 19 18 18 18 18 18 18 18
9 8 8 7 6 5 5 5 5 5 6 6 6 7 7 8 9 9 10 11 12 12 13 14 15 15 16 17 17 18 18 18 19 19 19 19 19 19 18 18 18 18 18
12 10 9 8 7 6 6 6 6 6 7 7 7 8 8 8 9 10 10 11 12 12 13 14 15 15 16 17 17 17 18 18 18 19 19 19 19 19 19 19 19 19 19

GEFSGL_500_meanwind_078.txt.gz
Wind_Speed
39 39 40 42 42 41 41 40 40 39 39 39 40 40 40 41 42 43 44 45 47 49 51 53 54 56 57 59 60 61 61 62 63 64 65 65 64 64 64 63 63 62 62
39 39 40 40 39 39 39 39 39 39 39 41 41 42 43 43 44 45 46 48 49 51 53 55 56 57 57 58 58 58 59 59 60 60 61 61 60 59 59 58 57 56 55
38 38 39 39 38 38 38 39 39 39 39 40 41 41 43 43 45 47 47 49 50 52 54 55 57 58 58 57 57 57 57 56 55 55 54 53 52 52 50 49 48 48 47
39 39 40 39 39 39 39 38 38 38 39 40 42 42 43 43 45 46 47 49 50 52 53 54 54 54 54 54 53 53 52 51 49 48 46 46 45 44 42 42 41 41 40
37 38 37 38 38 38 38 38 39 39 40 41 41 42 42 43 44 44 45 46 48 49 49 50 50 50 50 50 49 48 47 45 43 41 40 39 37 36 36 35 35 33 32
33 34 35 35 36 36 37 36 37 38 39 39 39 39 40 40 41 42 43 44 45 46 46 46 46 45 45 44 42 41 39 36 35 34 33 31 30 30 29 29 28 27 27
31 31 32 33 34 34 34 35 35 35 35 36 37 37 38 39 40 41 42 43 43 43 42 41 40 39 38 36 34 32 30 29 28 27 26 25 25 24 23 23 23 23 23
29 29 29 30 31 31 32 33 33 33 33 34 35 35 36 37 38 38 39 39 39 38 36 35 34 32 30 28 25 23 21 20 20 20 20 20 19 19 20 20 20 21 21
27 28 28 29 29 29 29 30 30 30 31 31 32 32 33 34 35 35 35 34 32 31 29 28 26 24 21 20 19 18 17 16 16 16 16 16 17 18 18 18 18 19 19
27 27 27 27 27 27 27 27 27 27 28 29 29 30 31 31 31 30 29 28 27 25 24 23 20 19 17 16 15 15 14 14 14 15 15 15 15 15 16 16 17 17 18
24 24 25 25 25 25 25 25 25 26 26 26 27 28 28 28 27 26 25 24 23 21 20 18 17 16 15 14 14 13 13 13 13 14 14 14 15 15 15 16 16 17 18
22 23 23 23 23 23 22 22 23 24 24 24 25 25 24 24 24 23 22 20 19 17 16 15 14 14 13 13 13 13 13 13 13 14 15 15 15 15 16 16 16 16 17
21 21 21 21 21 21 21 21 22 22 22 22 22 22 22 21 20 19 18 17 15 14 13 13 13 12 12 12 13 13 14 14 14 15 15 15 16 15 15 15 15 16 17
19 19 19 19 19 19 19 20 20 20 20 19 19 19 18 17 17 16 15 14 12 11 11 11 11 11 12 13 13 14 15 15 15 15 15 15 15 15 15 15 15 16 16
17 17 17 17 18 18 18 18 18 18 17 16 16 16 15 15 14 13 11 10 10 9 10 11 11 12 12 13 13 14 15 15 15 16 16 15 14 14 14 15 15 15 15
15 16 16 16 16 16 16 16 15 15 14 13 13 13 12 12 11 10 9 8 8 9 10 11 11 12 12 13 14 14 15 15 15 16 15 15 14 13 13 13 14 13 14
14 14 14 14 14 14 13 13 13 12 12 11 11 10 9 8 8 8 8 8 9 10 10 11 12 12 13 13 14 14 14 14 15 15 15 14 14 13 13 13 13 13 12
12 12 11 11 12 11 11 11 10 10 8 8 7 7 7 7 7 7 7 8 9 9 10 11 12 13 13 14 14 14 14 14 14 14 14 14 14 13 13 13 13 12 12
10 10 10 10 10 10 9 9 8 6 6 5 5 5 5 5 6 6 7 8 9 9 10 11 12 13 14 14 14 14 14 14 14 14 14 14 13 13 12 12 12 12 11
9 9 9 8 8 8 7 6 5 4 4 4 4 4 4 5 5 6 7 8 9 10 11 12 12 13 13 14 14 14 14 14 14 14 14 13 13 13 12 12 11 11 11
8 8 7 7 6 5 5 4 3 3 3 3 3 3 4 4 5 6 7 8 9 10 11 11 12 13 13 13 14 14 14 14 15 14 14 13 13 13 12 11 11 11 11
7 6 6 5 4 4 3 3 2 2 2 2 2 3 3 4 5 6 7 8 9 10 10 11 12 12 13 13 14 14 15 15 15 14 14 13 13 13 12 12 12 11 12
6 5 4 3 2 2 2 2 2 2 3 3 3 3 4 4 5 6 7 8 9 10 10 11 12 12 13 13 14 15 15 15 15 15 14 14 13 13 13 12 12 13 13
7 6 5 3 2 2 2 2 2 3 3 3 4 4 4 5 6 6 7 8 9 10 11 12 12 13 13 14 14 14 15 15 15 15 15 14 14 13 13 13 13 13 13
9 9 8 6 5 4 4 4 3 3 4 4 4 4 5 5 6 7 7 8 9 10 11 12 12 13 14 14 14 15 15 15 15 15 15 15 15 14 14 14 14 14 14
12 11 10 9 8 7 6 6 5 5 5 5 5 6 6 6 7 7 8 9 10 10 11 12 13 13 14 14 14 15 15 15 15 15 15 15 15 15 15 15 15 15 16

GEFSGL_500_meanwind_084.txt.gz
Wind_Speed
35 37 38 39 40 41 41 41 41 41 41 41 40 40 40 40 41 42 43 43 45 46 46 47 48 48 50 51 52 52 53 54 56 57 57 57 57 58 58 58 58 58 57
35 36 38 39 39 40 40 41 41 41 42 41 41 40 40 41 41 42 43 44 46 46 46 47 47 48 49 49 50 50 51 52 53 53 53 54 54 54 54 54 53 52 51
36 37 38 38 39 39 40 41 41 42 42 41 41 41 40 41 42 43 43 44 45 46 45 46 46 45 45 47 47 48 49 49 49 49 50 50 50 49 48 48 48 46 45
36 37 37 38 39 39 40 41 41 41 41 41 41 41 41 41 42 42 42 43 43 43 44 44 44 44 45 45 46 46 46 46 46 45 45 44 43 42 41 40 39 39 38
35 36 37 38 39 39 39 40 39 39 39 39 39 39 39 39 39 39 40 40 40 40 41 41 42 42 42 43 43 42 42 41 39 38 37 36 35 34 33 32 31 31 31
34 35 35 35 36 36 36 36 36 36 36 36 37 36 36 36 36 36 37 37 37 37 38 38 38 38 38 37 36 35 34 33 31 31 30 29 28 27 27 27 27 26 26
32 32 32 33 33 34 34 33 33 33 33 32 32 33 33 33 33 33 33 33 33 33 33 33 32 31 31 30 29 28 28 27 26 26 25 25 25 25 25 25 24 24 23
30 30 30 30 30 30 30 30 31 31 30 30 31 31 31 31 31 30 30 31 30 29 29 29 29 29 28 27 26 25 25 24 24 24 23 23 23 23 23 23 22 22 21
27 27 27 27 27 28 28 28 28 28 28 28 28 28 28 28 27 28 28 27 26 26 26 27 27 26 25 25 24 23 23 22 22 22 22 21 21 21 21 20 20 19 19
24 24 25 25 25 25 25 25 26 26 26 26 26 26 25 26 25 25 24 24 24 24 24 24 24 24 23 22 21 21 20 20 20 20 20 20 20 20 19 19 18 18 18
23 23 23 24 24 24 24 24 24 24 24 24 24 24 24 23 23 23 23 23 22 22 21 21 21 20 20 19 19 19 19 19 19 19 19 19 19 18 18 18 17 17 17
21 21 22 22 22 22 22 22 22 22 22 23 23 22 21 21 20 20 20 20 19 18 18 18 18 18 18 18 18 18 18 19 18 18 18 18 18 17 17 16 16 16 17
20 20 20 20 21 21 20 20 20 20 20 20 20 20 19 18 18 18 17 16 16 15 15 16 16 17 17 16 17 18 18 18 18 17 17 17 16 16 16 16 15 15 16
18 18 18 18 18 19 18 18 18 18 19 18 18 17 17 17 16 16 15 14 14 14 14 15 15 16 16 16 17 18 17 17 16 15 15 15 15 15 14 14 14 14 15
16 16 16 16 16 17 16 16 16 16 16 16 16 15 15 15 14 13 13 13 13 13 14 14 14 15 15 16 16 17 17 16 15 14 14 14 14 14 13 13 13 14 14
14 14 14 13 14 14 14 14 14 14 14 14 14 13 12 11 11 10 11 11 12 12 13 13 13 14 15 15 16 16 15 15 14 14 14 14 13 14 13 13 12 13 14
13 12 12 12 12 12 12 13 13 12 12 12 12 11 10 9 9 9 9 10 11 11 12 12 13 14 14 15 15 16 15 14 14 13 13 13 13 13 13 12 12 12 13
12 12 12 11 11 11 11 11 10 10 10 10 9 8 7 7 7 8 9 10 10 11 12 12 13 13 14 14 15 15 14 14 13 13 13 13 12 13 12 12 12 12 12
11 11 11 10 10 10 10 9 8 8 8 8 7 7 7 7 7 7 9 9 10 11 11 12 12 13 13 14 14 14 14 13 13 13 12 12 12 12 12 11 11 11 11
10 10 10 9 9 9 8 7 7 7 6 6 6 6 6 6 7 7 8 9 10 11 11 12 12 13 13 14 14 14 14 13 13 12 12 11 11 11 11 10 10 10 10
9 8 8 7 7 7 7 6 6 5 5 5 5 5 5 6 6 7 8 9 10 11 11 12 12 13 13 14 14 14 14 13 13 12 11 11 11 11 10 10 10 10 10
8 7 6 6 6 5 5 5 5 4 4 4 4 5 5 6 7 7 8 9 10 11 11 12 12 13 13 13 14 14 14 13 13 12 12 11 11 10 10 10 10 10 10
8 7 7 6 5 5 4 4 4 4 4 4 5 5 6 6 7 8 9 10 10 11 11 12 12 13 13 13 14 14 13 13 12 12 12 11 10 10 10 10 10 11 11
9 9 8 8 7 6 6 5 5 5 4 5 5 6 6 7 8 8 9 10 10 11 12 12 12 13 13 13 13 13 13 12 12 12 12 11 11 11 11 11 11 12 12
11 11 10 9 9 8 7 7 6 6 6 6 6 7 7 8 8 9 9 10 11 11 12 12 13 13 13 13 13 13 13 13 12 12 12 12 12 11 11 12 12 13 13
13 13 12 11 10 9 9 8 8 7 7 7 7 8 8 8 9 9 10 10 11 11 12 13 13 13 13 13 13 13 13 13 13 13 13 13 13 13 13 13 14 14 15

GEFSGL_500_meanwind_090.txt.gz
Wind_Speed
30 31 31 31 31 31 31 32 32 33 33 33 34 35 35 36 37 38 38 39 40 40 40 41 42 43 44 45 45 46 46 47 48 48 49 49 49 48 48 48 49 50 50
30 31 31 32 32 32 33 33 34 34 35 35 36 36 37 37 38 38 38 39 40 40 40 41 42 43 43 44 44 45 45 46 46 46 45 45 45 45 45 46 46 46 46
30 31 32 32 33 33 34 34 35 35 36 37 37 37 37 37 37 37 37 37 39 39 39 40 41 41 42 42 42 42 42 42 42 41 41 41 41 42 42 42 42 41 41
31 32 33 33 33 34 34 35 35 36 36 36 36 36 35 36 36 36 36 37 37 37 38 38 39 39 39 39 39 38 38 38 38 38 38 39 38 38 38 37 37 37 36
30 31 31 32 32 33 33 34 34 35 35 35 35 35 34 34 35 35 35 35 35 35 35 36 36 36 35 35 36 36 36 36 36 36 36 36 35 34 33 33 33 33 32
28 28 29 30 31 31 32 32 33 33 34 34 34 33 33 33 33 34 33 32 32 33 33 32 32 33 33 33 34 33 33 33 33 33 33 32 31 31 31 31 30 29 28
27 28 28 28 29 29 30 31 31 31 32 32 31 31 31 31 31 31 31 31 31 30 30 30 30 30 31 31 31 31 30 30 30 30 30 29 29 29 28 27 26 25 23
26 27 28 28 29 29 29 29 29 29 29 28 28 28 29 29 29 29 28 28 28 28 28 28 28 28 28 28 28 27 27 27 27 27 27 26 25 24 24 24 23 22 20
24 25 26 26 27 27 27 27 27 26 26 26 26 26 26 26 26 26 25 25 25 25 25 25 25 25 25 25 25 25 25 24 24 24 24 23 23 22 22 21 20 20 19
22 22 23 23 23 23 23 23 23 23 24 24 24 24 24 24 24 23 22 22 22 23 23 22 22 22 22 22 22 23 23 23 23 22 22 21 20 20 20 19 18 18 17
20 21 21 21 21 21 22 22 22 23 23 23 23 23 22 21 20 20 20 20 20 20 20 20 20 20 21 21 21 21 21 21 21 21 20 19 19 18 18 17 17 16 16
19 19 20 20 20 21 20 20 21 21 21 21 20 20 20 19 19 18 18 19 19 19 19 18 19 19 19 19 19 19 19 19 19 19 18 17 17 16 16 16 15 14 15
18 18 19 18 19 19 19 19 19 19 19 19 18 18 17 17 17 17 18 18 17 17 17 17 18 18 18 18 18 18 18 18 18 17 16 16 15 15 14 14 14 13 15
16 17 17 17 17 17 17 17 17 17 16 16 16 16 16 15 15 16 16 16 15 15 15 16 16 16 17 17 16 16 17 17 16 16 15 15 14 14 14 13 13 14 15
14 14 14 15 15 15 15 14 14 13 14 14 14 14 13 13 13 13 13 13 12 13 13 13 14 15 14 15 15 15 16 16 15 14 14 14 14 14 13 13 13 13 14
11 11 12 13 13 13 12 12 12 12 12 12 11 11 11 11 11 11 11 10 11 11 12 12 13 13 14 14 14 15 15 15 14 14 13 13 13 13 13 12 11 12 12
9 10 10 11 11 11 11 11 11 10 10 10 9 9 9 9 9 8 9 9 10 10 11 12 12 13 13 13 14 14 14 14 13 13 12 12 12 12 12 11 11 11 11
8 8 9 9 9 9 9 9 9 9 8 8 7 7 7 7 7 7 8 8 9 10 11 11 12 12 12 13 13 14 13 13 12 12 11 11 11 11 11 11 10 11 11
7 7 8 8 8 8 8 7 7 7 6 6 5 5 6 6 6 7 7 8 9 10 11 11 11 12 12 13 13 13 13 12 12 11 10 10 10 10 10 10 10 10 11
7 7 7 7 7 6 5 5 5 5 5 4 4 4 4 5 6 6 7 8 9 10 10 11 11 12 12 12 12 12 12 11 11 10 10 10 10 9 9 9 10 10 10
8 7 7 6 6 5 4 4 4 4 3 3 3 4 4 5 6 6 7 8 9 9 10 11 11 12 12 12 12 12 11 11 10 10 10 9 9 9 9 9 10 10 11
9 9 8 7 6 5 5 4 4 4 4 4 4 4 5 6 6 7 8 8 9 9 10 11 11 12 12 12 11 11 11 10 10 10 9 9 9 9 9 10 10 11 12
11 11 9 8 8 7 7 6 6 6 6 6 6 6 6 6 7 7 8 9 9 10 11 11 12 12 11 11 11 11 10 10 10 10 10 10 10 10 10 11 11 12 12
13 12 11 10 10 9 9 9 8 8 8 7 7 7 7 7 8 8 9 10 10 11 12 12 12 12 11 11 11 11 10 10 10 10 10 10 11 11 11 12 12 12 13
15 14 13 13 12 11 11 10 10 10 9 9 9 8 8 9 9 9 10 11 11 12 12 12 12 12 12 12 11 11 11 11 11 12 12 12 12 13 13 13 13 14 14
16 14 14 14 13 13 12 12 11 10 10 10 10 9 9 10 10 10 10 11 12 12 12 12 12 12 12 12 12 12 13 13 13 13 13 14 14 14 14 14 15 15 15

GEFSGL_500_meanwind_096.txt.gz
Wind_Speed
24 25 25 24 25 25 26 26 26 26 27 28 29 29 30 32 33 34 36 36 37 38 39 40 40 41 42 43 43 44 44 45 45 45 45 44 45 45 45 45 46 46 46
25 25 25 25 25 25 25 26 26 26 27 28 29 30 31 32 33 34 34 35 37 38 39 39 40 40 41 42 42 43 43 43 43 43 43 42 42 43 42 42 43 43 43
25 25 25 25 25 25 25 26 26 26 28 28 28 29 30 31 32 33 34 36 37 37 38 38 39 40 40 41 41 41 41 41 41 41 40 40 40 41 41 41 41 40 40
25 25 25 25 25 26 27 27 27 27 28 28 28 29 30 31 32 34 34 35 35 35 36 37 37 38 38 39 39 39 39 38 39 38 37 38 38 39 39 38 37 36 36
24 24 24 24 25 25 26 27 27 27 27 28 29 30 31 32 33 34 34 34 34 34 35 35 36 36 36 36 36 36 36 36 35 35 35 35 36 36 35 35 34 33 33
23 23 23 23 23 24 25 26 26 27 28 29 30 30 31 31 32 32 32 32 32 32 33 33 33 33 33 33 33 33 32 32 31 31 31 32 32 32 32 32 31 31 30
22 23 23 23 23 23 24 25 26 26 27 28 29 29 30 30 30 30 30 29 29 30 30 30 30 30 30 30 29 28 28 28 28 28 29 29 29 29 29 29 28 27 27
22 22 22 22 23 23 24 24 24 25 25 26 27 27 27 27 27 27 27 27 27 27 27 27 27 26 26 25 25 25 25 25 25 26 26 26 26 26 25 25 24 24 23
20 20 21 22 22 23 23 23 24 24 25 25 25 25 25 25 25 25 25 25 25 24 24 24 23 23 23 23 23 23 23 23 23 23 23 24 23 23 23 22 21 21 20
18 18 19 21 22 22 22 23 23 24 24 24 24 23 24 24 23 22 22 22 22 21 21 22 22 22 22 21 21 22 22 21 21 21 21 21 21 20 19 18 18 18 17
17 18 19 20 20 20 20 21 21 21 21 21 21 21 21 21 20 20 20 20 20 20 20 20 20 20 20 20 20 20 20 19 19 19 20 20 19 18 16 16 16 16 15
17 17 17 18 18 19 18 19 19 19 19 19 19 19 18 18 18 18 17 17 18 18 17 17 17 17 17 17 17 18 18 17 18 18 18 18 17 16 15 15 15 15 14
15 16 16 16 17 17 17 18 18 18 18 17 17 17 16 16 15 15 15 15 15 15 15 15 15 15 15 15 16 16 16 16 16 16 16 15 14 14 14 14 14 13 12
15 15 15 15 15 15 16 16 16 16 16 15 15 14 13 12 12 12 12 13 13 13 14 14 14 13 13 14 14 14 14 14 14 14 14 13 13 12 12 12 12 12 12
13 13 13 13 13 13 13 13 13 13 12 12 12 11 10 10 10 10 11 11 12 12 12 12 12 12 13 13 13 13 13 13 13 13 12 12 12 11 11 11 10 11 11
11 11 11 11 11 11 11 11 11 10 10 9 9 8 8 8 9 10 10 10 10 11 11 11 12 12 13 13 12 12 12 12 11 11 11 11 10 10 10 10 9 10 11
9 9 9 10 10 9 9 9 9 8 8 7 7 7 7 7 8 8 8 9 9 10 11 11 12 12 12 12 12 12 11 11 10 10 10 9 9 9 9 9 8 9 10
8 8 8 8 8 7 7 7 6 6 6 6 6 6 6 6 6 7 7 8 8 9 10 11 11 11 11 11 11 10 10 9 9 9 8 8 8 8 8 8 8 8 10
7 7 7 6 6 6 6 6 5 5 4 4 4 5 5 5 6 6 7 8 9 9 10 10 10 10 10 10 10 9 9 8 8 7 7 7 7 7 7 7 8 9 10
7 7 7 6 6 6 6 6 5 5 4 4 4 5 5 6 6 7 8 9 9 10 9 9 9 10 10 9 9 8 8 7 7 6 7 6 7 7 7 8 9 10 11
9 9 9 8 8 8 7 7 6 6 6 5 5 6 6 7 7 8 8 9 9 10 10 10 10 9 9 8 8 8 7 7 6 6 7 7 7 8 8 9 10 11 12
11 11 11 11 10 10 10 9 8 8 8 7 7 7 8 8 8 9 9 10 10 10 10 10 10 9 9 8 8 8 7 7 7 7 8 8 8 9 9 10 11 12 12
13 12 12 12 12 11 11 11 10 10 10 9 9 9 9 9 10 10 10 11 11 11 11 10 10 9 9 9 9 8 8 8 8 9 9 9 9 10 10 11 11 12 13
15 14 14 13 13 12 12 12 11 11 11 11 11 11 11 11 11 12 12 12 12 12 12 11 11 10 10 10 10 9 9 9 9 10 10 10 10 10 11 12 12 12 13
16 16 15 15 14 14 13 12 12 12 12 12 12 12 12 12 12 12 12 13 13 13 12 12 12 12 11 11 11 11 11 11 11 10 11 11 11 11 12 12 12 12 13
18 17 17 16 15 15 14 14 13 13 13 13 13 13 13 13 13 13 13 13 13 13 13 13 13 12 12 12 12 12 12 12 12 12 12 12 12 12 12 12 12 12 12

GEFSGL_500_meanwind_102.txt.gz
Wind_Speed
29 29 29 28 28 27 26 26 26 26 27 27 28 28 28 29 30 30 32 34 34 35 37 38 39 40 40 41 41 41 42 42 43 43 44 44 45 45 45 45 45 45 45
27 27 26 27 27 27 27 26 25 26 27 28 28 29 29 29 29 30 32 32 34 35 35 36 37 38 39 40 40 41 41 41 41 42 42 42 43 43 43 43 43 42 43
26 26 26 26 26 27 27 27 26 26 27 27 28 28 28 28 28 30 31 31 33 34 34 35 36 37 38 38 38 39 39 39 40 40 40 41 40 41 41 41 41 41 41
24 24 24 24 24 25 25 25 26 26 26 27 27 27 27 27 28 30 30 31 32 34 35 36 36 37 36 37 37 37 37 38 38 38 38 38 38 38 38 38 38 38 38
23 24 24 24 24 24 24 25 25 25 26 26 27 27 27 27 28 29 30 31 32 33 33 33 34 34 34 34 34 35 35 35 35 36 36 35 35 35 35 35 35 34 33
22 22 22 22 22 23 24 24 24 24 24 26 27 28 28 28 28 29 30 30 31 31 31 31 31 32 32 32 32 33 32 32 33 33 33 32 31 31 31 31 30 30 30
20 21 21 22 22 22 22 23 23 24 24 25 26 27 27 27 28 28 28 28 29 29 29 30 30 30 29 29 29 30 30 30 30 29 29 28 28 27 28 27 27 26 26
18 19 20 21 21 21 21 22 23 24 24 25 25 25 26 26 26 27 27 27 27 27 27 27 27 27 27 27 27 27 27 26 26 26 26 25 25 25 25 24 24 23 22
17 18 18 19 19 20 21 21 22 23 24 24 24 24 25 25 25 25 25 25 25 24 24 24 24 24 25 25 24 23 23 23 23 23 23 23 23 22 22 21 20 19 19
15 16 17 18 19 20 20 20 21 22 22 22 23 23 23 24 23 23 22 22 22 22 22 21 22 22 22 21 20 20 20 20 20 20 20 20 19 19 18 17 17 17 17
13 14 15 16 17 18 18 19 20 20 21 21 21 22 22 22 21 20 19 19 19 19 19 20 20 19 19 18 18 18 18 18 17 17 17 16 16 15 15 14 14 14 14
11 11 12 14 15 15 16 17 17 18 19 19 20 20 20 20 19 18 17 17 17 17 17 17 17 16 16 16 16 16 15 15 15 15 14 13 13 13 12 12 11 12 12
10 10 11 11 11 12 13 13 14 15 16 16 16 16 16 16 16 15 15 15 15 15 15 15 14 14 14 14 14 14 13 13 12 12 11 11 11 10 10 10 10 10 11
9 9 10 11 11 11 12 12 12 11 12 12 12 12 13 13 13 13 13 13 13 13 13 12 12 12 13 13 13 12 11 10 10 10 9 9 9 8 8 9 9 9 10
7 8 8 9 9 9 9 9 9 9 9 9 9 10 10 10 10 11 11 11 11 11 11 11 11 11 11 11 11 10 9 8 8 8 8 8 7 7 7 7 7 8 8
6 7 7 8 8 8 7 7 7 7 7 8 8 8 8 8 8 8 8 8 8 8 9 9 9 10 9 9 8 8 8 7 7 7 6 6 5 5 5 6 6 6 7
6 6 6 6 6 5 5 5 4 5 5 5 6 6 6 6 6 5 5 6 6 7 7 8 8 8 8 7 7 7 6 6 6 5 5 4 4 4 4 4 5 6 7
4 4 4 4 4 3 2 2 2 3 3 3 3 3 3 4 4 4 4 5 6 7 7 7 6 6 6 6 6 5 5 5 4 3 3 3 3 3 3 4 5 6 7
5 5 5 4 3 2 2 2 2 2 2 2 2 3 3 3 3 4 4 5 5 5 5 5 5 5 5 5 4 4 3 3 2 2 2 2 3 3 4 5 6 7 7
7 8 7 7 7 6 6 5 5 4 4 4 4 3 4 4 4 5 5 5 5 5 5 5 5 4 4 4 4 3 3 2 2 3 3 4 4 4 5 6 6 7 8
9 10 10 10 10 10 9 8 8 7 6 6 6 5 5 5 5 6 6 6 5 5 5 5 4 4 4 4 4 3 3 4 4 4 5 5 5 6 6 6 7 7 8
11 11 11 11 12 11 11 10 10 9 9 8 7 7 7 7 8 8 8 7 7 6 6 5 5 5 5 4 4 4 5 5 5 5 6 6 6 6 6 7 7 7 8
13 13 12 12 12 12 12 12 11 11 10 10 9 9 9 9 9 9 9 9 8 8 8 7 7 7 6 6 6 6 6 6 6 6 7 7 6 7 7 7 7 7 7
15 14 14 14 13 13 13 12 12 12 11 11 11 11 10 10 10 11 11 10 10 10 10 9 9 8 8 8 8 7 7 7 7 7 7 7 7 7 7 7 7 7 7
16 16 15 14 14 14 13 13 13 12 12 12 12 12 12 12 12 12 12 12 12 11 11 10 10 10 9 9 9 9 8 8 8 8 8 7 7 7 6 6 6 7 7
17 17 16 15 15 14 14 13 13 13 13 13 12 12 12 12 12 12 13 13 12 12 12 11 11 10 10 10 9 9 9 9 8 8 7 7 6 6 6 6 6 6 6

GEFSGL_500_meanwind_108.txt.gz
Wind_Speed
30 31 31 30 30 30 30 30 30 30 29 28 28 28 27 28 28 29 29 30 31 32 33 34 35 35 36 37 38 38 39 40 40 41 41 41 41 42 42 42 42 42 42
30 30 31 30 30 30 29 29 29 29 29 29 28 29 28 27 28 29 29 30 30 31 32 32 33 34 34 35 35 36 37 38 38 39 39 39 40 40 41 41 41 40 41
30 30 30 30 31 30 29 29 29 28 28 29 28 28 27 27 28 28 29 29 29 29 30 30 31 32 32 33 33 34 35 36 36 37 37 37 38 39 39 39 38 38 38
29 30 30 30 30 29 28 28 28 29 29 29 27 27 27 27 27 27 28 28 27 27 27 28 29 29 30 31 32 33 33 34 35 35 35 36 36 35 35 35 35 35 35
26 27 29 29 28 28 27 27 28 27 26 25 26 26 26 26 26 26 26 26 26 26 26 27 28 28 29 30 30 31 31 32 32 32 33 33 33 32 31 32 32 32 32
24 24 24 25 24 25 26 26 25 25 24 24 24 24 24 25 25 25 25 25 25 25 26 26 27 28 29 29 29 30 30 29 29 29 29 29 29 28 29 29 29 29 28
21 21 22 22 22 22 22 22 22 23 23 23 23 24 23 22 22 23 23 23 23 24 25 25 26 27 28 28 28 28 28 28 28 27 27 26 26 26 26 26 26 25 24
19 19 19 19 19 19 19 20 20 20 20 20 20 20 20 20 21 22 23 23 24 24 25 25 25 25 26 26 26 26 26 25 25 24 24 23 23 23 23 23 21 20 20
16 16 16 16 16 16 16 17 18 18 18 18 19 19 19 20 20 21 21 22 23 23 24 24 24 24 24 24 24 24 23 22 21 21 21 21 20 20 19 19 18 17 17
14 13 13 13 13 14 14 15 15 15 15 16 18 19 20 21 21 21 21 21 22 21 22 22 22 21 21 21 21 21 20 19 19 19 19 18 18 17 16 15 15 15 15
11 11 11 12 13 13 13 14 14 15 16 17 17 18 19 20 20 20 20 20 20 20 20 20 20 20 19 18 18 18 18 17 17 17 17 16 15 14 14 13 13 13 14
8 9 10 11 12 12 13 13 14 15 15 16 16 16 17 17 17 18 19 18 18 18 18 18 18 17 17 17 16 16 15 15 15 15 14 13 12 12 11 11 11 12 12
7 8 9 11 11 12 12 12 13 14 14 14 15 15 16 16 16 16 16 17 16 16 17 16 16 16 16 15 14 13 13 13 13 12 11 11 10 10 9 9 9 9 9
8 8 8 9 10 10 11 12 12 12 13 13 13 13 14 15 15 15 15 14 14 14 14 14 14 14 13 12 12 12 11 11 11 10 10 9 9 8 7 7 7 7 7
8 8 9 9 9 9 9 9 9 9 9 10 11 12 13 13 12 12 12 12 12 11 12 11 11 11 11 11 11 11 10 10 9 9 8 8 7 7 6 6 6 5 5
7 7 8 8 7 7 7 7 7 7 8 8 9 9 9 9 9 9 9 10 10 9 9 9 9 9 9 9 9 9 9 8 8 7 6 6 5 5 4 4 4 4 4
6 6 7 7 6 6 6 6 6 6 6 7 7 7 7 7 7 7 7 8 7 7 7 7 8 8 8 8 8 8 8 7 6 5 4 4 4 3 3 2 2 3 3
6 7 7 7 6 6 5 5 5 5 5 5 6 6 6 6 6 7 6 6 6 6 6 6 6 6 6 6 6 6 6 5 4 3 3 2 2 1 1 1 2 3 4
8 8 8 8 8 7 7 6 5 5 5 6 6 6 7 7 7 7 7 7 6 6 6 6 5 5 5 5 5 4 4 3 2 2 1 0 1 1 1 2 3 3 4
9 10 10 10 10 9 9 8 8 8 7 7 7 7 8 8 8 8 7 7 7 6 5 5 5 5 5 4 4 3 3 2 1 1 1 1 2 2 2 2 3 4 4
11 11 12 12 12 11 11 10 10 9 9 9 8 9 9 9 9 9 8 8 7 7 6 5 5 5 4 4 3 3 2 2 2 2 2 2 2 2 3 3 4 4 5
13 13 13 13 13 13 13 12 12 12 11 11 11 11 10 10 10 10 10 10 9 9 8 7 7 6 6 5 5 4 4 4 3 3 3 3 3 3 3 3 4 4 5
14 14 14 14 14 14 14 14 13 13 13 13 13 12 12 12 12 12 12 12 11 11 10 9 9 8 7 6 6 5 5 5 4 4 4 3 3 3 3 3 4 4 5
16 16 16 16 16 16 15 15 15 15 14 14 14 14 14 14 14 13 13 13 13 12 12 11 10 9 9 8 7 7 6 5 5 5 4 4 4 3 3 4 4 4 5
16 17 16 16 16 16 16 16 15 15 15 15 15 15 15 15 15 15 14 14 14 13 13 12 12 11 10 10 9 8 7 7 6 5 5 5 4 4 4 4 4 5 5
17 17 16 16 16 16 15 15 15 15 15 15 15 15 15 15 15 15 15 15 14 14 13 13 12 12 11 10 9 9 8 7 6 6 5 5 5 4 5 5 5 6 6

GEFSGL_500_meanwind_114.txt.gz
Wind_Speed
24 25 26 26 26 26 26 25 25 25 25 25 24 24 24 24 23 24 25 26 27 28 29 30 31 31 31 31 32 33 35 35 36 36 37 37 37 37 37 37 37 38 38
24 24 25 25 26 26 25 25 25 25 24 24 24 24 24 24 24 24 24 25 26 27 28 29 29 29 29 29 30 32 33 33 34 34 34 35 35 35 35 35 36 37 37
24 24 25 25 26 26 25 25 24 24 24 24 23 23 23 23 23 24 25 25 25 26 26 27 27 27 27 28 29 29 30 31 31 31 32 32 33 33 34 34 34 34 34
22 23 23 24 24 25 25 25 24 24 24 24 23 23 23 23 24 24 24 25 25 25 25 25 25 26 27 27 27 27 27 28 28 29 29 30 31 31 31 31 30 30 31
21 22 22 22 23 23 23 23 23 23 22 22 23 23 23 23 22 22 22 23 23 23 24 24 25 25 25 25 25 25 25 26 27 27 28 28 28 28 28 28 28 28 28
20 20 21 21 21 21 21 21 20 20 20 21 21 21 21 21 21 21 21 22 22 23 23 23 23 22 22 22 23 23 24 25 26 26 26 26 26 26 26 25 25 25 24
16 17 17 17 17 17 17 18 18 18 19 19 20 19 19 20 19 19 20 20 21 22 22 21 20 20 21 21 22 22 23 24 24 24 24 24 24 24 24 23 22 22 22
13 13 12 13 12 13 14 14 14 15 15 16 17 17 17 18 18 19 19 19 19 19 19 19 20 20 20 21 21 22 22 22 22 22 22 22 22 22 21 20 20 20 19
11 11 10 11 11 11 12 12 12 12 12 13 14 15 16 16 18 18 18 17 18 18 18 18 19 19 19 20 20 20 20 20 20 19 19 19 19 19 18 17 17 16 16
9 9 9 9 9 9 9 9 9 10 10 11 12 13 13 14 15 15 15 15 15 16 17 18 18 18 18 18 18 18 18 17 17 17 18 18 17 17 15 15 14 14 13
6 7 7 7 7 7 6 7 7 8 9 10 11 12 12 12 13 13 13 14 14 15 15 15 16 16 16 16 16 16 16 16 15 16 16 15 15 14 13 12 12 12 11
5 6 6 5 5 5 5 6 6 7 8 8 9 10 10 11 11 12 13 13 13 13 13 14 14 15 15 15 14 14 14 14 14 14 13 13 12 11 10 10 10 9 9
3 3 3 4 4 5 5 5 6 6 6 7 8 8 9 9 10 10 10 11 11 12 12 12 12 12 12 13 13 13 13 13 12 12 11 11 10 9 9 9 8 8 8
3 3 3 3 3 3 3 3 4 4 5 6 6 7 7 7 7 8 8 9 10 10 11 11 11 11 11 11 11 11 11 11 10 10 9 9 8 7 7 7 7 6 6
3 3 3 3 3 3 3 3 3 4 4 4 4 5 5 6 6 6 6 7 8 8 9 9 9 9 10 10 9 9 9 9 8 8 7 7 6 6 6 5 5 5 5
4 4 3 3 3 3 3 3 3 3 3 3 4 4 4 4 5 5 5 6 6 6 6 7 7 8 8 7 7 7 7 6 6 6 5 5 4 4 4 4 3 3 3
6 5 5 4 5 4 4 4 4 4 4 4 4 4 4 4 4 4 4 5 5 5 4 4 5 5 5 4 4 5 4 4 4 3 3 2 2 2 2 2 2 2 2
8 8 7 7 7 7 6 6 6 6 6 6 6 6 6 6 5 5 5 5 4 4 3 3 3 3 3 3 3 3 3 2 1 1 1 1 0 0 0 1 1 1 2
11 10 10 10 10 10 9 9 9 8 8 8 8 8 8 8 7 7 6 6 5 5 4 4 3 3 3 3 3 2 2 1 0 0 1 1 1 1 1 1 1 2 2
12 12 12 13 13 13 12 12 11 11 11 10 10 9 9 9 9 9 8 7 7 6 6 5 5 4 4 4 3 3 2 2 2 2 2 2 2 2 2 2 2 2 3
14 14 14 14 14 14 14 14 14 13 13 12 12 12 11 11 11 10 10 10 9 8 8 7 7 6 6 6 5 5 4 4 4 3 3 3 2 2 2 2 2 3 4
16 16 16 16 16 16 16 16 16 15 15 14 13 13 13 13 12 12 12 12 11 11 10 10 9 9 8 8 7 6 6 5 5 4 4 3 3 2 2 3 3 4 4
18 18 18 17 17 17 17 17 17 16 16 15 15 15 15 15 14 14 14 14 14 13 13 12 11 11 10 9 8 8 7 6 6 5 4 3 3 3 3 4 4 4 5
18 18 18 18 18 18 18 17 17 17 16 17 17 16 16 16 16 16 15 15 15 14 14 13 13 12 11 10 9 9 8 7 6 5 4 4 4 4 4 5 5 5 6
17 17 17 17 17 17 17 17 17 16 16 17 17 16 16 16 16 16 16 15 15 14 14 14 13 13 12 11 10 9 8 7 7 6 5 5 5 5 5 6 6 6 7
16 16 16 17 17 17 17 16 16 16 16 16 16 16 16 15 15 15 15 15 14 14 13 12 12 12 11 10 10 9 8 8 7 7 6 6 6 6 7 7 7 8 9

GEFSGL_500_meanwind_120.txt.gz
Wind_Speed
25 25 26 26 26 25 25 26 27 27 26 27 27 26 26 26 27 27 27 28 28 29 29 30 31 32 32 33 35 35 35 36 36 37 37 37 37 38 38 38 37 38 38
25 25 25 25 25 25 26 27 27 27 27 27 27 27 27 27 27 27 27 27 28 28 28 30 30 30 31 32 33 33 34 34 34 33 34 35 36 36 36 36 36 37 36
25 24 24 24 24 25 25 25 25 26 26 26 27 27 27 27 27 27 28 28 27 28 28 28 28 29 29 30 30 31 31 31 31 32 32 33 33 34 34 34 34 34 34
24 24 24 24 24 24 24 24 24 24 24 25 26 26 26 26 26 26 26 27 27 27 27 26 27 27 28 28 29 29 29 30 30 31 31 31 31 31 32 32 32 33 33
23 23 22 22 22 22 22 22 22 22 23 24 24 24 24 24 24 25 25 25 24 24 25 25 25 25 26 27 27 27 27 28 29 29 29 29 29 30 30 31 31 31 32
22 21 20 20 19 19 19 19 19 20 20 21 22 23 23 23 23 23 22 22 22 22 23 24 24 24 25 25 25 25 25 26 26 26 26 27 27 28 29 29 29 29 29
20 19 18 17 16 16 16 16 16 17 18 19 19 20 21 22 22 22 22 21 22 22 22 22 22 23 23 23 23 23 23 23 23 24 24 25 25 26 27 27 27 27 26
16 16 15 15 15 15 14 14 14 15 16 17 18 18 19 19 19 19 19 20 21 21 21 21 21 21 22 22 22 22 21 22 22 23 23 24 24 24 24 25 24 23 23
14 13 12 13 13 13 13 13 14 13 13 14 15 16 16 17 17 17 18 19 20 20 20 20 20 21 20 20 20 21 21 22 22 22 22 22 22 22 22 22 22 21 21
11 11 10 10 11 11 10 11 11 11 10 11 11 12 14 14 15 16 17 17 17 17 18 19 19 19 18 18 19 19 19 20 20 20 20 20 19 19 19 19 19 19 18
9 9 9 9 8 8 8 8 9 8 8 9 9 10 11 11 12 13 13 14 14 14 15 15 16 15 16 16 16 17 17 17 17 17 17 17 17 17 16 16 15 15 14
7 7 6 7 7 7 6 6 6 7 7 7 7 8 9 9 9 10 11 10 11 11 12 13 13 14 13 14 14 14 14 15 15 15 15 15 14 14 13 12 11 11 11
4 4 3 3 3 3 4 4 5 5 5 5 4 5 6 6 7 7 8 9 9 10 10 11 12 12 12 12 12 13 13 13 13 13 12 12 11 11 10 9 9 9 8
3 3 3 3 3 3 3 3 3 2 2 2 2 3 4 4 4 5 5 6 7 8 9 9 9 9 10 10 11 11 11 11 11 10 10 9 9 8 8 7 7 7 6
4 4 4 3 3 3 3 4 3 3 2 2 2 2 2 2 3 3 4 5 6 7 7 7 7 8 8 8 8 8 8 8 8 8 8 7 7 6 5 5 5 5 4
5 5 5 5 5 5 5 5 5 4 4 4 4 4 4 3 3 3 4 4 4 4 4 5 5 6 6 6 6 6 6 6 6 6 5 5 4 4 4 4 3 2 2
7 7 7 7 7 7 6 7 7 7 7 7 6 6 6 5 5 5 5 5 5 5 4 5 4 4 4 4 5 5 5 4 4 3 3 2 2 2 2 1 1 1 1
10 9 9 9 9 10 10 10 10 9 9 9 9 8 8 8 8 7 7 7 6 6 6 5 5 5 5 4 4 4 4 3 2 2 1 1 1 1 1 1 1 2 2
12 12 12 12 12 12 12 12 12 12 12 11 11 11 10 10 10 9 9 9 8 8 7 7 7 6 6 6 6 5 5 4 4 3 3 3 3 3 2 2 2 3 3
15 15 15 15 15 15 14 14 14 14 14 14 14 13 13 12 12 12 11 11 10 10 10 9 9 9 8 8 7 7 6 6 5 5 4 4 4 3 3 3 3 4 4
17 17 17 17 17 17 17 16 16 16 16 16 16 16 15 15 15 14 14 13 13 12 12 12 11 10 10 9 9 8 7 7 6 6 5 4 4 4 4 4 4 5 5
18 18 18 18 18 18 18 18 18 18 18 17 17 17 17 17 17 16 16 15 14 14 13 13 12 11 11 10 9 9 8 7 7 6 5 5 5 5 5 5 6 6 6
18 18 18 18 18 18 18 18 18 18 18 18 18 18 18 18 18 17 16 16 16 15 14 14 13 12 12 11 10 10 9 8 7 6 6 6 6 6 7 7 7 7 8
18 18 19 19 18 18 18 18 18 18 18 17 17 17 17 17 17 16 16 16 15 15 15 14 14 13 12 12 11 10 9 9 8 8 7 7 7 8 8 8 9 9 9
18 18 18 18 17 17 17 17 17 17 17 17 16 16 16 16 15 15 15 15 14 14 14 13 13 13 12 12 11 10 10 9 9 8 8 9 9 9 10 10 10 11 11
16 17 17 17 17 17 17 17 17 16 16 16 16 16 15 15 15 15 14 14 14 13 13 12 12 12 11 11 11 10 10 10 10 10 10 11 11 11 12 12 12 13 14

GEFSGL_500_meanwind_126.txt.gz
Wind_Speed
26 26 27 28 28 28 28 29 29 29 30 30 30 31 31 31 32 32 31 31 32 33 34 34 33 34 36 37 36 37 38 38 38 37 37 37 39 40 40 40 40 40 40
25 26 27 27 27 28 28 29 29 29 29 29 29 30 30 31 31 32 31 31 31 32 32 33 33 34 35 35 35 36 36 36 36 37 37 37 38 39 39 39 39 38 38
26 26 26 26 26 27 28 27 27 28 28 28 29 29 30 30 31 31 31 30 30 30 31 32 32 33 34 33 34 34 34 33 33 34 35 35 36 36 36 36 36 36 35
26 25 25 25 25 25 25 25 25 25 25 25 26 27 28 28 28 29 30 30 30 29 29 29 29 30 30 31 31 31 31 32 31 32 32 32 32 32 32 33 33 33 33
24 23 23 23 22 22 23 23 22 22 22 23 23 24 25 25 26 26 27 27 27 26 27 27 27 27 27 28 27 28 29 29 29 29 29 30 30 30 31 30 30 30 30
22 22 21 20 20 19 20 20 20 20 20 20 21 21 21 22 23 23 23 24 24 23 24 24 24 24 25 25 25 25 26 26 26 26 27 27 27 28 28 27 27 27 27
21 20 19 17 16 16 16 17 18 18 19 19 19 20 20 20 21 21 21 21 21 21 21 21 22 23 22 22 22 23 23 23 23 24 24 25 25 25 25 25 25 25 25
19 18 17 16 16 15 15 15 15 16 16 16 16 17 17 18 18 18 18 19 19 18 19 19 18 18 19 19 19 19 20 21 22 22 22 22 22 22 22 22 23 23 24
16 15 14 14 14 13 13 14 13 13 14 15 14 14 14 15 15 15 15 16 16 16 16 17 16 15 16 16 16 17 18 18 19 19 19 19 20 20 20 20 20 20 20
13 12 12 12 11 11 10 11 11 11 11 11 11 11 11 12 12 12 13 12 13 14 14 14 13 13 14 14 14 15 16 16 16 16 16 16 17 17 17 17 17 17 17
9 9 9 9 8 8 7 7 8 8 8 8 8 8 8 8 9 10 10 10 10 10 11 11 11 12 12 12 12 12 12 13 13 14 15 15 15 15 15 15 15 15 15
6 6 6 6 5 5 5 5 5 5 6 5 5 6 6 6 6 7 7 7 6 7 7 8 9 10 10 10 10 10 10 11 11 12 12 12 13 13 12 12 11 11 12
4 3 3 3 3 3 2 2 3 3 4 4 4 4 4 4 4 5 5 5 5 6 6 7 7 7 7 8 8 8 9 9 9 9 9 10 10 10 10 9 8 8 8
3 3 3 2 2 2 2 2 2 1 1 2 1 2 2 1 1 2 2 2 2 3 4 4 4 4 4 5 6 6 6 7 7 7 8 8 8 7 7 7 7 7 7
5 5 5 5 5 5 4 5 5 4 4 3 3 3 3 3 3 2 2 1 1 1 1 1 1 1 1 2 3 3 4 5 5 5 5 5 5 4 5 5 5 6 6
7 7 7 7 7 7 7 7 7 7 7 6 6 6 5 5 5 5 5 5 4 4 3 4 4 3 3 2 3 4 3 3 3 3 3 3 3 3 3 3 4 4 4
9 9 9 10 10 10 9 9 9 9 9 9 9 9 8 8 8 8 8 7 7 7 6 6 5 5 4 4 4 4 3 3 3 3 3 3 2 2 2 2 2 3 3
12 12 12 12 12 12 11 11 11 11 11 12 11 11 11 11 10 10 9 9 9 9 8 7 6 6 6 5 5 5 5 5 4 4 3 3 2 2 2 2 2 2 3
14 14 13 14 14 14 14 14 14 13 13 13 13 13 13 13 13 12 12 11 11 10 10 9 9 8 8 7 7 6 6 6 5 5 4 4 4 3 3 3 3 3 4
15 15 15 15 15 16 16 16 15 15 15 15 15 15 15 15 15 14 14 13 12 12 11 11 10 10 9 8 8 7 7 7 6 6 5 5 4 4 4 4 4 4 5
16 16 16 17 17 16 16 16 16 16 16 16 16 16 16 16 16 16 15 15 14 13 12 11 11 10 10 9 9 8 8 7 7 6 6 5 5 5 5 5 5 6 7
17 17 17 17 16 17 17 17 17 17 16 16 16 16 16 16 16 16 15 15 14 13 13 12 11 11 10 10 9 8 8 7 6 6 5 5 6 6 6 7 7 8 9
16 16 16 16 16 16 17 17 17 16 16 16 16 16 15 15 15 14 14 14 13 13 13 12 11 11 10 9 9 8 7 7 7 6 6 6 7 7 8 9 10 10 11
16 16 16 16 16 16 16 16 16 16 15 15 15 14 14 14 14 14 13 13 13 12 12 12 11 11 10 9 8 8 7 7 7 8 8 8 9 9 10 11 12 12 13
15 15 15 15 15 15 15 15 14 14 14 14 14 14 13 13 13 13 12 12 12 12 12 11 11 11 11 10 10 9 9 9 9 9 10 10 11 12 12 13 13 14 15
14 14 14 14 14 14 14 14 13 13 13 13 13 13 13 12 12 12 12 12 12 12 12 12 11 11 11 11 11 11 11 10 10 11 12 12 13 14 14 15 15 16 16

GEFSGL_500_meanwind_132.txt.gz
Wind_Speed
27 27 28 28 28 28 28 29 29 29 30 30 30 31 31 31 31 32 31 31 31 31 32 33 33 33 34 35 35 35 35 35 35 35 35 36 37 37 37 37 37 36 37
27 28 28 29 28 28 28 28 29 29 29 29 30 31 31 30 30 31 31 31 30 30 31 32 32 32 33 34 34 34 34 35 35 35 34 33 33 34 34 33 33 34 34
28 28 28 28 28 28 27 27 27 28 28 28 28 28 28 28 28 28 29 29 29 29 29 29 30 29 30 31 31 31 32 32 33 33 32 32 32 32 31 31 31 31 31
28 28 27 27 27 27 26 26 25 25 25 25 24 24 24 24 25 25 26 26 27 27 27 26 26 27 27 27 28 28 29 29 29 30 30 30 29 29 28 28 28 28 29
28 27 26 25 24 24 23 22 22 22 22 22 22 22 23 23 23 23 23 23 23 24 24 24 24 25 26 25 26 25 25 26 26 26 27 27 27 26 26 26 26 27 27
26 24 23 22 22 21 21 21 21 21 20 20 20 20 21 21 21 22 21 21 21 21 21 22 22 22 22 23 23 22 22 22 22 23 23 23 23 24 24 24 24 24 24
23 22 21 20 20 19 19 18 18 18 18 19 19 19 19 19 19 19 19 19 19 19 19 19 20 21 21 20 19 20 20 20 20 20 20 20 20 20 21 21 21 22 22
20 19 19 18 18 17 17 17 17 17 17 17 17 17 17 17 17 17 18 18 18 17 18 17 17 17 17 17 17 17 17 17 17 17 17 17 17 17 17 17 18 19 19
18 18 17 17 16 15 14 15 14 15 15 15 16 15 15 15 15 15 15 15 15 14 14 13 13 13 13 13 13 12 12 12 13 14 14 14 14 14 15 15 15 16 16
16 15 15 15 15 13 12 12 12 13 14 14 13 13 13 12 12 12 11 11 10 10 9 10 10 9 8 9 9 8 8 8 9 10 11 11 12 13 13 14 14 14 14
14 13 13 13 12 10 10 10 10 10 11 10 10 9 9 9 9 8 7 6 6 5 5 5 5 4 4 5 5 5 6 7 7 8 8 9 11 11 12 12 12 12 12
12 11 11 10 9 9 8 8 8 8 8 7 7 6 6 5 5 4 3 2 1 2 1 2 3 3 3 3 4 4 4 5 6 7 7 7 8 9 10 10 10 10 10
9 9 8 6 6 6 5 4 4 4 4 5 5 5 5 4 4 3 2 1 1 1 0 0 2 1 1 1 1 3 4 4 5 5 5 6 6 7 8 7 7 7 6
7 6 6 6 5 4 4 3 3 3 3 4 5 5 5 5 4 4 3 3 3 3 2 2 3 2 1 2 1 2 2 3 4 4 5 5 5 5 4 4 5 5 6
7 6 6 6 6 6 6 5 5 5 5 5 6 6 6 6 6 6 6 5 4 4 4 5 4 4 4 4 5 4 4 4 4 4 5 5 5 5 4 4 5 5 5
7 7 7 8 8 8 8 9 9 9 9 9 9 9 9 8 8 8 8 8 7 7 7 7 7 7 7 7 7 6 6 6 6 6 6 6 5 5 5 6 6 5 5
9 8 9 9 10 10 11 11 12 12 12 12 12 11 11 11 11 11 11 10 10 10 10 9 9 9 8 8 8 7 7 7 7 7 7 7 6 7 7 6 6 6 5
10 11 11 11 12 12 12 13 13 13 14 14 14 14 14 13 13 12 13 13 13 12 12 11 11 10 9 9 8 8 8 8 8 7 7 7 7 7 7 7 7 7 7
12 12 12 13 13 13 13 14 14 14 15 16 16 16 16 15 15 14 14 15 14 13 13 13 13 12 11 10 9 9 9 8 8 8 8 8 8 8 8 8 8 8 8
12 13 13 14 14 14 14 15 15 15 16 16 16 16 16 16 16 16 16 15 15 14 14 14 13 13 12 11 11 10 9 9 9 9 8 8 8 8 9 9 9 9 10
13 13 14 14 14 15 15 15 16 16 16 17 17 17 17 17 16 16 16 16 15 15 14 13 13 13 12 12 11 11 10 10 10 9 9 9 9 9 9 10 10 11 12
13 13 14 14 15 15 16 16 16 16 16 16 16 17 17 17 16 16 16 16 15 14 14 13 12 12 12 12 11 11 11 11 10 10 10 10 10 10 11 11 12 13 14
13 14 14 15 15 15 15 15 16 16 16 16 16 16 16 15 15 15 15 15 14 14 13 13 12 12 12 12 12 11 11 11 11 11 11 11 11 12 12 13 14 15 16
12 13 14 14 15 15 15 15 15 15 15 15 15 15 15 15 15 15 14 14 14 14 14 13 13 13 12 12 12 12 12 12 12 12 12 12 13 14 15 15 16 17 18
12 12 13 13 13 13 13 14 14 14 14 14 14 14 15 15 14 14 14 14 13 13 13 13 13 13 13 13 13 13 13 13 13 14 14 15 15 16 17 18 19 19 20
11 11 11 12 12 12 12 12 12 12 12 12 13 13 13 13 14 13 13 13 13 13 12 12 12 13 13 14 14 14 14 15 15 16 17 17 18 19 20 20 21 21 22

GEFSGL_500_meanwind_138.txt.gz
Wind_Speed
26 26 27 28 28 28 28 27 27 27 26 26 26 26 25 25 26 26 26 27 27 27 28 29 29 28 29 29 29 29 30 30 30 30 31 31 31 31 32 33 33 33 33
26 27 27 27 26 26 26 26 26 26 26 25 25 25 25 25 25 25 26 26 26 27 27 27 27 28 28 29 29 29 29 29 30 30 31 32 32 31 32 32 33 32 32
26 26 26 26 25 25 25 25 25 25 25 25 25 25 25 25 25 25 25 25 26 25 25 26 26 26 27 27 27 28 28 28 28 29 30 30 30 30 30 31 30 30 30
26 26 25 25 25 24 24 24 23 23 24 24 24 24 24 24 24 24 24 24 23 23 23 23 23 23 24 26 26 26 26 27 27 28 28 28 28 29 29 29 29 29 28
26 25 25 24 24 23 22 22 22 22 23 23 23 23 23 23 23 23 23 22 21 21 20 20 21 21 22 23 24 24 24 24 25 25 25 25 26 25 25 25 26 26 25
25 24 23 22 21 21 20 20 20 20 21 21 22 22 21 21 21 21 20 19 19 18 18 18 18 19 20 20 20 20 21 21 21 22 22 21 21 21 21 21 21 22 23
22 21 20 20 19 18 18 18 18 18 19 20 20 20 20 20 19 18 18 17 17 16 16 16 16 16 16 16 16 17 17 17 17 17 18 17 17 17 18 18 18 18 19
20 19 18 18 17 16 16 16 16 16 17 17 17 18 17 16 16 15 15 15 14 14 13 13 12 12 13 13 13 13 13 14 14 14 15 14 14 14 15 16 16 17 17
17 16 16 15 15 14 14 14 15 15 14 15 14 14 14 13 12 11 12 12 11 10 10 10 10 10 10 10 10 10 11 11 11 11 11 11 12 13 13 14 14 14 15
14 14 14 13 13 12 12 13 13 13 12 12 11 11 10 9 8 7 8 7 7 7 7 6 6 7 7 7 6 7 7 7 8 9 9 9 9 9 10 10 11 12 12
13 13 12 12 11 11 11 10 10 9 8 8 7 7 6 6 4 3 3 4 3 3 3 3 2 3 3 4 5 5 5 5 6 6 6 6 6 6 7 8 9 10 10
12 11 11 10 10 9 9 8 8 6 5 5 5 4 4 3 2 2 1 1 2 1 2 2 3 4 5 5 5 4 3 3 3 3 3 2 3 3 4 5 6 7 7
10 10 9 9 8 8 7 7 6 5 5 5 4 4 3 3 4 3 4 5 5 5 5 6 7 8 7 6 6 5 4 4 4 3 2 1 1 0 2 2 3 4 5
9 9 9 8 8 8 8 7 7 7 7 7 7 7 7 7 7 7 8 8 8 8 9 9 9 9 9 9 8 7 6 6 6 5 5 4 3 2 2 2 2 3 3
9 9 9 9 10 10 10 10 10 10 10 10 9 10 10 10 10 10 10 10 10 11 10 11 10 10 11 10 9 9 9 9 8 7 6 5 5 4 4 4 4 3 3
9 10 10 11 11 12 12 12 12 12 12 11 11 12 12 12 12 12 12 12 11 12 12 11 11 12 12 12 11 10 10 9 8 7 6 6 5 5 5 5 5 5 4
11 11 12 12 12 13 13 13 14 14 14 13 14 14 15 15 15 15 15 14 14 14 13 13 12 12 12 11 10 9 8 8 7 7 6 6 6 6 6 5 5 5 6
12 13 13 13 14 14 14 15 15 16 16 16 16 16 16 16 16 16 15 15 15 14 14 14 13 13 12 11 10 9 9 8 8 8 7 7 7 6 6 6 6 7 7
13 14 14 14 15 15 15 16 16 17 17 18 17 17 17 16 16 16 16 16 16 16 15 14 13 12 11 11 10 10 10 9 9 9 8 8 7 7 7 7 7 7 8
13 14 14 15 15 16 16 16 16 17 17 18 18 18 18 17 17 17 17 17 16 16 15 14 13 12 12 11 10 10 9 9 9 9 9 8 8 8 8 8 8 9 9
13 13 14 14 15 15 15 16 16 17 17 17 17 17 18 18 17 17 16 16 15 14 13 13 12 12 12 11 10 10 10 9 9 10 10 10 10 10 10 10 10 11 11
13 13 13 14 14 14 15 16 16 16 17 17 16 16 17 17 17 16 15 14 13 12 12 11 11 11 11 10 10 10 10 10 10 10 10 10 10 11 11 12 12 13 14
12 12 12 13 13 14 14 14 15 15 14 14 14 14 14 14 14 13 13 12 12 12 11 11 10 10 10 10 10 10 10 10 10 11 11 12 12 13 13 14 14 15 16
10 11 11 12 12 12 12 13 12 12 12 12 12 13 12 12 12 12 12 11 11 11 11 11 10 10 10 10 10 10 10 10 11 12 13 14 14 15 15 16 17 18 18
9 9 9 10 10 10 10 10 10 10 10 10 11 10 10 11 11 10 10 10 10 10 10 10 10 10 10 11 11 11 11 12 13 14 15 16 17 17 18 18 19 20 21
7 7 8 8 8 8 8 8 8 8 9 9 9 9 9 9 9 9 9 9 9 9 9 9 9 10 10 11 11 12 12 13 14 16 17 18 19 20 20 21 22 23 24

GEFSGL_500_meanwind_144.txt.gz
Wind_Speed
26 26 26 27 27 28 27 27 27 27 27 27 27 26 26 26 26 26 27 27 26 26 26 26 27 27 28 29 29 29 29 29 29 29 30 31 32 33 33 33 33 33 34
25 25 26 26 27 27 26 26 26 26 26 26 25 25 25 25 25 25 26 25 25 25 26 26 26 27 27 28 28 28 29 29 29 28 30 31 31 32 32 32 32 33 33
25 25 25 25 26 25 25 25 25 24 25 25 24 24 24 24 25 25 25 24 24 24 25 25 25 26 26 26 27 28 29 29 29 29 29 29 29 30 30 30 30 32 33
25 25 25 24 24 24 23 23 23 23 23 23 23 23 23 23 24 24 24 24 24 24 24 24 24 25 25 25 26 26 27 28 28 28 28 28 28 29 29 29 30 31 31
25 24 23 23 22 22 22 22 21 22 22 23 22 22 22 22 22 22 22 22 22 23 23 23 23 23 23 23 23 23 24 25 25 25 26 26 26 27 27 27 28 29 29
22 21 21 21 21 21 21 21 21 21 21 21 20 20 20 20 20 20 20 21 21 21 20 20 20 20 19 20 20 20 20 21 22 22 23 23 23 23 24 24 25 26 26
19 19 20 19 19 19 19 19 19 20 20 19 19 19 18 18 18 18 18 19 19 18 18 18 17 17 17 17 17 17 17 18 19 19 19 19 20 20 21 21 22 22 23
17 17 17 17 17 17 17 16 16 16 16 16 16 16 16 16 16 15 16 16 16 16 15 14 14 14 14 14 14 14 14 14 15 15 15 15 16 17 17 17 18 18 19
15 15 15 16 16 15 15 14 14 14 14 14 14 13 13 13 13 13 13 13 12 12 11 11 10 10 10 10 10 11 11 11 11 11 11 12 12 12 13 14 14 14 14
15 15 15 15 14 13 13 13 13 13 13 13 11 11 10 9 9 9 8 8 7 6 6 6 6 5 6 6 6 7 7 7 7 8 8 7 8 8 8 9 9 9 10
13 13 13 12 12 12 12 12 12 12 11 10 9 8 7 6 5 5 5 4 4 3 2 2 2 2 2 2 3 3 4 5 4 4 4 4 4 5 5 5 6 6 7
11 11 11 11 11 11 11 11 11 10 8 7 6 5 4 4 3 4 4 4 4 4 4 4 3 2 3 3 3 3 3 3 3 2 2 1 1 2 2 3 4 4 5
9 9 10 10 10 10 10 10 9 8 7 6 5 5 4 4 4 5 5 6 6 6 6 7 7 7 7 6 6 5 5 4 4 4 3 2 1 1 2 2 3 4 5
9 9 10 10 10 10 10 9 9 8 8 8 7 7 7 6 6 7 7 8 8 8 8 8 9 9 9 9 8 7 7 6 6 5 5 4 4 3 3 3 4 4 5
8 9 10 10 11 11 11 11 10 10 9 10 10 10 10 10 10 10 10 10 10 11 11 12 12 11 11 10 10 10 9 9 8 7 6 5 4 3 4 4 5 5 6
8 9 9 10 10 11 11 11 11 11 11 11 11 12 12 12 12 12 12 12 13 13 14 14 14 13 13 13 13 12 11 10 9 8 7 6 5 6 6 6 6 7 7
9 9 10 10 11 11 12 12 12 12 12 13 13 13 14 14 15 15 15 15 14 15 15 15 15 15 15 14 13 12 11 10 9 8 8 7 7 7 7 7 7 8 9
11 11 11 11 12 12 13 13 13 13 13 14 14 15 15 15 15 15 16 16 15 15 15 14 14 14 13 13 12 11 10 10 10 9 9 8 8 8 8 8 9 10 10
11 12 13 13 13 14 14 14 14 15 15 15 15 15 15 15 15 15 15 15 15 15 14 13 13 13 12 12 12 11 11 11 10 10 10 9 9 9 10 10 10 11 12
11 11 12 12 13 14 15 15 14 15 15 15 15 14 14 14 14 14 14 14 14 13 13 13 13 13 13 12 11 11 11 11 11 10 10 11 11 11 11 11 12 12 13
10 10 10 11 12 13 14 14 14 14 14 14 14 13 13 13 13 12 12 12 12 13 13 13 12 12 11 11 11 11 10 10 10 10 11 11 12 12 12 13 14 15 15
9 9 9 10 11 12 12 13 13 13 13 13 12 12 12 12 12 12 12 12 12 12 12 12 11 10 10 10 10 10 10 10 10 11 11 12 13 14 14 15 16 17 18
8 8 9 9 10 10 10 11 11 11 11 11 10 10 10 11 11 11 10 10 10 10 9 9 9 10 9 10 10 10 10 11 11 12 13 14 15 16 17 18 19 20 21
6 6 7 8 8 8 8 8 8 8 8 8 8 8 8 8 8 9 9 9 9 8 8 8 8 8 9 9 10 10 11 12 13 14 15 16 17 18 19 21 22 23 23
4 5 5 5 5 6 6 6 6 5 5 5 5 6 6 6 6 6 7 7 7 7 7 8 8 9 9 9 10 11 12 13 15 16 17 18 20 21 22 23 24 25 26
2 2 3 3 3 3 3 3 3 3 3 3 4 3 3 4 4 5 5 6 6 7 7 8 8 9 10 11 12 13 14 15 17 18 19 20 22 23 25 26 27 28 29

GEFSGL_500_meanwind_150.txt.gz
Wind_Speed
25 25 25 25 25 26 26 27 27 27 27 27 27 28 28 27 27 27 28 28 27 28 28 28 28 28 28 29 29 29 28 28 28 29 29 30 30 30 30 30 29 30 31
24 25 24 24 25 26 26 27 27 26 26 26 26 26 26 26 26 26 26 26 26 26 26 26 26 27 27 27 28 28 27 27 27 27 28 28 28 28 28 29 29 29 29
24 24 24 24 25 25 26 26 26 25 25 25 25 25 25 26 26 25 25 25 25 25 24 24 25 25 25 26 26 26 26 26 27 27 27 26 27 27 27 27 28 28 29
23 23 23 23 24 24 24 24 24 24 24 24 24 24 24 24 24 24 24 24 24 23 23 23 23 24 24 24 24 24 24 25 25 26 26 26 25 25 26 26 26 26 27
22 22 22 22 22 22 22 22 22 22 23 22 22 22 22 22 21 21 21 21 22 22 22 21 21 22 22 22 22 23 23 23 24 24 25 25 24 23 24 24 24 23 24
21 21 20 21 20 20 20 20 20 20 21 21 20 20 20 19 19 18 18 18 19 19 19 20 20 20 20 20 21 21 21 21 21 21 22 22 22 22 22 21 21 21 21
18 18 18 18 17 17 17 17 17 17 17 17 17 17 17 16 16 16 16 16 16 16 17 17 17 17 17 17 18 18 18 18 18 17 18 18 18 18 19 18 18 18 19
16 16 16 16 16 16 16 16 16 16 15 15 14 14 14 14 14 14 14 14 14 13 13 13 13 13 14 14 14 14 15 15 15 14 14 14 14 13 13 14 14 15 16
14 15 14 14 14 14 15 14 13 13 13 12 12 12 12 12 11 11 11 10 10 9 9 8 8 9 9 10 10 10 11 11 11 11 10 10 10 10 10 11 12 12 12
14 14 14 13 13 13 13 13 12 11 11 10 10 9 9 9 8 8 8 7 6 5 5 5 5 5 5 5 6 6 7 7 8 8 8 8 7 7 7 7 7 8 8
13 13 12 11 11 11 12 11 10 9 8 8 7 7 6 6 6 6 5 5 4 3 3 3 2 1 1 2 3 3 4 4 5 5 5 4 4 3 3 4 4 4 4
11 11 11 10 10 11 10 10 9 8 7 6 5 5 5 5 5 5 5 4 3 3 3 3 3 3 3 4 5 5 4 4 4 4 4 4 3 2 2 2 2 3 3
11 10 10 9 9 10 9 9 8 8 7 6 5 5 5 5 5 5 6 5 5 5 6 6 6 6 7 7 7 6 6 6 6 5 5 5 4 2 1 0 1 2 4
10 10 9 9 9 9 9 8 8 8 7 7 6 6 6 6 6 7 8 8 8 8 8 8 9 9 10 10 9 9 9 8 7 6 5 4 4 3 2 2 2 2 3
9 9 9 9 9 9 8 9 9 9 8 8 8 8 8 8 9 10 10 10 11 11 11 11 12 12 12 11 11 10 9 9 9 8 7 6 5 5 4 4 4 3 4
8 8 8 8 8 9 9 9 9 10 10 10 10 10 10 10 11 12 12 12 12 12 11 12 13 13 13 12 12 12 11 11 10 9 8 7 6 6 5 5 5 5 6
8 8 8 8 9 9 10 10 10 10 11 11 11 11 12 12 12 12 13 13 13 13 13 13 13 13 13 13 12 11 10 9 8 7 7 7 6 6 6 6 7 7 8
9 9 9 9 9 10 10 11 11 11 11 12 12 12 13 13 13 13 13 13 13 13 13 13 13 13 12 12 11 11 10 9 8 8 7 7 7 7 7 8 8 8 9
9 9 9 10 10 10 10 11 11 12 12 12 12 12 13 13 13 13 13 13 13 13 12 12 13 13 12 12 11 10 9 9 9 8 8 8 8 8 8 8 9 10 11
9 9 9 9 10 10 10 11 11 12 12 12 12 12 12 11 11 12 12 13 13 12 12 12 12 11 11 10 10 9 9 9 9 9 9 9 9 9 9 10 11 12 13
8 8 8 8 9 9 10 10 10 10 10 11 11 10 10 10 10 11 11 11 11 11 11 10 10 9 9 9 9 8 8 8 8 8 9 9 10 10 11 12 13 14 16
8 7 7 8 8 8 8 9 9 9 9 9 9 9 9 9 9 9 9 9 9 9 9 9 8 8 8 8 8 7 7 7 8 8 9 10 11 12 13 14 16 17 18
7 7 7 7 7 6 6 6 6 7 7 7 7 7 7 7 7 7 7 6 6 6 6 6 7 7 6 6 6 6 7 7 8 9 11 12 13 14 15 17 18 20 21
5 6 6 5 5 6 5 5 5 5 4 4 5 5 5 5 5 5 4 4 4 4 4 5 5 5 5 5 6 7 8 9 10 11 13 14 15 16 18 19 21 22 23
4 3 3 3 3 3 3 3 3 3 2 2 3 3 3 4 3 3 4 4 4 4 4 4 4 5 6 7 7 9 10 11 12 14 15 16 18 19 20 22 23 24 25
3 2 2 2 2 3 3 3 3 3 3 3 3 4 4 4 4 4 5 5 5 5 6 6 7 7 8 9 10 11 12 14 15 16 18 19 20 22 23 24 25 26 27

GEFSGL_500_meanwind_156.txt.gz
Wind_Speed
26 26 27 28 28 28 28 28 28 28 27 27 26 26 26 26 26 26 26 26 26 26 26 26 27 27 27 27 26 27 27 27 27 26 27 27 27 26 27 27 26 26 26
26 26 26 27 27 26 26 26 26 26 25 25 24 24 24 24 24 24 24 24 24 25 25 25 25 25 25 25 25 25 25 26 25 24 24 24 24 24 25 25 24 24 25
26 26 26 26 26 26 25 25 25 24 23 23 22 22 22 23 22 22 23 23 23 23 23 23 23 23 23 24 24 24 23 23 23 22 23 23 22 22 22 23 23 23 23
25 25 25 26 26 24 23 23 22 22 22 22 22 22 22 22 21 21 21 21 21 21 22 22 22 22 22 22 22 22 22 22 22 22 22 22 22 22 21 22 21 22 22
24 24 24 24 24 23 22 22 22 22 21 21 21 21 21 20 19 19 19 19 19 20 20 20 21 21 21 21 21 22 21 21 21 21 21 21 20 20 20 20 20 20 20
22 22 21 22 21 21 21 21 20 20 19 19 19 18 17 17 17 18 18 18 18 18 18 18 18 19 19 19 18 19 19 19 19 20 20 20 19 18 18 17 17 17 17
19 19 19 19 20 20 20 19 18 17 16 16 16 16 15 16 16 16 16 16 16 16 16 15 15 14 14 14 14 15 15 15 16 16 17 17 17 16 16 16 15 16 16
18 18 18 18 18 18 18 17 16 15 15 15 15 14 14 14 14 14 14 14 14 13 12 12 11 11 11 11 11 11 12 13 13 13 13 14 13 14 13 14 14 15 14
17 17 17 17 16 16 16 14 13 14 14 14 13 13 13 13 13 12 12 12 11 10 9 9 9 9 9 9 9 9 9 9 10 10 10 10 10 10 10 10 10 10 9
16 16 16 15 15 14 13 13 13 13 13 12 12 12 12 11 10 10 10 10 10 9 8 8 7 6 6 7 7 6 6 6 7 7 7 7 7 7 7 6 6 6 6
15 15 14 13 12 12 12 12 12 12 12 11 11 11 10 10 9 9 9 8 8 7 7 6 5 4 4 4 4 4 4 4 4 5 5 5 5 5 4 4 5 5 5
13 13 12 11 11 11 12 11 12 11 10 10 10 10 10 9 9 8 7 8 7 6 5 4 4 2 1 1 0 1 2 2 2 3 3 2 2 2 2 2 2 2 3
11 12 12 11 11 10 10 10 10 10 10 9 9 10 10 9 9 8 7 7 6 6 5 4 4 4 4 4 4 3 3 3 4 3 2 2 2 1 1 0 1 2 3
11 11 11 11 10 10 10 9 10 10 9 10 10 10 10 10 10 9 9 9 8 7 7 6 6 7 7 6 6 6 6 5 5 4 3 2 2 2 1 1 1 2 3
10 10 10 10 11 10 9 9 9 9 9 9 10 10 10 10 10 10 10 10 10 9 9 9 8 8 8 8 7 7 6 6 5 5 4 4 3 2 1 1 2 2 4
9 9 8 9 9 9 9 9 9 9 9 9 9 10 10 11 11 11 10 11 10 10 9 9 9 8 8 8 8 7 7 6 5 5 5 4 4 3 3 3 3 5 6
8 8 8 8 9 9 9 9 9 9 9 10 9 9 10 10 10 11 11 11 10 11 10 9 9 8 8 8 7 7 6 6 6 5 5 5 4 4 4 5 5 6 7
8 8 8 8 9 9 9 9 9 9 9 10 10 10 10 10 10 10 11 11 10 10 10 9 9 9 8 8 7 7 6 6 6 6 5 5 5 5 5 6 7 8 9
7 7 8 8 9 9 9 9 9 9 9 9 10 10 10 10 10 10 11 11 10 10 9 9 9 8 7 7 7 7 7 6 6 6 5 5 6 6 6 7 8 10 11
7 7 8 8 8 8 8 8 8 9 9 9 9 10 10 9 9 9 9 9 9 8 8 9 9 8 8 7 7 6 6 6 5 5 5 6 6 7 8 9 10 11 12
7 7 8 7 7 8 8 8 8 8 8 8 8 8 8 8 8 8 8 8 7 7 7 7 7 7 7 6 6 6 6 5 5 5 6 7 8 9 10 11 12 13 15
7 7 8 8 7 7 8 8 8 8 8 7 7 7 7 7 7 6 6 7 7 7 6 6 5 5 5 5 5 5 5 6 6 7 8 9 10 11 12 13 15 16 18
7 7 7 7 8 7 7 7 7 7 7 6 6 7 7 7 6 6 6 6 6 6 6 6 6 6 6 6 6 6 7 8 9 10 11 12 13 14 15 16 18 19 20
6 7 7 7 7 7 6 6 7 7 7 7 6 6 7 7 7 7 7 7 6 7 7 7 7 7 8 8 9 9 10 12 12 13 14 15 16 17 18 19 20 21 22
6 7 7 7 7 7 7 7 7 7 7 7 7 7 7 8 8 8 8 8 8 8 9 9 9 10 11 11 12 12 13 14 15 16 17 18 19 20 20 21 22 23 24
8 7 7 7 8 8 8 8 8 8 8 9 9 9 9 9 10 10 10 11 11 10 11 12 12 13 13 14 14 15 16 17 18 19 19 20 21 21 22 24 25 26 27

GEFSGL_500_meanwind_162.txt.gz
Wind_Speed
22 23 23 24 25 24 24 25 25 25 25 24 24 23 23 23 22 21 21 21 21 21 20 20 20 21 21 22 23 24 25 26 25 25 26 26 26 26 25 24 24 24 24
21 22 23 24 24 24 24 24 24 24 23 23 22 21 20 20 19 19 18 18 18 18 19 19 19 20 20 21 21 22 23 23 24 23 23 24 24 24 24 24 23 23 23
21 22 23 23 23 23 23 23 22 22 21 21 20 19 19 19 18 17 16 16 17 17 18 19 19 19 20 20 21 21 21 22 23 23 23 23 23 23 23 23 23 23 22
21 21 21 21 21 21 21 21 21 20 20 20 19 19 18 18 17 16 16 16 16 17 17 18 19 20 20 20 19 19 20 20 21 21 22 21 22 22 22 22 22 22 22
20 20 19 19 19 19 19 19 18 18 18 18 17 16 16 16 15 15 15 15 15 15 16 17 17 18 18 18 17 17 18 18 18 18 19 19 19 20 20 20 20 20 20
18 18 18 17 17 17 17 17 17 17 16 16 15 14 15 14 14 14 14 14 14 14 14 14 15 15 16 15 15 16 16 17 17 17 17 17 18 19 19 19 19 19 19
16 16 16 15 15 16 16 16 16 16 15 15 14 14 13 13 12 12 13 13 13 14 14 13 13 13 14 14 14 14 14 14 14 14 14 15 16 16 17 17 17 18 18
14 14 14 14 14 14 15 15 14 14 14 13 13 12 12 12 12 12 12 12 12 12 12 11 11 11 12 12 11 11 11 11 11 11 12 13 13 13 14 14 15 15 15
13 13 13 13 14 14 14 14 14 14 13 13 12 12 12 12 12 11 10 10 10 10 9 9 9 9 9 8 8 9 8 8 9 9 10 10 11 11 11 12 12 12 11
12 13 13 13 13 13 13 13 13 13 13 12 11 11 11 11 10 10 10 10 9 8 8 7 7 7 6 6 6 6 6 7 7 8 8 8 8 9 9 9 9 9 8
12 12 13 12 12 12 12 12 12 12 12 12 11 11 11 11 10 9 10 9 8 7 6 6 5 5 4 3 3 4 5 6 6 6 6 6 7 7 7 7 7 7 7
11 11 12 11 11 11 11 11 11 12 12 11 11 11 11 11 10 10 9 8 7 6 6 5 4 4 3 2 1 1 2 3 4 4 4 4 5 5 5 5 6 6 6
11 11 11 11 10 10 10 10 11 12 12 11 11 11 11 11 11 10 9 8 7 7 7 6 5 4 4 3 2 2 2 2 2 2 2 3 3 4 4 4 4 5 5
11 11 11 10 10 9 9 9 10 11 11 11 11 11 11 11 11 10 10 9 9 9 8 7 7 6 5 4 3 3 3 2 2 2 2 2 2 2 2 3 3 3 4
10 10 11 10 10 10 9 9 9 10 10 10 11 11 11 11 11 10 9 9 9 9 9 8 7 7 6 5 5 4 3 3 3 2 1 1 1 2 2 1 2 3 4
9 10 10 10 10 10 10 9 9 9 10 10 11 10 10 10 10 10 9 9 9 9 9 9 8 8 7 6 6 5 4 3 3 2 1 1 1 1 2 2 3 4 5
9 9 9 9 9 10 10 10 9 9 9 10 10 10 10 10 10 10 9 9 9 9 8 8 8 7 6 6 5 5 4 3 2 2 2 1 1 1 2 3 4 5 7
8 8 9 9 9 9 10 10 9 9 9 9 10 10 10 10 10 10 10 9 9 9 8 8 7 6 6 5 5 4 4 3 3 2 2 2 3 3 4 5 6 8 8
8 8 8 8 9 9 9 9 9 8 8 9 9 10 10 10 10 9 9 10 9 9 8 8 7 6 6 5 5 4 3 3 3 3 4 5 5 5 6 7 8 9 10
8 8 8 8 8 8 8 9 8 7 7 7 8 8 9 9 9 9 9 9 9 9 9 8 7 7 6 5 4 4 4 4 4 5 6 6 7 7 8 9 10 11 12
8 8 8 8 8 8 9 9 8 7 7 7 7 7 7 7 8 8 9 9 9 9 9 9 8 8 6 5 5 5 5 6 7 7 8 8 9 10 11 11 12 13 15
9 9 9 9 9 9 9 9 8 7 7 6 6 7 7 7 8 8 8 8 9 9 9 9 9 9 8 7 6 6 7 8 9 10 10 11 11 12 13 14 15 16 17
8 8 8 9 9 9 9 9 8 8 7 6 6 7 7 8 8 9 9 10 10 10 10 10 10 10 10 9 10 10 10 11 12 12 13 14 14 15 16 17 18 19 20
8 8 9 9 10 10 10 9 8 8 7 7 7 8 8 9 10 10 10 11 11 12 12 12 12 12 12 12 13 13 14 14 15 16 16 17 18 18 19 20 21 22 22
9 9 10 10 11 11 10 10 9 9 9 10 10 10 11 11 11 11 12 12 13 13 14 14 14 15 15 16 16 16 16 17 18 18 19 20 20 21 22 22 23 23 24
11 11 12 12 12 12 12 12 11 11 12 12 13 13 13 13 13 14 14 15 15 15 16 16 17 17 18 18 19 19 20 21 21 22 22 23 23 24 24 25 25 26 27

GEFSGL_500_meanwind_168.txt.gz
Wind_Speed
20 22 22 23 23 23 23 23 22 22 23 23 23 22 22 22 22 21 21 21 22 22 22 22 23 22 23 22 23 24 25 25 26 26 26 26 27 27 28 29 29 29 29
20 22 22 22 22 22 22 22 22 22 22 22 22 22 22 22 21 21 20 20 21 21 21 22 22 22 22 22 22 23 24 23 23 24 25 25 25 26 26 27 27 28 28
20 20 21 21 21 21 21 22 22 22 21 21 21 21 22 21 21 20 20 20 20 21 21 21 21 20 20 21 21 21 21 22 22 22 23 24 24 24 24 25 26 26 27
19 19 20 20 20 20 20 21 21 20 20 21 21 21 21 21 20 20 20 20 20 19 19 18 18 18 19 19 20 20 20 21 21 22 22 22 22 23 23 23 23 24 25
17 17 18 19 19 19 18 19 19 19 19 20 20 20 19 18 19 19 19 19 18 16 16 15 16 16 17 18 18 18 19 20 20 20 20 20 20 21 21 21 22 22 22
15 16 17 17 17 17 17 18 18 18 18 19 19 18 18 18 18 17 16 16 14 14 14 15 15 16 17 17 17 17 18 18 18 18 19 19 19 19 19 20 20 20 21
14 15 16 16 16 16 16 17 17 17 17 17 18 17 17 17 16 16 14 13 13 13 13 14 15 15 15 16 16 16 16 16 16 16 16 16 17 17 17 17 18 18 18
14 15 15 16 15 15 15 16 16 15 15 16 16 16 16 15 15 14 13 13 12 12 13 13 13 13 13 13 13 13 13 13 13 14 14 14 14 14 15 15 15 16 16
13 14 14 15 15 15 15 15 14 14 15 16 16 15 15 14 13 13 13 12 12 12 12 12 12 11 11 11 11 10 10 10 11 12 12 13 12 12 12 12 13 14 14
12 13 13 13 13 13 13 13 13 14 14 15 15 15 14 14 13 13 13 12 12 11 10 10 10 9 9 9 8 8 8 8 9 9 10 10 9 9 10 10 11 12 13
12 12 12 13 13 13 12 12 13 13 14 15 15 14 14 14 14 13 12 12 11 10 10 9 8 8 7 6 6 7 7 7 7 7 7 8 8 8 9 9 10 11 12
11 11 12 12 12 12 12 12 13 13 14 14 14 14 14 13 13 13 12 11 11 10 9 8 8 6 5 5 5 6 6 6 6 6 7 7 7 7 7 8 9 10 10
11 11 11 12 12 11 11 12 13 13 13 14 14 13 13 13 13 13 13 12 11 10 9 8 8 7 6 5 5 4 4 4 4 5 5 5 6 6 7 7 8 8 8
10 10 11 11 11 11 12 12 13 13 13 14 14 14 14 14 14 13 13 12 11 10 9 9 8 8 7 5 4 4 4 4 4 4 4 5 6 6 6 7 7 8 8
9 9 10 10 11 12 12 12 12 13 13 13 14 14 14 14 14 13 13 13 12 10 10 9 8 8 7 7 6 5 5 4 3 4 5 5 6 6 6 6 6 7 7
8 9 10 11 11 11 12 13 13 12 13 13 13 13 13 13 14 13 13 13 12 11 10 10 9 8 8 7 7 6 5 4 3 3 4 5 6 6 6 7 7 8 8
9 9 10 11 11 12 12 12 12 12 13 13 13 13 13 13 13 13 14 13 13 12 11 11 10 9 9 8 7 7 6 5 5 6 6 6 6 7 7 8 8 9 10
9 10 11 11 12 12 12 12 12 12 12 12 13 13 13 13 13 13 13 13 13 12 12 11 11 10 10 10 9 8 7 7 7 7 8 8 7 8 9 10 10 11 12
9 10 11 11 12 12 12 12 12 12 12 12 12 12 13 13 13 13 13 13 13 13 12 12 12 11 11 11 10 10 9 9 9 9 9 9 9 9 10 11 11 12 13
9 10 11 11 12 12 12 12 12 13 13 13 13 12 12 12 12 12 12 13 13 13 13 13 13 12 11 11 11 11 11 11 10 10 10 10 10 11 11 12 13 13 15
10 10 11 12 12 12 13 13 13 13 13 13 13 12 12 12 13 13 13 13 13 14 14 13 13 13 12 12 12 12 12 12 12 12 12 12 12 13 13 14 15 15 16
10 11 12 12 13 13 14 14 14 14 14 14 13 12 12 13 13 14 14 14 14 14 14 14 15 14 14 14 15 14 14 14 14 14 14 14 15 16 17 17 17 18 18
11 11 12 13 14 14 15 15 15 15 14 14 14 14 14 14 15 15 15 15 16 16 16 16 16 16 17 17 16 16 16 16 17 17 17 17 18 18 19 19 20 20 20
11 12 13 14 15 16 16 16 16 15 15 15 15 16 16 16 16 17 17 17 17 18 18 18 18 18 18 19 19 19 19 19 20 20 21 20 20 21 22 22 22 23 23
13 14 15 16 16 17 17 17 17 16 16 17 17 17 17 17 18 19 19 19 19 19 20 20 20 20 21 21 21 22 22 22 23 23 23 23 23 23 24 24 24 25 25
15 16 17 17 17 17 18 18 17 17 18 18 18 19 19 20 20 20 20 20 21 21 21 22 23 23 23 23 24 24 25 25 25 25 25 25 25 26 26 27 27 27 28

GEFSGL_500_meanwind_174.txt.gz
Wind_Speed
21 21 21 21 21 21 21 21 21 20 21 21 21 22 21 21 21 21 22 22 22 22 23 23 23 23 23 23 23 24 24 24 23 23 24 25 25 25 26 26 28 28 29
19 20 20 19 20 20 20 19 19 20 20 20 21 21 21 21 20 21 21 21 22 22 22 22 22 23 22 22 22 23 23 22 22 22 22 23 24 24 24 25 26 27 27
19 19 18 18 19 19 18 19 19 19 20 20 20 20 19 19 19 20 20 21 21 21 21 21 21 22 21 21 21 21 21 21 21 21 21 21 22 23 23 24 24 25 25
17 17 17 18 18 18 18 19 19 19 19 19 19 18 18 18 19 19 19 19 19 19 19 19 19 20 19 19 19 19 20 20 20 19 20 20 21 21 22 22 22 22 23
15 16 16 17 17 17 18 18 18 18 18 18 18 18 18 18 19 19 19 19 19 18 18 18 18 18 17 17 17 17 18 18 18 19 19 19 19 19 20 20 20 20 21
14 15 16 16 16 16 16 17 17 17 17 17 17 17 17 18 18 19 19 18 18 17 16 15 15 15 14 15 15 16 16 17 17 17 18 18 18 18 18 19 18 19 19
13 14 14 14 15 15 16 16 17 17 17 17 16 17 17 17 17 18 18 17 16 15 14 14 14 14 13 13 14 14 14 15 16 17 16 16 16 17 17 17 17 17 17
13 13 13 13 14 15 15 15 16 16 16 16 15 16 16 17 17 17 16 15 15 14 13 13 13 12 12 12 12 12 12 13 14 14 14 14 15 15 15 16 16 16 16
11 12 12 12 13 14 14 14 14 15 15 15 15 15 15 15 15 15 14 14 14 14 13 13 13 13 12 11 11 10 11 11 12 12 12 12 13 14 14 14 14 15 16
11 11 11 11 12 12 13 13 13 14 14 14 15 15 15 14 14 13 13 13 13 13 13 13 13 12 11 10 9 9 9 10 10 10 11 11 11 11 12 13 13 14 15
10 10 10 11 11 12 13 13 13 13 14 14 14 15 14 14 14 13 13 13 14 14 13 13 11 10 10 9 8 8 8 8 9 10 11 11 12 12 13 13 13 13 14
9 9 9 10 11 11 12 12 13 13 14 14 14 15 14 14 13 13 13 14 14 13 13 12 10 10 9 8 8 8 8 8 9 9 9 10 10 11 11 12 13 14 14
8 8 9 9 10 11 12 12 13 13 14 14 14 15 14 14 13 13 14 14 14 13 12 11 10 9 9 8 8 7 7 7 8 8 8 9 10 10 11 12 13 13 14
7 8 8 9 10 11 11 12 12 13 13 13 14 14 13 13 13 13 13 13 13 13 12 11 10 10 9 8 8 7 7 6 7 7 8 9 10 10 11 11 12 12 14
7 7 8 8 9 10 11 12 12 13 13 13 14 13 13 13 12 13 13 12 13 12 12 11 11 10 10 9 8 8 7 7 8 8 8 9 10 10 11 11 12 12 14
7 8 8 9 9 9 10 11 13 13 14 14 14 13 13 12 12 12 12 12 12 12 12 12 11 10 10 10 9 9 9 8 9 9 9 9 10 10 11 12 12 12 12
7 8 8 9 9 10 11 12 13 13 13 14 14 13 13 13 13 12 11 11 11 12 12 12 11 11 11 11 11 10 10 9 9 10 10 10 10 10 10 11 12 12 12
7 8 9 9 10 11 12 12 13 13 13 14 14 14 13 13 13 12 12 12 12 12 12 12 12 12 12 11 11 11 10 10 11 11 10 11 11 11 11 12 13 13 13
8 8 9 10 11 12 12 12 13 13 14 14 14 14 14 13 12 12 12 12 12 12 13 13 13 13 12 12 12 12 12 12 12 12 12 12 12 13 14 14 14 15 15
8 9 10 11 12 12 13 14 14 14 14 14 14 14 15 14 14 13 13 13 13 13 14 14 13 13 13 13 13 13 13 13 13 13 13 14 14 15 15 15 15 16 16
9 10 11 12 13 13 14 14 15 15 15 15 15 15 15 15 15 14 15 15 15 15 15 15 15 15 15 15 14 14 15 15 16 16 16 16 16 16 16 16 16 17 17
10 11 12 13 14 14 15 15 15 16 16 16 15 16 16 16 16 17 17 17 17 16 16 16 16 16 16 16 17 17 17 17 18 18 17 18 18 17 18 18 19 19 19
11 12 13 14 14 15 15 16 16 16 16 16 16 16 17 17 18 18 18 19 18 18 18 17 17 17 17 18 19 20 20 20 19 19 19 20 20 20 20 21 21 20 20
12 13 14 15 15 16 16 17 17 17 17 17 17 18 18 18 19 20 20 20 20 20 20 20 19 19 20 20 21 21 22 22 21 21 21 21 21 22 22 23 23 23 22
13 14 15 16 17 17 17 18 18 18 19 19 19 19 20 20 20 21 21 21 22 22 22 22 22 22 22 22 23 23 24 24 24 24 25 25 24 24 24 24 24 24 24
14 15 16 17 18 18 19 19 19 19 20 20 20 21 21 21 22 22 22 23 23 23 23 24 24 25 25 24 25 26 26 26 26 26 26 27 27 26 26 26 26 25 26

GEFSGL_500_meanwind_180.txt.gz
Wind_Speed
23 23 23 23 23 23 23 24 24 24 24 23 23 22 22 21 21 21 21 20 20 21 21 21 22 22 22 23 23 23 23 23 24 24 24 23 23 23 23 23 23 24 24
22 22 22 21 21 22 22 23 23 23 23 21 22 21 21 21 20 20 20 20 20 21 22 22 22 22 21 21 21 22 23 23 23 23 22 22 22 22 22 22 22 23 23
22 22 21 21 21 21 20 20 20 20 19 20 20 19 19 19 20 20 20 21 21 22 22 22 21 21 21 21 22 22 23 23 22 21 20 20 21 21 21 21 21 21 21
20 20 20 20 20 19 18 19 19 19 19 19 18 18 18 18 18 19 20 21 22 21 21 21 20 20 20 21 21 22 22 22 21 20 20 20 20 20 20 20 19 19 19
19 19 18 18 18 18 17 18 18 17 17 17 17 17 18 18 18 19 20 21 21 20 20 19 19 19 19 20 20 20 20 20 19 20 20 19 19 19 19 19 19 19 19
18 17 17 17 17 16 16 16 17 16 17 17 17 17 18 18 19 19 20 20 20 19 19 19 18 18 19 19 19 18 18 17 17 17 17 18 18 19 19 19 19 19 19
17 16 16 15 15 15 15 16 16 17 17 18 18 18 18 18 19 19 19 19 18 18 18 18 18 17 17 17 17 17 17 16 16 16 16 17 17 18 18 19 19 19 18
16 15 14 14 15 15 15 16 17 17 18 18 17 18 18 18 18 19 19 18 18 17 17 16 16 16 17 17 17 16 15 15 15 15 15 16 16 16 17 17 18 18 18
14 14 14 14 15 15 15 16 17 17 17 17 17 18 18 19 19 19 18 18 17 17 16 16 16 16 16 16 15 14 13 12 12 13 13 14 15 15 15 16 17 18 18
12 13 13 14 14 14 15 16 17 17 17 17 17 18 18 19 19 18 17 17 16 16 16 16 16 16 15 14 14 13 12 11 11 11 12 12 13 14 14 15 16 17 18
11 12 13 14 14 14 15 16 16 17 17 17 17 18 18 18 18 17 17 16 16 16 16 16 16 15 14 13 12 12 11 10 10 10 11 11 11 12 13 14 14 16 17
10 11 12 13 13 14 15 16 16 17 17 17 17 17 18 18 18 17 16 16 16 16 16 15 14 14 13 12 12 11 10 10 10 9 10 10 11 11 11 12 13 15 16
10 10 12 12 12 13 14 15 16 16 17 17 17 17 18 18 18 17 17 16 16 16 15 15 14 13 13 12 12 12 11 10 10 10 10 10 11 11 12 13 15 16 17
9 10 11 11 12 13 14 15 15 15 16 17 17 17 17 18 18 17 16 16 16 15 15 15 14 14 13 12 12 11 11 11 11 11 12 12 12 12 13 14 15 16 16
9 9 10 11 12 13 14 15 15 16 17 17 17 17 17 18 18 17 17 16 16 16 16 15 15 14 13 13 12 11 11 12 12 12 13 13 13 13 13 14 15 16 17
8 9 11 11 12 13 14 14 15 16 16 17 17 17 17 18 18 18 18 17 16 15 15 15 15 14 14 14 13 13 14 14 13 14 14 14 14 14 14 14 15 15 16
8 10 11 12 12 13 14 15 15 16 16 17 18 18 19 19 19 19 19 18 17 16 16 16 15 15 15 15 15 15 15 15 15 15 16 16 16 15 15 15 16 16 16
9 10 11 12 13 13 14 15 16 16 17 18 18 18 19 19 20 19 19 19 18 18 18 18 16 16 16 16 16 16 16 17 17 17 16 16 16 16 17 17 17 17 17
9 10 12 12 13 14 15 16 17 17 18 19 19 19 19 19 19 20 20 20 20 20 19 18 18 19 18 17 16 16 17 18 18 18 18 18 18 18 18 18 18 17 18
10 11 12 13 14 16 17 18 18 18 19 19 19 19 20 19 20 20 20 20 20 21 20 20 20 20 19 18 18 18 18 18 19 19 19 19 19 19 19 19 18 18 19
11 12 13 15 16 17 18 19 19 19 20 20 20 20 21 20 20 21 20 21 21 21 21 21 22 21 21 20 20 20 19 19 20 20 20 21 21 21 20 20 20 20 20
12 13 15 16 17 18 19 20 20 20 20 20 20 20 20 21 22 22 22 23 23 24 23 23 23 22 22 22 21 22 22 22 22 22 23 23 23 23 23 23 22 22 22
13 14 15 16 17 18 19 20 21 21 21 21 22 22 21 22 23 23 24 25 25 25 25 25 24 24 23 23 23 24 24 24 25 25 25 25 25 25 25 25 25 24 23
13 14 15 16 18 19 20 21 21 21 21 22 22 22 22 23 24 25 26 26 26 26 26 26 26 26 26 26 26 26 26 27 27 26 26 26 27 27 26 26 26 26 25
14 15 16 17 19 20 21 21 22 22 22 22 22 23 23 24 25 26 27 27 28 27 28 28 27 27 28 28 28 28 28 28 27 28 28 27 27 27 27 27 26 26 25
15 16 17 19 20 21 22 22 22 22 23 23 24 24 25 26 27 28 29 29 29 29 30 30 30 29 29 29 29 28 29 29 29 29 28 28 27 27 27 27 26 26 25

GEFSGL_500_meanwind_186.txt.gz
Wind_Speed
20 21 21 21 22 22 22 22 22 21 20 20 19 19 19 20 20 20 20 21 21 21 21 21 21 20 21 21 21 21 22 22 21 22 23 24 24 24 24 24 24 25 26
20 21 21 20 21 21 21 21 20 19 19 18 18 18 19 19 20 20 20 20 20 20 20 20 20 21 20 20 20 21 22 22 22 21 22 22 23 24 24 23 23 24 24
20 21 21 21 20 20 20 19 19 19 18 18 18 18 19 19 19 19 20 20 19 19 19 19 20 20 19 19 19 20 21 21 21 21 22 22 22 22 23 23 23 23 23
19 19 19 19 19 19 18 18 18 18 18 18 18 18 18 19 19 19 20 19 18 18 19 19 19 18 18 19 19 20 21 21 21 22 21 21 21 22 23 22 22 22 22
18 18 18 17 17 17 17 17 17 17 17 18 17 18 18 18 19 19 19 19 19 19 18 18 18 18 18 19 19 19 20 20 21 21 20 20 20 21 22 21 21 21 21
16 16 15 15 15 15 15 16 17 17 17 18 18 18 18 18 18 18 17 18 18 18 18 18 17 17 17 17 18 18 18 19 20 19 19 19 18 19 20 20 20 20 21
14 14 14 14 15 15 16 16 17 17 17 18 18 18 18 18 17 17 17 17 17 17 18 17 17 17 17 17 17 17 16 16 16 16 17 17 17 18 18 19 19 20 20
13 13 14 15 15 15 15 15 16 16 17 17 17 17 17 17 17 17 18 18 17 17 18 17 17 16 16 17 16 16 15 14 15 15 16 16 16 16 16 16 17 18 19
12 13 13 14 14 14 14 15 16 15 15 16 16 16 17 17 17 17 18 18 17 17 17 17 17 16 16 15 15 15 14 14 14 14 14 13 13 13 14 14 15 16 18
11 12 12 12 13 13 14 15 15 15 15 15 15 16 16 17 17 17 17 17 17 17 17 17 16 16 15 15 14 14 13 13 12 12 11 12 11 12 12 13 14 15 16
10 10 10 10 11 12 13 13 14 14 15 15 16 16 17 17 17 17 17 17 17 17 17 17 16 15 15 14 14 14 13 12 11 11 11 11 11 12 13 14 15 15 16
8 9 10 10 11 12 12 13 14 14 15 15 16 16 17 17 17 17 17 16 16 17 17 17 16 15 14 14 13 13 13 12 12 12 12 12 12 12 13 14 14 15 16
8 9 9 10 11 11 13 14 15 15 15 16 16 16 17 17 17 17 17 17 17 17 17 16 15 15 14 14 13 13 13 13 13 13 13 13 13 13 13 14 14 15 16
8 8 8 9 11 12 13 14 14 15 15 16 16 17 17 17 17 17 18 18 17 17 16 16 16 16 15 14 14 14 14 14 14 14 14 14 14 14 14 14 15 16 16
7 7 8 9 11 12 13 14 14 15 15 16 16 17 17 18 18 18 18 18 17 17 16 16 16 16 16 16 16 15 15 15 15 15 15 15 15 16 16 16 16 17 17
7 7 8 9 11 12 13 14 15 15 16 16 16 17 17 18 18 18 18 18 18 18 18 17 17 17 17 16 16 16 16 16 16 16 16 16 16 16 17 17 17 18 18
7 8 9 10 11 12 13 14 15 16 17 17 17 18 18 19 18 18 19 20 20 20 19 18 18 18 18 17 17 17 17 17 17 17 17 17 17 17 18 18 18 19 19
7 8 9 10 11 13 14 15 16 16 17 17 18 18 18 18 19 19 20 21 21 21 20 19 19 19 19 19 19 19 19 18 17 18 18 19 19 19 19 20 20 20 20
7 8 9 11 12 14 15 15 16 17 17 18 18 19 19 19 20 20 21 22 22 22 22 21 20 20 20 20 20 20 19 18 18 18 19 19 19 19 19 20 20 20 21
8 9 11 12 13 14 15 16 17 18 18 19 19 19 20 20 21 22 22 22 22 22 22 22 21 21 21 21 21 20 20 19 19 20 20 20 20 20 20 20 20 21 21
9 10 11 12 13 14 16 17 18 19 19 19 20 20 20 21 21 22 22 23 24 24 23 23 22 23 23 23 22 22 22 22 22 22 22 21 21 21 21 21 22 22 22
9 10 11 12 13 15 16 18 18 19 19 19 20 21 21 21 22 23 24 25 25 26 25 24 24 24 24 24 24 24 24 24 24 24 23 23 23 22 23 23 23 23 23
10 10 11 13 14 15 17 18 18 19 20 21 22 22 22 22 23 24 25 26 27 27 27 26 25 25 25 25 25 25 25 25 25 24 24 24 24 24 23 23 23 23 23
10 11 12 14 15 16 18 19 19 20 21 22 22 23 23 24 25 26 27 28 28 28 27 27 27 27 27 27 26 26 26 25 25 24 24 24 24 24 24 24 24 24 23
11 12 13 14 16 17 18 19 20 20 21 22 23 24 25 26 27 28 28 28 28 28 28 28 28 28 28 27 27 26 26 26 25 24 24 24 24 24 24 24 24 24 24
12 13 14 15 16 18 19 20 21 22 23 23 24 25 26 27 28 28 28 29 29 29 29 30 29 29 28 28 28 28 27 27 26 25 25 25 25 25 25 24 25 24 24

GEFSGL_500_meanwind_192.txt.gz
Wind_Speed
21 21 22 22 23 22 21 22 22 21 22 22 23 23 22 23 22 22 22 23 23 23 23 24 24 24 23 23 23 23 23 22 22 23 24 25 26 27 27 27 27 28 29
20 20 21 21 21 21 21 21 22 22 22 22 22 22 21 21 22 22 22 22 22 23 23 23 23 23 23 22 22 23 23 22 22 22 23 24 25 25 26 26 26 27 28
19 19 19 19 19 20 20 21 21 21 21 21 21 21 21 21 22 22 22 23 23 23 23 23 22 22 22 22 22 22 22 22 22 22 22 23 24 25 24 25 25 26 27
18 18 18 18 18 19 19 19 19 19 20 20 20 20 21 21 22 23 23 23 23 23 22 22 22 21 22 22 22 21 21 21 22 22 21 22 23 23 23 24 24 25 26
17 17 17 17 17 18 18 18 18 19 19 19 19 20 21 21 22 22 21 21 21 21 22 22 23 22 22 22 20 20 21 21 21 22 21 21 21 22 22 22 23 23 24
17 17 17 16 16 17 17 18 18 19 18 19 19 19 19 20 20 20 20 20 20 20 21 22 22 22 22 21 20 19 19 20 20 21 21 21 21 21 22 22 22 22 23
16 16 15 15 15 16 17 17 18 18 18 18 18 19 19 19 19 19 19 20 19 19 20 21 21 20 20 20 19 19 19 20 20 20 20 20 20 20 20 20 20 21 22
14 14 13 14 15 15 16 16 17 18 17 17 18 19 19 19 19 18 19 19 19 19 19 20 19 19 19 18 18 19 19 19 19 18 18 18 19 19 19 19 19 20 21
13 12 13 13 13 14 14 15 17 17 17 17 18 18 19 19 19 19 19 19 19 19 19 18 18 18 18 18 18 18 18 18 18 17 17 17 18 18 18 18 18 19 20
12 12 12 12 12 13 14 15 16 17 17 17 18 18 18 18 18 19 19 19 18 18 18 18 18 18 19 19 18 18 17 18 17 16 16 16 16 16 17 17 17 17 17
12 11 11 12 12 13 14 15 16 16 17 17 18 18 18 19 19 19 19 19 18 18 18 18 18 19 18 18 18 18 17 17 16 15 15 16 16 16 16 16 16 17 16
10 11 11 12 12 13 14 15 15 16 16 17 17 18 18 19 19 19 19 19 19 19 18 18 19 19 19 18 18 18 17 16 16 16 16 16 16 16 17 17 17 17 17
9 10 11 11 12 12 13 14 15 16 17 17 18 18 19 19 19 20 20 21 20 19 19 19 19 19 19 20 20 19 18 17 17 17 17 16 16 16 17 17 18 18 19
9 10 10 10 10 11 12 14 14 15 16 16 17 18 19 19 20 21 21 21 21 20 20 21 21 21 21 20 19 19 19 19 19 18 17 17 17 17 17 17 18 19 19
9 9 9 10 11 12 13 14 15 15 16 17 17 18 19 19 20 21 22 22 22 22 22 22 22 22 21 21 21 20 20 19 19 18 18 18 18 18 18 18 18 19 20
8 9 9 10 11 12 13 14 15 16 17 17 18 19 20 20 21 22 22 22 22 23 23 23 23 23 23 22 22 21 20 20 20 20 19 19 19 18 18 18 18 19 20
8 9 9 10 11 11 13 14 16 17 18 19 19 20 21 22 22 22 22 23 24 25 25 25 24 24 23 23 22 21 20 20 20 20 20 20 20 19 19 19 19 20 20
8 9 10 11 11 13 14 15 16 18 18 20 20 20 21 22 22 23 24 24 25 25 25 25 24 24 24 24 22 21 21 20 20 20 20 20 21 20 20 21 21 22 21
8 9 10 11 12 13 15 16 17 19 19 20 21 21 21 22 23 24 25 26 26 26 25 25 25 25 25 24 23 22 21 21 21 22 22 21 22 21 21 22 22 22 22
8 9 10 11 12 14 15 17 18 19 20 21 21 21 21 22 24 25 26 27 27 27 26 26 26 26 25 25 24 23 23 22 22 22 23 22 22 22 22 22 22 21 22
8 10 11 12 13 14 16 18 19 20 21 22 22 23 23 24 25 26 27 27 28 27 28 28 28 27 26 25 25 24 24 23 23 23 23 23 23 23 23 23 23 22 22
9 10 11 12 13 15 17 18 19 21 22 22 23 24 24 25 26 27 27 28 28 28 29 29 28 28 27 26 26 26 24 24 24 24 24 24 24 24 24 24 24 23 23
9 10 11 12 14 15 17 19 20 21 22 22 24 25 26 26 27 28 28 29 29 29 29 29 29 28 28 27 27 27 26 25 25 26 26 26 26 25 25 25 24 24 24
10 11 12 13 15 16 17 19 20 21 22 24 25 25 26 27 28 28 29 29 29 29 30 30 30 29 29 29 29 28 27 27 26 26 26 26 26 26 26 26 25 25 24
11 12 13 14 15 17 18 19 21 22 23 25 25 26 27 28 29 29 30 30 30 30 31 31 31 30 30 30 30 29 29 28 28 27 27 27 26 26 25 25 24 23 23
12 13 14 15 16 17 18 20 21 23 24 25 26 27 28 29 30 30 30 30 30 31 31 31 31 31 31 30 30 30 30 29 29 28 27 26 25 25 24 23 22 22 21

GEFSGL_500_meanwind_198.txt.gz
Wind_Speed
21 22 22 21 21 21 21 21 21 21 21 22 22 21 21 22 22 21 22 22 23 23 23 24 23 24 23 23 23 23 23 23 23 24 25 25 25 26 27 27 27 27 28
20 20 20 19 19 19 20 19 20 20 21 22 21 21 21 21 21 21 21 23 23 22 22 22 22 23 23 23 23 23 23 23 23 23 23 24 25 25 25 25 26 27 28
19 19 18 18 18 18 18 18 18 19 20 21 21 20 20 20 20 21 21 22 22 22 22 22 21 22 22 23 23 22 23 23 23 23 23 23 24 24 24 24 24 25 27
18 18 18 17 17 17 17 17 17 17 18 19 20 20 20 20 20 20 21 21 21 21 21 20 20 21 22 22 22 22 22 22 22 22 22 23 23 23 23 23 24 24 25
17 17 17 16 16 17 17 17 16 16 18 19 19 20 20 20 20 20 20 20 19 19 19 19 19 20 20 21 21 21 21 22 22 22 22 23 23 23 23 23 23 24 23
16 16 16 15 15 15 15 15 15 16 17 18 19 19 19 19 20 20 20 20 19 19 19 19 20 20 21 21 21 21 21 22 22 21 22 22 22 22 23 23 23 22 22
15 15 15 14 15 14 14 14 15 16 17 17 18 19 19 19 20 20 21 20 20 20 20 20 21 21 21 21 20 20 21 21 21 21 22 22 21 21 21 21 21 22 22
14 13 13 14 14 14 14 14 15 16 17 17 18 18 19 19 20 20 20 20 20 20 20 21 21 21 21 20 20 21 21 21 21 21 21 20 20 20 20 20 20 21 22
12 13 13 14 14 13 13 14 14 15 16 17 18 18 18 19 20 20 20 21 20 20 20 20 20 20 20 20 20 20 20 20 21 20 20 20 19 19 18 19 19 19 20
12 12 13 13 12 12 13 12 13 14 16 17 17 18 19 19 19 20 20 20 21 21 21 20 20 20 21 20 20 20 21 20 20 20 19 19 19 19 19 19 20 20 19
11 11 11 11 11 11 12 12 13 15 16 17 17 17 18 19 19 21 21 21 21 21 20 20 20 21 21 21 21 21 21 20 20 19 18 19 19 19 19 20 19 19 19
10 10 10 10 11 11 12 12 14 15 16 16 16 17 18 19 20 20 21 22 22 21 21 21 21 20 20 20 20 20 20 20 19 19 19 19 18 18 18 19 20 19 20
9 10 10 11 11 11 12 13 14 15 16 16 16 17 18 19 20 21 21 22 22 21 21 21 20 20 20 20 20 20 20 20 20 19 19 19 18 19 19 19 19 20 20
10 10 10 11 11 11 12 13 14 15 16 16 16 17 18 19 20 21 21 21 21 21 21 21 21 21 21 21 21 21 21 20 20 20 19 19 19 19 19 19 19 19 19
10 11 11 11 11 12 13 14 15 15 15 16 17 18 19 20 20 21 21 21 21 22 22 21 21 22 22 22 22 21 21 21 20 20 19 19 18 18 18 19 20 20 19
10 11 11 10 11 12 13 14 15 15 16 17 17 18 18 20 21 21 22 22 23 23 24 23 22 23 23 23 22 22 22 21 20 19 18 18 18 18 18 19 19 19 19
8 9 10 10 11 12 13 14 15 16 16 17 17 17 18 20 21 23 23 23 24 24 24 24 23 23 23 23 22 22 21 20 20 19 19 19 19 19 20 20 21 21 21
7 8 9 10 11 12 13 15 15 16 17 17 17 18 19 21 22 23 24 24 24 24 24 24 24 23 23 23 23 22 21 21 20 19 19 19 19 20 20 20 20 20 21
7 8 10 11 12 12 13 14 15 16 17 17 18 19 21 22 23 23 24 24 25 25 25 25 24 24 25 24 24 23 22 21 21 20 20 20 20 20 20 20 20 21 21
8 9 10 11 12 13 14 14 15 16 17 18 19 20 21 22 23 24 25 25 25 25 26 26 25 25 25 25 24 23 22 21 21 21 20 20 21 21 20 20 20 20 20
9 10 11 12 12 13 14 15 16 16 17 18 19 21 22 23 23 24 25 26 27 26 26 26 26 26 26 25 25 24 23 22 22 22 21 21 21 21 22 21 21 21 21
9 10 11 12 13 14 15 16 16 17 18 19 19 21 22 23 24 25 26 27 27 27 27 27 27 26 26 26 26 25 24 24 23 23 23 22 22 22 22 22 22 22 22
10 10 11 12 14 15 15 16 17 18 18 19 20 22 23 24 25 26 27 27 27 26 27 27 27 27 27 27 27 26 25 25 24 24 24 24 23 22 22 22 22 21 21
10 10 11 13 14 15 16 17 18 19 19 20 21 22 24 25 26 26 27 27 27 27 27 27 27 27 27 27 27 26 25 25 25 25 24 23 23 22 21 21 20 20 19
10 11 12 14 15 15 16 17 18 20 21 22 23 23 24 25 26 27 27 28 27 28 28 27 27 27 27 27 27 26 26 26 26 25 24 23 22 22 20 20 20 19 19
11 12 13 14 15 16 17 18 19 20 21 23 24 24 25 26 26 27 28 28 28 28 27 27 27 27 27 27 27 26 26 26 26 25 24 23 22 21 20 20 19 19 18

GEFSGL_500_meanwind_204.txt.gz
Wind_Speed
21 21 21 22 22 22 21 20 21 22 23 23 23 23 23 23 23 23 24 24 24 25 25 25 26 25 25 25 25 25 25 25 25 25 25 25 24 24 25 26 26 27 27
21 21 20 21 21 20 19 20 21 21 22 22 22 22 23 23 24 24 24 24 24 24 24 25 24 25 25 24 24 24 24 24 25 25 25 25 25 25 25 26 26 26 26
20 20 20 21 20 19 19 20 21 21 21 21 21 22 23 24 24 24 23 23 23 23 23 23 23 23 24 24 24 24 24 24 24 24 25 25 25 25 24 24 25 25 26
20 20 19 19 19 19 19 20 20 21 21 20 21 21 23 24 24 24 23 22 23 23 23 23 23 23 23 23 23 24 24 24 24 24 25 25 25 25 24 24 24 24 25
19 19 19 19 18 18 19 19 20 20 20 20 21 21 22 23 24 24 23 23 24 24 23 23 23 23 22 23 23 23 23 23 23 23 24 24 24 24 24 24 24 24 25
18 18 18 18 17 18 18 18 19 19 20 20 21 21 22 23 23 23 23 24 23 24 23 23 23 23 23 23 23 23 24 24 24 24 24 24 24 24 24 25 25 24 24
17 17 17 17 16 16 16 17 18 18 19 20 21 21 22 22 22 22 23 24 23 23 23 23 23 23 23 23 23 23 24 24 24 25 25 25 25 25 25 24 24 24 24
15 15 16 15 15 16 15 16 16 18 19 19 21 21 21 22 22 23 23 24 24 23 23 23 23 23 23 23 24 24 24 24 24 25 25 25 25 25 25 24 23 23 24
13 14 14 14 14 14 15 15 16 17 18 19 21 21 21 22 22 22 22 23 24 24 24 24 24 24 24 23 24 24 24 24 24 25 26 26 25 25 24 24 23 23 23
12 13 14 14 14 14 15 16 17 17 18 20 20 21 21 21 21 22 23 24 25 25 25 25 24 24 24 24 23 23 24 24 24 25 25 25 24 23 23 23 23 22 21
12 13 13 14 14 14 15 16 17 18 19 20 20 21 21 21 21 23 24 25 25 26 25 24 24 23 23 22 22 23 23 23 23 24 23 23 22 21 21 20 20 20 20
13 13 14 14 14 15 15 16 17 18 20 20 20 21 21 22 22 23 24 25 25 26 25 25 24 22 22 23 23 23 23 22 22 21 21 20 19 19 19 19 19 20 20
12 13 14 14 15 15 16 17 18 19 20 20 21 21 21 22 22 22 23 24 24 25 25 25 24 23 23 24 23 23 22 22 21 20 19 19 19 19 19 19 19 19 19
12 13 13 14 15 16 17 17 18 19 19 20 20 20 21 21 21 22 23 24 25 25 26 26 25 25 24 24 23 22 22 22 21 20 20 19 19 18 18 17 18 18 18
13 13 13 14 15 15 16 17 18 18 19 19 20 20 21 22 23 23 24 24 24 25 25 25 25 25 25 24 24 24 23 22 20 20 19 18 17 17 17 17 18 19 19
13 13 14 15 16 17 18 18 18 19 19 19 20 20 21 23 24 24 24 24 25 25 25 25 25 26 26 26 25 24 24 22 21 20 19 19 17 17 17 17 18 18 19
12 13 14 15 16 17 18 19 18 18 18 18 19 21 22 22 23 24 24 25 25 25 25 26 26 27 26 26 25 24 24 22 21 20 19 19 18 18 18 18 19 20 20
12 14 14 15 16 17 17 18 18 18 18 19 19 21 22 23 23 23 24 25 25 25 25 26 26 26 26 25 25 24 24 22 21 21 21 20 19 18 18 20 20 20 20
12 13 14 15 16 16 17 17 18 18 19 19 20 21 22 24 24 24 25 26 26 26 26 26 26 26 25 25 25 24 24 23 22 20 21 20 19 19 19 19 20 20 20
12 13 14 15 15 16 17 17 18 18 19 20 20 22 23 24 24 25 26 27 27 27 27 27 27 26 26 25 25 24 24 23 22 21 20 20 20 19 19 19 20 20 20
12 12 13 14 15 16 17 17 18 19 20 21 22 23 24 24 25 26 27 27 27 27 28 27 27 27 26 26 25 24 23 23 21 21 21 21 21 20 20 20 20 20 20
12 12 13 14 15 16 16 17 18 19 20 21 22 23 24 25 25 26 27 27 27 28 27 27 27 28 26 26 25 24 23 23 22 22 22 22 21 21 21 20 20 20 20
12 12 13 14 15 16 17 18 19 20 20 21 23 24 25 25 26 26 27 28 28 28 28 28 28 28 27 26 26 25 23 22 22 22 22 22 22 21 21 20 19 19 19
11 12 13 14 15 16 17 18 19 20 21 23 24 25 26 26 27 27 27 28 28 28 28 28 27 27 26 26 26 25 24 23 22 22 22 22 22 21 21 19 18 18 18
12 12 13 14 15 17 18 19 20 21 22 23 24 25 26 27 27 27 27 28 28 28 27 27 27 27 26 25 26 25 24 23 23 23 22 22 22 22 21 20 19 19 18
12 13 14 15 16 17 18 19 21 22 23 24 25 25 26 27 27 27 27 28 28 27 27 27 27 27 27 26 26 26 25 23 23 23 23 23 22 22 21 20 20 20 19

GEFSGL_500_meanwind_210.txt.gz
Wind_Speed
20 21 22 22 20 19 19 19 18 19 19 20 20 20 21 22 23 22 22 22 23 22 22 22 22 23 23 24 23 22 22 22 22 23 24 24 25 26 26 26 26 27 28
20 20 20 19 18 17 17 17 17 18 19 19 19 20 21 21 21 21 22 22 23 23 23 22 22 22 23 23 23 23 23 23 23 23 23 24 25 26 26 26 27 27 27
18 18 17 18 17 17 16 16 17 18 18 19 19 20 20 20 20 20 22 23 23 23 23 22 22 23 23 23 23 23 23 23 24 24 24 25 25 26 27 26 26 25 26
16 16 17 16 16 16 16 16 17 17 18 19 20 20 20 20 20 21 22 23 22 22 22 22 23 23 23 24 24 23 23 23 24 24 24 24 25 25 26 27 25 25 26
15 15 16 15 15 15 15 16 17 17 17 19 20 20 20 20 20 21 22 22 21 22 22 23 23 24 24 24 23 23 23 23 23 23 23 23 24 25 26 26 25 26 26
13 14 15 15 15 15 15 16 17 17 17 18 19 19 19 20 21 21 21 21 21 22 22 23 24 24 24 23 23 22 22 22 22 23 23 24 24 25 25 25 25 25 25
13 13 14 14 13 13 15 16 16 16 17 18 19 18 19 20 20 21 21 21 22 22 23 24 24 24 23 23 22 22 22 22 23 23 23 24 24 24 24 24 24 24 24
12 13 13 13 12 13 14 15 16 17 18 18 18 18 18 19 20 21 21 22 23 23 23 24 24 23 22 21 21 22 23 23 23 23 23 23 23 24 24 24 25 24 23
12 12 12 13 13 14 15 15 16 17 17 17 17 18 18 19 20 21 22 22 23 23 23 24 24 23 22 22 23 23 23 23 23 23 23 24 24 24 24 23 23 23 22
11 11 11 12 13 14 15 15 16 16 16 17 18 19 19 20 21 22 22 22 23 23 23 24 23 23 23 23 23 23 22 22 23 23 23 23 23 23 23 22 22 22 22
11 11 12 12 13 14 15 16 16 16 16 17 18 19 20 20 21 21 22 22 22 23 23 23 23 23 24 24 23 23 22 22 22 22 21 22 23 23 22 22 22 22 21
11 11 12 13 14 15 15 16 16 16 17 18 18 19 20 21 21 21 22 22 22 22 23 23 23 23 24 23 23 23 22 21 21 20 20 20 21 20 20 20 20 20 20
11 12 13 13 14 14 15 16 16 16 17 18 19 20 20 21 21 21 22 23 23 23 23 24 24 24 24 23 23 23 22 21 20 19 20 20 19 19 19 18 19 19 20
12 12 13 14 14 14 14 15 16 17 17 18 20 20 21 20 21 22 22 23 23 24 24 25 25 24 24 23 23 23 22 21 20 20 19 19 18 18 18 18 18 18 19
11 12 13 13 13 14 14 15 16 17 18 19 20 21 21 21 22 22 23 23 23 24 24 25 25 24 23 23 22 22 21 21 20 19 19 18 18 18 18 18 18 18 19
11 12 12 13 13 13 14 15 16 17 17 18 20 20 21 21 22 23 23 23 23 24 24 25 25 24 23 22 22 21 21 20 20 19 19 18 18 18 17 18 18 18 18
11 12 13 13 13 13 13 15 15 16 17 18 19 20 21 22 23 23 23 23 24 25 24 24 24 23 22 22 21 21 20 20 19 19 19 18 18 17 17 17 17 17 18
11 12 12 13 13 14 14 15 16 16 17 18 19 20 21 22 23 23 23 23 24 25 24 24 24 23 22 22 22 22 21 21 20 19 19 18 17 17 17 17 17 17 17
11 12 12 12 13 14 14 15 16 17 18 19 19 20 21 22 23 24 24 24 25 25 24 24 24 23 23 23 23 22 22 21 21 20 19 18 18 17 17 17 17 17 17
10 11 12 12 13 14 14 15 16 17 18 19 20 21 21 23 24 24 24 25 25 25 24 24 23 23 23 23 23 23 22 21 21 21 19 19 18 18 17 17 17 17 18
10 11 12 13 13 14 14 15 16 17 18 19 20 21 23 24 25 25 25 25 25 25 23 23 23 23 23 24 24 24 23 22 21 21 20 19 19 18 17 17 17 17 17
9 10 11 12 13 13 14 15 16 18 19 20 20 22 23 24 25 25 25 25 25 25 24 24 24 23 23 24 24 24 24 22 22 21 21 20 19 18 17 17 17 18 18
9 10 11 12 13 14 15 16 17 18 19 20 21 22 24 25 25 25 26 26 25 25 24 24 24 24 24 23 24 25 25 23 22 22 21 20 19 18 17 17 18 18 17
10 10 11 12 13 14 15 16 17 18 19 20 21 22 24 25 25 25 25 25 24 24 24 23 24 23 24 24 24 25 25 24 23 22 21 20 19 18 17 18 18 18 18
10 11 12 12 13 14 15 16 17 18 19 20 22 23 24 24 25 25 25 24 24 23 23 23 24 24 23 23 24 25 26 25 23 22 22 21 20 19 18 18 18 18 19
10 10 11 12 13 14 15 16 17 18 19 20 22 23 24 24 24 24 25 24 24 23 24 24 24 24 24 24 25 26 26 26 24 23 22 22 21 20 19 18 18 19 18

GEFSGL_500_meanwind_216.txt.gz
Wind_Speed
19 20 19 19 20 20 20 20 20 21 21 22 21 22 22 22 22 23 22 22 23 24 24 24 24 25 25 25 25 26 27 27 26 25 26 27 27 28 28 29 29 29 30
17 18 18 18 19 20 20 20 20 21 21 21 21 21 22 22 22 22 22 23 24 25 25 25 25 26 26 26 27 27 28 27 27 26 26 26 27 27 28 29 29 28 29
17 17 18 18 19 19 19 19 20 20 20 20 21 21 22 21 21 21 22 24 24 25 26 26 27 27 27 27 27 27 27 28 27 27 26 27 27 28 28 28 28 29 29
15 16 17 17 17 17 17 18 18 19 19 19 21 21 21 21 21 22 23 23 24 25 25 26 26 27 27 27 27 27 27 27 27 26 26 26 27 27 28 28 28 29 30
14 15 16 15 15 15 16 16 17 17 18 18 18 19 20 20 21 22 23 23 24 24 25 25 26 26 26 26 27 27 26 26 26 25 25 25 25 26 27 27 28 28 28
14 13 13 14 14 14 15 16 16 16 16 16 17 18 19 20 21 22 22 23 23 24 24 25 26 26 26 27 26 26 25 25 25 25 25 25 25 26 27 27 27 27 27
13 13 13 13 14 15 16 16 16 15 15 16 17 17 18 19 20 21 21 22 23 24 24 24 25 26 26 26 25 25 25 25 25 25 24 25 25 26 26 26 26 26 26
13 13 12 12 13 14 15 15 16 16 15 15 16 18 19 19 21 22 22 22 23 23 24 24 25 26 25 25 24 25 25 25 25 24 25 25 24 25 25 25 25 26 26
12 13 13 13 13 14 15 15 16 16 16 16 17 19 19 20 21 22 22 22 23 23 24 25 25 25 25 25 24 24 23 23 23 23 24 24 24 24 24 24 24 25 25
12 13 14 14 14 14 15 15 15 15 16 17 18 19 20 21 22 22 22 22 23 24 25 25 25 25 25 24 24 23 23 22 22 23 24 24 23 23 23 23 24 24 24
13 13 14 14 14 14 15 14 15 16 17 17 18 20 21 22 22 22 22 23 24 24 25 25 25 25 24 24 24 23 23 22 22 22 22 23 23 23 23 23 23 23 23
13 14 14 14 14 15 15 15 16 16 17 18 19 20 21 22 22 22 23 24 24 24 24 25 24 24 24 23 23 23 23 23 22 23 23 23 23 22 22 22 22 23 23
13 14 14 14 15 15 15 16 16 17 18 19 20 21 21 22 22 23 24 24 25 25 24 24 24 24 23 23 23 23 23 22 23 23 22 22 21 21 21 21 21 21 20
13 13 14 14 15 15 16 17 17 18 19 20 20 21 22 22 22 23 24 25 25 25 25 24 24 23 23 23 23 23 22 22 22 22 21 21 20 19 18 18 18 19 19
13 13 14 14 15 16 16 17 17 18 19 20 21 21 22 22 23 23 24 25 25 25 25 24 23 23 23 23 23 23 22 22 21 21 20 19 18 18 18 18 18 18 18
13 13 14 14 15 16 16 17 17 18 19 20 21 22 22 23 23 23 24 24 24 24 24 23 23 23 24 24 24 23 22 22 21 19 19 19 19 18 18 18 18 18 18
12 13 14 15 15 16 16 17 17 18 19 20 21 22 23 23 24 24 23 23 24 24 24 24 24 24 24 24 23 23 22 22 21 20 19 19 19 19 18 18 18 18 18
12 13 15 15 15 16 17 17 18 19 20 21 21 22 23 23 24 24 23 24 24 25 25 24 24 24 24 24 24 23 22 21 20 20 20 20 20 19 19 18 18 18 18
13 14 14 14 15 16 16 17 18 19 20 21 22 23 23 24 24 24 24 24 24 24 24 24 24 24 24 25 24 24 23 22 21 21 20 20 21 20 19 18 18 18 18
13 13 14 14 15 16 17 17 18 19 20 21 22 23 23 24 24 25 25 25 24 24 24 24 24 24 25 25 25 24 23 23 22 22 21 21 20 20 19 18 18 18 17
13 14 14 15 15 16 17 18 18 19 20 21 22 23 23 24 24 25 25 24 24 24 24 24 25 25 25 25 25 25 25 23 22 22 21 20 19 19 18 17 17 17 16
14 14 15 15 15 16 17 18 18 19 20 21 22 23 23 23 23 24 24 24 24 24 24 24 25 26 26 26 26 25 24 23 22 22 21 20 19 18 18 17 17 16 16
14 14 15 15 16 16 17 17 18 19 19 20 22 22 22 23 23 23 23 23 23 23 24 25 25 26 26 26 26 24 24 23 22 22 20 20 19 18 18 17 16 16 15
14 14 15 15 16 16 17 18 18 18 19 20 20 21 22 22 22 22 23 23 23 23 24 25 26 27 27 27 26 25 25 24 23 21 21 20 19 18 18 18 17 16 15
14 14 15 15 15 16 17 17 18 18 19 19 20 20 21 22 22 23 23 23 24 24 24 25 26 27 28 28 26 24 23 23 22 21 21 20 20 19 19 18 18 17 16
14 14 15 15 15 16 16 17 17 18 18 19 19 20 21 22 22 23 23 23 24 24 25 26 27 27 27 27 25 24 23 23 23 22 22 21 21 20 20 19 18 18 17

GEFSGL_500_meanwind_222.txt.gz
Wind_Speed
13 14 15 15 15 16 17 18 19 20 20 21 20 20 22 22 22 22 23 23 23 23 24 24 24 24 25 25 26 26 26 26 26 26 27 28 29 30 31 31 32 33 32
13 13 14 14 15 15 16 18 18 18 19 19 18 19 20 21 22 23 23 23 23 24 24 24 25 25 26 26 26 26 26 27 27 27 27 27 28 29 30 31 32 33 33
12 13 14 13 14 14 15 17 17 17 17 18 18 19 20 21 22 23 22 22 23 23 24 24 25 25 26 27 27 27 27 27 26 26 26 27 27 28 29 30 31 32 32
13 13 13 13 14 15 15 16 16 16 16 17 17 18 19 21 22 21 22 22 22 23 23 24 24 25 26 26 27 27 27 27 27 26 26 27 27 27 28 29 29 30 31
13 13 13 13 14 15 15 16 15 15 16 16 17 18 19 21 21 21 21 21 21 22 23 24 24 25 25 26 26 27 27 27 26 26 26 26 26 27 28 28 28 29 30
13 13 14 13 14 15 15 15 15 15 15 16 16 17 19 20 20 20 20 20 21 22 22 23 24 25 25 25 26 26 26 26 25 25 25 25 26 26 27 27 27 27 28
13 13 14 14 14 13 13 14 14 15 15 15 17 18 18 18 19 19 19 20 21 21 22 23 23 23 24 24 24 25 24 24 25 25 25 25 25 26 26 26 26 26 27
13 14 14 14 14 13 12 13 13 14 15 16 17 17 17 18 19 19 19 20 20 21 21 22 23 23 23 23 23 23 23 23 23 24 24 24 24 24 24 25 25 26 26
13 13 14 14 13 12 12 13 13 14 15 15 16 17 18 18 18 18 19 19 20 21 22 22 23 23 23 23 23 23 23 23 22 22 22 22 23 23 23 23 23 24 24
13 13 14 14 14 14 14 14 14 14 15 15 17 17 18 18 18 18 19 21 21 22 22 22 22 22 22 21 21 21 21 22 22 22 22 22 22 22 22 22 22 21 22
13 14 13 14 14 14 14 14 14 15 15 16 17 18 18 18 18 19 20 21 22 22 23 22 22 22 21 21 21 21 21 21 21 21 21 22 22 21 21 21 21 21 21
13 13 14 14 14 15 15 15 15 15 16 17 17 17 18 18 18 19 20 21 22 22 22 22 22 21 21 21 21 21 21 21 21 21 21 21 22 21 21 21 21 21 21
13 13 14 15 15 15 15 15 16 16 16 17 18 18 18 19 19 19 20 21 22 22 22 22 21 21 21 21 22 22 22 21 21 21 21 21 21 21 21 21 21 20 20
13 14 14 15 15 15 15 16 16 16 17 17 18 18 19 20 20 20 20 22 22 22 22 22 21 20 20 21 22 22 21 21 21 20 21 21 21 20 19 19 19 19 19
13 14 14 14 15 15 15 16 16 17 17 18 18 19 19 19 20 20 21 21 22 21 21 21 21 21 21 21 22 22 21 21 20 20 20 19 19 18 18 18 18 18 18
13 13 14 14 15 15 16 16 17 17 18 18 19 19 19 19 20 20 20 21 22 21 21 21 21 21 21 22 22 22 21 21 20 19 19 18 18 18 17 16 16 16 16
13 14 14 15 15 15 16 17 18 18 18 19 18 18 18 19 20 20 21 21 22 22 21 21 21 21 22 22 21 21 20 20 19 19 19 18 17 16 16 15 15 15 15
13 14 15 15 15 16 16 17 18 18 19 19 18 18 19 19 20 20 20 21 22 22 22 21 21 21 22 22 21 21 21 20 19 19 18 17 16 16 15 15 15 15 15
14 14 15 15 16 16 16 17 18 18 18 18 19 19 19 19 20 20 20 20 21 22 22 22 22 22 22 22 22 21 21 20 19 18 18 17 16 16 15 14 14 15 15
14 14 15 16 16 17 17 17 18 18 18 18 19 19 19 19 20 20 20 20 21 21 21 22 23 23 23 23 22 21 20 20 19 18 18 17 16 15 15 14 14 14 14
14 15 15 16 17 17 17 17 18 18 18 18 19 19 19 19 19 20 20 20 21 21 22 23 23 24 24 23 22 21 20 20 19 18 17 16 16 15 14 14 13 13 14
15 15 16 17 17 17 17 17 18 18 18 18 19 19 19 19 20 20 20 21 21 21 22 23 24 24 23 22 22 21 20 19 18 17 17 16 15 15 14 14 14 14 13
15 16 16 17 17 17 17 17 17 18 18 18 18 19 19 20 20 20 20 20 21 21 22 22 23 24 23 23 22 21 20 19 18 17 16 16 15 15 15 14 14 13 13
15 16 16 16 17 17 17 17 17 17 17 17 18 18 19 19 20 20 20 20 20 21 22 22 22 23 23 22 22 21 20 19 18 17 17 16 15 15 15 14 13 13 12
15 16 16 16 16 17 17 16 16 17 17 17 17 18 18 19 20 20 20 19 20 20 21 22 22 22 22 22 22 22 21 20 19 18 17 16 16 16 16 16 15 14 13
15 16 16 16 17 17 16 16 16 16 16 17 17 17 18 19 19 19 20 20 20 20 21 22 22 21 21 22 22 22 21 21 20 18 17 16 16 16 16 16 15 15 13

GEFSGL_500_meanwind_228.txt.gz
Wind_Speed
16 16 16 16 16 17 17 17 16 16 16 17 18 18 19 19 20 20 20 21 22 23 24 25 24 24 24 24 24 25 26 26 25 25 25 25 25 26 26 25 25 27 28
16 15 15 15 16 16 16 15 15 15 17 17 18 18 18 18 18 19 20 21 22 22 23 23 23 24 24 24 25 26 26 26 27 26 26 25 25 25 26 27 26 27 27
15 15 15 15 15 15 15 15 15 16 16 17 17 17 17 17 18 19 20 20 21 22 22 22 23 23 23 24 25 25 26 27 27 27 27 26 26 25 26 26 27 27 27
15 15 16 16 15 15 15 15 16 16 17 17 17 16 17 17 18 19 19 20 21 21 22 22 23 23 23 24 24 25 26 26 26 27 27 27 27 27 27 27 27 28 28
16 16 16 15 15 14 14 15 16 16 17 17 17 16 17 17 18 19 19 21 21 22 22 23 23 23 24 25 25 25 26 26 27 27 27 27 27 27 27 28 28 28 28
16 16 16 15 15 15 16 16 16 17 17 17 17 17 17 18 19 19 20 21 21 22 22 23 23 23 24 25 26 26 26 26 26 27 27 27 27 27 27 27 27 28 28
17 16 16 15 15 15 15 16 17 17 17 16 17 17 17 18 19 20 21 22 22 23 23 23 24 24 24 24 24 24 25 25 25 25 25 25 25 26 26 26 27 28 28
16 16 16 15 15 15 15 16 17 17 17 16 17 17 17 19 20 21 22 22 22 23 24 24 24 24 24 24 24 25 24 24 24 24 24 25 24 24 25 25 26 26 26
16 16 15 16 15 16 16 16 16 17 16 16 16 17 18 19 20 20 21 21 22 23 23 24 24 24 24 24 24 24 24 23 23 23 24 24 24 25 25 25 25 25 25
16 15 16 16 16 16 16 16 17 17 15 15 16 17 18 18 19 20 20 21 22 22 23 23 23 23 23 24 24 23 23 23 23 23 23 23 24 24 25 25 25 25 25
16 16 16 16 17 17 16 17 17 17 16 16 17 17 18 19 19 20 19 20 22 23 23 23 23 23 23 24 24 24 24 23 23 23 23 23 23 23 23 24 24 24 24
16 16 17 17 17 17 17 17 17 17 17 18 18 18 18 19 20 20 20 21 22 23 23 23 23 23 23 24 24 23 23 23 23 23 23 23 22 22 22 21 21 21 21
17 17 17 17 17 18 17 17 17 17 17 18 19 19 19 20 20 20 21 22 22 22 22 23 23 24 23 23 24 23 23 22 22 22 22 21 20 20 20 19 19 19 20
16 17 17 17 17 17 18 18 17 17 18 18 19 19 19 20 20 20 21 21 22 22 22 22 23 23 23 23 23 22 22 22 22 21 20 19 19 19 19 19 18 18 19
17 17 17 17 17 17 18 18 18 18 18 18 18 19 20 20 20 21 21 22 22 22 23 23 23 23 23 23 22 21 21 21 20 19 19 19 19 18 18 18 18 18 19
17 16 16 18 17 18 18 18 18 19 18 18 18 19 19 20 21 21 22 22 23 23 23 23 24 24 24 23 22 21 20 21 20 20 19 19 18 18 18 18 17 17 18
16 16 17 17 18 18 18 18 19 18 18 19 19 20 20 21 21 21 21 22 22 23 23 23 24 24 24 22 21 20 19 19 19 19 19 18 18 18 17 17 16 16 17
16 16 17 17 17 18 18 19 19 18 18 19 19 20 21 21 21 22 22 23 23 24 23 23 23 23 23 22 21 20 18 18 18 18 18 18 17 17 17 17 16 16 17
16 16 16 17 18 18 18 18 19 19 19 20 20 20 21 22 22 22 22 23 23 23 23 23 22 22 21 21 20 19 18 18 18 18 17 17 17 16 16 16 16 16 16
16 17 17 17 18 18 19 19 20 20 20 20 21 21 21 22 22 21 22 23 24 23 24 23 22 22 21 20 20 19 19 18 18 18 18 17 16 16 16 16 16 16 16
16 17 17 17 18 18 19 19 20 21 21 21 21 21 22 22 22 22 22 23 23 23 23 22 21 21 20 20 20 20 19 19 18 18 17 17 17 17 16 16 16 15 15
17 17 17 17 18 19 19 20 20 20 21 22 22 21 22 22 22 22 22 21 22 22 22 21 21 21 20 20 20 20 20 19 19 18 17 17 17 17 17 16 16 15 14
16 16 16 17 18 19 20 20 20 20 21 22 22 22 22 22 23 22 21 21 21 22 21 21 20 20 20 20 20 20 20 20 19 18 17 17 16 16 16 16 15 14 14
16 16 17 18 18 19 20 20 20 20 21 21 22 22 22 22 21 21 20 20 21 21 21 21 20 20 19 19 20 20 19 19 18 18 17 17 16 16 16 16 15 14 15
16 16 17 18 18 19 19 20 20 20 21 21 21 21 21 21 21 21 21 21 20 21 20 20 19 19 19 19 20 19 19 18 18 17 17 17 17 16 16 15 15 14 15
16 17 18 18 18 19 19 20 20 20 21 21 21 21 21 21 21 21 21 21 20 20 20 19 19 19 18 19 19 19 18 18 18 18 18 18 17 16 16 15 15 15 15

GEFSGL_500_meanwind_234.txt.gz
Wind_Speed
15 15 16 17 17 17 17 17 16 17 16 16 16 15 16 16 17 18 18 18 19 20 21 21 22 23 24 24 25 25 25 25 25 25 26 26 26 26 26 27 27 28 28
16 16 16 17 17 17 16 16 16 16 15 15 15 15 15 16 16 17 18 18 19 20 20 21 22 23 24 24 24 25 25 25 24 25 26 27 26 26 26 26 27 27 28
15 15 16 16 16 16 16 16 15 15 15 14 15 15 16 16 16 17 18 19 19 20 20 22 23 23 23 23 24 24 24 24 24 24 25 26 26 27 26 27 27 27 28
14 14 15 15 15 15 15 15 15 15 14 14 14 14 15 16 16 17 19 19 20 20 21 22 23 23 23 24 24 25 24 24 24 24 25 25 26 26 26 27 27 28 28
14 15 15 15 15 15 15 16 15 15 14 14 14 14 15 16 17 18 18 19 20 20 20 22 22 23 23 24 24 24 24 24 24 25 25 25 26 27 27 28 28 28 29
15 15 15 15 15 15 15 16 16 15 14 14 15 15 15 16 17 17 18 19 19 20 21 22 22 23 24 25 25 25 25 25 25 25 25 25 25 26 27 27 27 27 28
15 16 16 16 16 16 15 16 16 15 15 14 15 15 15 16 17 18 18 19 20 20 21 22 22 23 24 25 24 25 25 25 25 25 25 25 25 25 25 26 26 26 26
16 16 17 17 17 16 16 17 16 15 15 15 16 16 16 16 18 18 19 19 19 19 20 20 21 22 23 23 24 24 24 24 24 24 24 24 24 25 25 25 26 26 25
17 17 17 17 17 17 16 16 16 16 16 16 16 15 15 16 17 17 17 16 16 17 18 20 21 21 22 23 23 23 24 24 24 23 23 23 24 24 24 24 25 26 26
18 18 18 17 17 17 17 16 17 17 16 17 16 16 16 15 15 16 16 16 17 18 19 20 20 21 21 22 23 23 23 23 23 22 22 22 22 22 23 24 24 25 25
19 18 18 17 17 17 17 17 18 18 18 17 17 16 16 16 16 16 16 17 18 19 20 20 21 21 22 22 23 22 22 22 22 21 21 21 21 21 22 23 23 23 24
19 18 18 17 18 18 18 18 19 18 19 18 17 17 17 17 17 17 18 18 19 19 20 20 21 22 22 22 22 21 21 21 21 20 20 21 21 21 22 22 23 23 23
18 18 17 17 18 19 19 19 19 19 18 17 17 18 18 18 18 18 18 19 19 20 21 21 21 22 22 22 22 21 21 20 19 19 19 20 20 21 21 22 22 22 22
18 18 18 18 18 19 19 18 18 18 18 18 18 18 18 18 18 19 19 20 20 21 21 21 22 22 22 22 21 21 20 19 19 19 19 19 19 19 20 21 20 21 21
18 18 18 18 18 18 18 18 17 17 18 18 18 18 18 19 19 19 19 19 20 20 21 22 22 22 22 21 20 20 19 19 19 19 19 18 19 19 19 19 18 19 19
18 18 18 17 18 17 17 17 17 18 18 19 19 18 18 18 18 18 19 19 19 20 21 21 22 22 21 20 19 20 19 18 18 18 18 18 18 18 17 17 17 17 17
19 18 17 17 17 17 17 18 18 18 18 18 18 18 17 17 18 18 18 18 19 20 21 21 21 21 21 19 19 18 18 18 17 17 17 17 17 16 16 15 16 16 16
17 17 17 16 17 17 17 18 18 19 19 19 18 18 18 18 18 18 18 18 19 20 20 21 21 21 20 19 18 17 17 17 17 16 16 16 15 15 14 15 15 15 15
17 16 16 16 17 17 18 18 18 19 20 20 19 19 19 19 19 19 19 19 19 20 20 20 20 20 20 19 17 16 16 16 16 16 16 16 15 15 14 15 15 15 15
16 15 16 17 17 18 18 19 19 20 20 20 20 19 19 19 19 19 19 20 20 21 21 20 19 19 19 18 17 16 16 16 16 16 16 16 15 15 15 15 15 15 14
15 16 16 17 17 18 19 19 20 20 20 20 20 19 19 19 19 19 20 20 20 20 20 20 19 19 19 19 18 17 17 16 16 16 16 15 15 15 15 14 14 14 13
16 16 17 18 18 18 19 19 20 20 20 20 20 19 19 19 19 19 20 20 20 19 19 19 19 19 19 18 18 17 17 17 16 16 16 15 15 14 14 14 14 13 12
17 17 17 18 19 19 19 20 20 20 20 20 19 19 19 19 19 19 20 20 20 19 20 20 19 19 19 18 18 17 17 16 16 15 15 15 15 14 13 13 12 12 12
18 18 19 19 19 19 19 19 19 19 20 19 18 18 18 18 19 19 19 19 20 20 20 19 19 18 18 17 17 17 16 16 15 14 14 14 14 14 13 12 12 12 12
19 19 19 19 19 19 19 18 18 19 19 19 19 18 19 19 19 19 19 19 19 19 19 19 18 18 17 17 16 16 16 16 15 15 14 14 14 14 13 13 13 13 12
18 19 18 18 19 19 19 18 18 19 19 19 19 19 19 19 19 19 19 19 19 18 18 18 18 18 17 17 16 16 15 15 15 14 14 15 15 14 14 14 13 13 12